GFSGL_sfc_thetae_000.txt.gz
Theta_e
284 284 283 282 280 279 279 278 277 277 276 276 276 275 275 275 275 274 275 275 273 274 274 274 274 275 274 274 274 275 274 275 273 275 277 278 278 279 281 282 283 283 284
284 283 281 280 279 278 277 276 276 275 275 275 274 274 274 274 273 273 272 272 271 271 272 272 272 273 271 271 271 271 271 272 271 269 272 273 274 276 277 278 280 281 281
283 282 280 279 278 276 276 276 275 275 274 274 273 272 272 272 272 272 271 271 271 270 271 270 270 271 270 270 271 270 271 272 271 269 269 272 272 274 274 275 276 277 280
282 281 279 277 277 275 275 275 274 273 273 272 272 272 271 271 271 271 271 270 270 270 271 271 271 271 271 270 270 270 270 269 269 269 269 270 271 273 274 273 274 277 278
281 279 277 276 275 275 274 273 272 272 272 272 271 270 270 269 270 270 270 270 270 271 272 272 272 272 274 275 273 272 272 271 270 269 269 269 270 271 272 274 274 275 277
280 277 276 275 274 273 272 271 271 270 270 270 269 269 268 270 273 275 274 272 272 271 270 271 272 272 273 275 276 277 276 272 271 271 272 271 271 272 274 273 273 274 273
278 276 274 274 272 271 271 270 270 269 270 269 269 269 269 269 273 274 275 273 272 271 271 271 271 273 273 273 275 276 276 277 277 274 271 272 272 275 275 275 275 275 275
277 275 273 272 271 270 269 269 269 269 269 268 268 269 268 269 273 274 274 273 271 271 272 272 273 273 274 275 274 273 273 274 275 275 274 274 274 276 276 276 275 275 277
274 273 272 272 270 269 268 268 268 268 268 268 268 267 266 267 270 272 274 271 271 271 273 274 274 273 275 277 274 272 272 273 276 278 278 279 280 281 280 277 275 273 272
273 272 272 271 269 268 268 268 268 268 267 268 267 267 267 265 269 272 274 270 268 271 272 273 274 274 275 277 274 272 270 271 273 272 274 275 277 277 279 279 278 275 276
273 271 270 269 268 268 267 267 266 266 267 266 266 267 267 268 267 272 274 273 271 272 271 271 271 274 276 276 276 271 271 274 274 272 274 275 275 276 276 277 278 277 276
271 269 268 267 267 267 266 265 264 265 264 264 265 267 269 271 271 271 274 275 276 270 270 271 271 276 274 274 272 274 274 274 268 269 270 271 274 276 277 278 279 280 280
268 267 265 265 264 264 264 263 263 264 265 265 266 267 267 269 269 271 272 274 274 272 272 273 274 272 272 270 271 272 270 267 267 266 267 269 272 275 278 279 280 281 280
266 264 263 263 262 262 264 264 264 264 265 266 267 266 266 267 267 268 269 268 272 272 272 267 268 269 269 269 267 268 268 267 267 267 267 269 270 271 272 275 278 281 279
265 264 263 263 263 263 265 265 266 267 267 266 266 265 264 263 265 272 271 270 270 271 264 261 261 262 263 264 264 265 266 266 267 267 267 267 268 270 271 273 275 280 279
265 264 263 262 263 264 264 265 270 269 271 271 271 267 265 269 271 272 272 273 271 271 256 255 260 261 261 262 262 263 265 265 266 267 267 267 267 268 268 269 271 272 279
266 265 264 264 264 263 263 263 263 268 270 270 270 269 269 269 270 271 271 270 268 264 251 257 258 260 260 262 262 263 263 265 267 267 266 266 268 267 266 266 268 270 273
267 265 264 264 264 264 263 263 263 262 262 263 267 268 267 268 269 269 269 263 253 257 251 256 257 259 260 261 262 262 263 264 266 266 266 267 266 265 264 264 265 267 269
266 265 265 264 264 264 265 264 263 263 262 260 261 265 262 266 267 266 265 253 249 249 251 255 257 258 259 260 261 262 263 263 266 266 267 266 265 264 263 264 264 266 267
266 265 264 263 262 262 262 262 262 261 261 260 259 259 257 257 252 250 249 248 247 248 251 254 256 257 258 259 260 262 263 263 266 267 266 265 265 264 264 263 264 264 265
265 263 263 262 261 261 261 261 261 260 259 258 258 258 263 254 250 248 247 247 247 247 252 254 255 256 258 259 260 261 262 263 266 267 266 265 264 264 264 265 265 265 265
262 261 261 260 261 261 260 260 260 259 258 258 257 259 263 256 252 250 249 247 247 248 251 251 254 255 257 259 260 261 262 263 266 268 266 265 265 264 264 264 264 265 266
261 260 260 260 260 259 258 258 258 257 256 256 255 256 255 250 249 248 247 245 247 251 253 251 253 255 257 259 260 261 263 263 267 268 266 265 264 264 264 263 264 264 266
260 260 259 258 258 257 257 256 256 256 255 253 252 250 252 248 245 247 247 246 248 248 251 251 253 253 256 257 259 262 264 265 270 268 266 265 264 264 264 263 264 264 265
259 258 258 257 257 256 256 255 255 254 253 253 251 251 249 249 248 244 244 246 247 249 250 251 253 253 254 255 258 261 263 265 270 268 266 265 264 264 264 263 263 264 265
259 258 257 257 256 256 255 254 254 253 252 251 251 249 249 248 247 245 245 246 248 249 249 251 252 251 253 256 260 262 265 270 271 268 267 265 264 263 264 263 263 263 263

GFSGL_sfc_thetae_003.txt.gz
Theta_e
285 285 285 284 284 282 282 281 280 279 278 277 277 276 276 276 276 275 276 276 274 274 275 275 275 275 274 274 274 274 274 274 271 273 276 276 275 274 276 277 278 278 280
285 284 284 282 281 281 281 279 278 278 277 277 276 276 275 275 274 274 273 274 273 272 273 273 272 273 271 272 271 271 271 272 270 268 271 272 272 273 273 274 275 277 277
283 282 282 281 280 280 278 277 277 276 276 276 275 274 274 273 273 273 272 272 272 272 271 271 270 270 270 270 270 270 270 271 271 269 268 271 271 272 272 273 274 275 277
283 282 281 280 280 278 277 276 276 275 274 274 273 272 272 272 272 272 272 271 271 271 271 271 271 271 270 269 270 269 270 269 269 269 268 269 270 272 272 271 271 274 275
283 282 281 280 279 277 276 276 274 274 273 273 272 271 271 271 271 271 271 271 270 270 271 271 272 272 273 274 272 272 271 270 270 270 270 271 271 272 272 273 272 273 275
282 281 280 278 276 275 275 273 273 272 272 272 271 270 269 271 274 276 273 271 272 271 271 272 272 272 273 275 276 277 276 273 272 271 272 272 272 273 273 273 273 273 271
281 280 277 276 275 274 274 273 272 271 271 271 270 270 270 271 276 277 277 274 273 272 272 271 271 273 273 273 275 277 277 277 277 275 272 273 273 274 274 273 273 272 272
281 279 276 275 274 273 272 272 271 270 270 269 269 270 270 271 276 277 276 274 273 272 272 272 272 273 274 274 273 273 274 274 275 275 274 274 274 276 275 274 273 273 274
279 277 275 275 273 272 271 271 270 269 269 269 269 268 269 270 276 276 275 273 273 272 273 273 273 273 275 277 274 273 273 273 277 278 278 279 280 280 280 277 275 272 271
278 277 275 274 273 271 271 270 269 269 268 269 268 267 268 266 273 275 275 273 267 270 272 273 275 274 276 277 275 273 270 270 271 272 274 274 274 274 277 275 275 273 273
276 274 273 273 272 271 270 270 268 268 269 268 267 267 266 266 268 275 276 272 270 269 271 271 273 275 276 278 277 272 270 274 272 267 267 269 270 271 273 276 277 275 273
274 272 271 271 271 269 268 267 267 267 266 266 266 266 268 268 270 274 275 276 275 269 267 272 271 275 275 275 273 273 275 273 266 266 265 266 268 269 271 273 275 277 278
271 271 270 268 268 267 266 265 265 265 265 265 266 266 267 269 269 274 275 274 275 272 272 272 273 273 272 270 271 272 270 266 266 264 264 266 269 270 271 271 272 274 275
269 268 267 266 265 266 266 266 266 265 266 267 267 267 267 267 267 268 268 268 272 271 270 265 268 268 268 268 266 267 266 266 266 265 265 267 269 269 268 270 269 271 271
270 267 266 266 265 264 266 266 266 268 269 268 268 267 266 266 267 269 269 268 269 269 258 256 257 261 262 263 263 264 265 265 265 265 265 265 267 268 267 269 269 269 267
268 266 266 265 265 265 265 266 271 271 273 274 273 269 268 271 273 275 274 273 271 270 256 252 255 259 260 261 261 262 263 264 264 265 265 266 266 266 267 268 267 266 266
269 267 266 265 265 265 265 266 265 271 274 274 274 273 272 273 274 274 273 270 269 263 252 250 253 256 258 260 260 261 261 263 264 264 264 265 267 267 266 265 265 265 264
270 267 265 265 265 265 266 267 267 267 267 268 273 273 273 273 273 273 270 264 257 255 248 247 248 251 256 257 258 259 260 261 262 263 263 265 267 267 265 264 264 263 263
269 266 266 265 266 266 266 267 267 267 266 265 267 270 271 273 273 271 265 258 253 250 247 246 248 251 255 256 257 258 259 260 261 262 263 264 267 266 264 264 264 264 264
269 267 266 266 265 265 265 265 264 264 263 263 264 261 261 261 258 256 255 254 250 248 249 246 249 249 251 253 255 257 258 259 260 262 263 266 267 266 264 264 264 263 263
267 266 266 265 265 265 265 264 263 263 262 262 261 261 263 259 257 255 253 251 249 248 246 246 248 247 251 253 254 256 257 259 260 263 263 266 266 264 265 265 264 264 264
266 265 264 264 264 264 263 263 263 262 261 260 260 263 267 258 256 254 253 251 248 248 245 246 247 247 251 253 254 256 257 258 261 263 263 266 265 265 265 264 263 264 263
264 263 263 263 263 262 262 261 261 260 260 259 259 259 257 255 253 252 251 248 249 247 246 246 247 248 251 253 255 255 256 258 261 263 266 265 265 264 264 263 263 263 262
262 262 262 261 261 260 260 259 259 259 258 257 256 256 255 253 251 251 249 248 248 243 245 246 247 247 250 252 253 255 257 259 262 266 267 265 264 264 264 263 263 263 263
261 261 260 259 259 259 258 258 257 256 255 255 254 254 253 252 251 248 247 247 244 244 246 247 247 248 249 250 251 253 256 260 264 269 267 266 264 264 264 263 263 263 263
260 259 259 258 258 257 257 256 255 255 255 254 254 253 252 252 250 248 247 245 246 246 246 247 246 247 249 251 253 257 260 264 268 269 267 265 264 263 263 263 263 263 262

GFSGL_sfc_thetae_006.txt.gz
Theta_e
286 286 285 284 284 283 282 281 280 280 280 280 279 278 277 277 277 276 276 276 275 275 275 275 275 275 274 274 274 274 273 273 269 273 275 275 274 274 275 275 275 275 275
286 285 285 284 283 282 282 281 280 280 279 279 278 277 277 276 276 275 274 275 273 273 274 273 273 274 273 273 272 271 272 272 270 268 271 272 272 273 273 273 274 276 275
285 284 283 282 282 283 282 280 280 279 278 278 277 277 276 275 275 275 274 273 273 273 273 273 272 272 271 271 271 270 271 271 271 269 269 271 272 273 272 273 274 275 276
285 284 283 282 282 282 282 280 279 279 277 277 277 276 275 274 273 273 273 272 271 272 272 272 272 271 272 271 270 270 270 269 269 269 269 269 271 273 274 273 273 275 276
285 283 283 283 283 282 279 279 278 278 277 276 275 274 273 273 273 272 272 271 271 271 271 272 272 273 274 273 271 270 270 268 269 269 269 271 272 273 273 274 273 273 274
284 283 283 282 281 279 278 278 277 276 275 275 274 273 271 272 277 278 274 272 271 271 271 272 273 272 274 276 277 277 276 272 271 271 272 272 272 273 274 274 273 272 270
284 283 281 280 279 277 277 276 275 275 274 273 273 272 271 272 279 279 277 273 272 272 272 272 272 273 273 273 275 276 277 278 278 275 273 273 273 274 274 273 273 272 271
283 281 280 278 277 276 276 275 275 275 274 273 272 272 272 271 280 281 279 274 273 273 272 272 272 272 273 273 273 273 273 274 275 276 275 275 276 276 276 276 275 275 276
281 281 279 278 277 275 275 275 275 274 273 273 272 271 271 271 280 281 279 273 273 272 273 273 273 273 274 276 274 272 273 274 278 279 279 279 279 279 278 273 270 269 268
280 279 278 278 277 275 275 274 274 274 273 273 271 271 271 270 280 280 279 273 271 271 272 273 275 274 276 277 274 273 272 273 272 271 274 271 273 271 274 272 270 267 267
276 274 273 274 274 274 274 273 272 272 271 271 270 269 270 270 275 280 280 272 270 269 270 270 273 275 276 277 278 273 272 273 273 268 267 267 268 269 270 271 272 270 268
273 272 272 272 273 273 271 271 271 271 269 269 267 267 269 269 271 278 279 277 275 269 270 272 272 274 276 277 275 274 275 274 264 264 264 265 266 267 269 271 271 271 272
273 273 272 270 271 271 270 269 268 269 269 267 267 267 267 268 269 277 279 279 277 272 272 273 274 273 273 271 271 272 271 265 264 263 263 265 267 269 269 269 271 271 271
273 272 271 270 269 270 270 269 269 269 268 268 268 267 267 267 269 273 274 276 276 274 272 266 268 268 268 269 266 267 266 265 265 264 264 266 267 267 266 268 268 268 268
273 272 270 270 269 269 270 269 270 270 271 269 269 269 268 267 269 272 271 269 269 269 259 257 259 262 262 263 263 263 264 264 264 264 264 264 265 266 266 268 268 268 266
273 271 270 269 268 268 268 268 274 273 275 276 275 272 271 273 274 275 275 275 275 273 256 254 257 260 260 261 260 261 262 263 263 264 263 263 264 264 264 266 268 267 265
274 272 270 269 268 267 267 266 266 272 275 276 276 275 274 274 276 277 277 277 275 267 255 253 254 257 258 259 259 260 260 261 263 262 263 262 263 263 264 265 267 266 265
275 274 270 269 267 267 267 267 268 268 269 271 276 274 276 277 278 277 276 273 264 259 253 251 252 253 255 257 257 258 258 259 260 261 261 261 262 263 263 265 266 264 264
274 273 270 268 267 267 268 268 268 269 270 270 271 274 276 278 277 276 272 260 258 256 252 253 252 253 254 254 254 254 254 256 258 258 259 260 262 262 264 265 265 265 265
274 273 269 267 267 266 267 268 269 269 269 269 269 270 272 272 266 261 258 257 256 255 255 252 252 250 250 250 250 250 253 255 256 258 259 261 262 263 265 265 265 264 264
272 270 267 267 266 266 267 267 268 268 267 268 267 267 269 265 260 258 256 256 255 254 254 252 250 249 249 248 248 248 251 255 256 258 259 261 262 264 265 265 264 264 264
268 266 266 266 266 266 266 267 266 266 266 263 264 268 270 262 259 257 257 255 254 253 252 249 249 248 249 248 247 249 252 253 255 258 259 260 262 265 264 264 264 264 263
266 265 265 265 266 266 265 265 264 264 263 263 265 266 260 259 258 257 256 253 253 253 251 249 249 250 250 248 249 251 252 253 255 258 258 260 264 264 263 262 263 263 263
264 264 263 264 264 264 264 263 263 263 263 262 262 259 258 257 256 255 254 253 252 250 248 248 249 249 249 249 248 250 252 253 255 258 260 263 264 264 263 262 262 263 263
262 262 262 262 261 261 261 261 261 261 260 259 258 257 256 255 254 253 252 252 251 250 250 249 248 248 248 248 249 249 252 255 256 261 265 264 264 263 262 262 262 262 263
260 260 260 260 260 260 259 258 258 258 258 257 256 255 255 254 254 253 252 251 250 250 249 248 248 248 248 249 250 253 257 262 264 268 266 265 264 263 262 262 262 262 262

GFSGL_sfc_thetae_009.txt.gz
Theta_e
285 286 286 286 285 285 283 283 283 282 281 281 281 280 280 279 279 278 277 277 277 276 277 277 276 276 275 274 275 275 274 274 270 273 275 275 274 274 275 275 276 275 276
286 286 286 285 284 284 283 283 283 282 281 281 281 280 280 279 278 278 276 277 276 275 275 275 274 275 273 273 273 272 272 272 271 269 272 273 272 273 274 273 275 276 276
285 285 284 284 283 284 283 282 282 282 280 280 280 279 279 278 277 277 276 276 275 275 275 274 273 273 271 271 271 270 271 272 271 270 269 272 272 273 273 275 275 276 278
284 284 284 284 283 284 284 282 281 281 280 279 279 279 278 277 277 276 276 275 274 274 274 273 273 272 272 271 271 271 271 269 269 269 270 271 272 274 275 274 273 276 276
284 284 284 285 284 284 283 281 281 280 280 279 278 278 277 277 276 275 275 274 273 272 272 272 272 273 275 274 271 270 269 268 268 268 269 271 272 273 272 274 273 274 274
285 285 285 284 283 283 283 281 280 279 279 278 277 277 276 276 281 280 276 273 273 272 271 271 272 273 275 277 277 277 272 267 266 267 271 272 272 273 274 273 273 272 271
285 287 284 281 281 281 280 279 279 278 278 277 277 276 275 276 281 282 279 274 273 272 272 272 272 273 273 273 277 278 278 279 279 276 273 273 273 274 274 273 274 273 273
285 285 281 281 282 280 279 278 278 278 277 277 277 276 276 275 282 283 280 274 273 273 273 273 273 273 273 273 273 272 273 274 274 275 274 274 275 276 276 276 274 271 271
281 281 280 279 280 278 278 277 278 277 277 277 277 275 275 275 282 283 280 273 273 273 273 273 273 273 275 277 273 270 272 274 278 279 280 280 280 280 279 273 267 266 266
279 279 277 276 276 277 278 277 277 278 276 276 275 275 275 274 282 283 279 274 272 272 273 273 275 274 276 277 274 268 267 272 274 270 273 274 274 273 274 272 268 265 265
277 274 272 273 273 274 276 276 275 275 275 274 273 273 273 274 279 283 282 274 272 272 271 272 273 277 277 278 278 273 273 273 270 265 267 267 268 269 269 270 270 269 267
276 273 272 270 272 272 272 270 273 274 273 272 271 270 271 273 278 283 283 278 277 271 271 272 273 277 277 277 277 276 276 274 261 259 261 263 265 267 269 270 271 271 271
283 279 275 274 272 274 273 272 272 272 271 270 270 270 269 271 275 282 283 280 278 272 272 274 276 277 277 275 273 272 271 264 260 258 261 264 267 268 270 269 270 270 270
278 280 276 273 272 272 272 271 272 270 271 270 269 270 269 269 271 277 279 280 277 274 275 275 274 272 271 270 268 268 267 266 265 263 264 266 267 266 266 267 266 267 266
274 277 276 273 272 271 272 271 272 273 273 271 271 271 269 268 270 275 277 277 275 274 267 266 264 265 265 265 264 264 264 265 264 264 263 263 264 265 265 266 266 265 264
269 272 275 273 272 271 271 270 276 276 276 278 277 274 272 275 276 277 279 280 277 275 265 263 263 263 263 263 262 262 263 263 263 263 262 262 262 263 263 264 264 264 263
267 269 273 273 272 270 270 270 268 273 277 278 279 278 276 276 277 278 279 279 278 274 264 263 263 262 262 262 261 260 260 262 262 261 261 261 261 261 261 262 263 263 264
266 268 270 275 272 271 270 269 269 270 271 271 278 277 278 277 278 279 279 278 274 266 263 261 260 259 259 259 259 259 259 259 259 260 259 258 258 259 260 261 262 262 263
266 267 270 274 273 271 270 269 269 269 270 271 273 277 276 278 279 279 279 271 264 261 260 259 259 258 258 257 256 255 253 253 255 255 253 255 258 259 260 261 262 263 263
265 267 269 271 270 269 268 268 268 269 269 271 271 272 273 275 274 275 268 265 262 260 259 258 256 255 255 254 252 250 249 249 253 253 253 256 258 259 260 261 262 263 262
263 267 270 272 268 268 268 268 268 269 270 270 271 272 276 274 272 263 262 262 261 259 258 257 255 253 251 250 249 247 248 252 253 251 254 256 258 258 260 261 263 263 262
266 268 270 268 267 267 267 268 269 269 270 269 270 273 277 266 264 262 261 259 258 258 257 256 253 252 251 251 250 250 249 251 251 250 253 257 257 258 260 263 263 262 262
266 266 266 266 266 267 267 268 268 268 268 267 269 269 264 262 261 260 259 257 256 255 254 253 252 251 251 250 251 251 251 251 251 250 253 255 257 259 261 263 262 261 261
263 264 264 265 265 265 265 265 266 264 266 267 264 262 261 260 259 258 257 255 255 253 253 252 252 251 249 249 249 249 250 251 250 251 253 255 257 261 263 263 261 261 260
262 262 263 263 263 263 263 263 263 264 264 261 260 259 258 258 257 256 255 255 254 253 252 252 252 252 250 250 250 249 250 253 252 254 255 259 263 261 263 261 260 260 260
260 260 260 261 260 261 261 261 261 260 259 259 258 258 257 257 256 255 254 254 253 253 253 253 252 251 251 251 251 252 254 259 260 263 266 266 260 262 262 260 259 259 259

GFSGL_sfc_thetae_012.txt.gz
Theta_e
284 285 285 284 284 284 284 284 284 283 283 281 282 282 281 280 280 280 280 279 279 278 278 278 277 278 277 277 277 276 275 275 271 273 275 274 274 274 275 275 276 276 277
285 284 284 284 283 283 283 284 283 282 282 282 282 281 281 281 280 280 279 279 278 277 277 277 276 277 275 275 274 274 273 274 272 270 272 272 272 273 274 274 275 277 277
286 284 284 283 283 283 284 284 283 283 282 282 282 281 281 280 280 280 279 278 278 277 277 276 275 275 273 273 272 272 272 273 272 270 270 272 272 273 273 274 275 276 278
285 283 283 283 284 285 285 283 282 283 282 281 281 281 280 280 279 279 279 277 277 276 276 276 275 274 274 272 272 271 271 270 270 270 270 270 272 274 274 274 274 276 275
285 286 285 284 283 284 284 283 282 282 282 281 280 280 280 279 279 278 278 277 276 275 275 275 274 275 277 275 272 271 270 268 268 268 270 271 272 273 273 274 273 274 275
285 285 286 284 283 282 283 283 280 281 281 280 280 280 278 279 283 283 280 277 276 275 273 273 273 275 277 279 278 276 273 267 262 265 271 272 273 273 274 273 273 273 271
284 284 284 284 283 282 280 281 280 280 280 280 280 279 279 279 284 285 284 278 277 275 274 273 273 274 274 276 279 278 277 278 274 272 272 273 273 274 274 274 274 274 273
283 283 283 282 281 281 279 279 279 279 279 279 279 279 279 279 284 286 284 278 277 275 274 274 273 273 274 274 275 276 276 276 276 276 274 274 274 275 276 276 274 270 271
283 282 282 281 280 279 279 279 279 279 279 280 280 279 279 279 283 286 284 276 276 275 274 274 274 273 276 278 273 272 273 274 277 279 279 280 280 280 278 270 264 261 264
280 281 280 279 277 277 278 277 279 279 279 279 279 279 279 278 282 286 284 275 274 273 274 274 276 275 278 279 272 271 269 272 273 271 274 275 275 273 274 272 266 259 263
276 277 281 280 277 276 276 273 274 276 277 276 275 277 277 277 278 285 285 276 275 273 273 273 274 278 279 280 278 272 271 274 273 268 268 268 269 269 269 270 271 269 265
274 276 276 277 278 277 274 273 271 274 274 272 270 271 273 274 278 285 285 278 278 274 273 273 274 279 279 280 279 278 278 273 264 263 261 263 266 267 268 270 271 271 271
271 271 272 274 277 275 275 274 273 273 272 271 271 270 271 272 275 282 285 281 279 275 274 275 277 279 279 280 281 280 274 267 263 262 261 264 267 268 269 269 269 269 269
267 267 269 270 272 277 274 275 273 273 272 272 271 271 270 270 273 277 281 282 279 275 276 275 276 278 279 273 275 275 269 267 265 263 264 266 267 267 266 267 266 266 265
265 265 266 267 269 274 275 274 274 275 275 273 273 272 271 270 272 277 281 279 277 273 274 274 274 271 270 268 267 267 267 266 265 264 264 264 264 264 265 266 265 264 262
262 263 264 266 267 270 273 273 277 278 278 279 279 276 274 276 277 279 282 283 279 278 272 271 269 268 267 266 265 264 265 265 265 264 263 263 262 262 263 264 264 262 261
260 261 263 264 265 267 271 271 271 273 279 280 280 280 279 276 278 279 281 283 281 278 270 269 267 266 266 266 265 264 264 264 264 263 263 262 262 261 261 261 261 262 261
260 261 262 264 265 266 268 271 271 271 270 273 279 279 281 279 279 279 281 283 278 275 269 267 266 265 265 264 263 263 263 262 262 261 261 260 258 257 257 258 260 260 260
260 261 262 263 264 266 268 270 271 270 270 272 273 277 279 280 278 279 281 278 275 266 267 266 265 264 263 262 262 261 260 258 257 257 256 254 254 254 256 258 259 261 261
260 261 261 262 263 265 267 270 269 269 269 271 271 273 275 275 274 275 277 277 268 267 266 263 262 262 261 260 258 257 256 255 254 254 254 254 255 254 257 258 259 259 260
260 260 261 262 263 265 268 268 269 268 268 270 271 273 276 273 273 274 276 268 266 264 263 262 260 259 258 257 255 255 254 255 254 253 252 251 252 254 256 258 259 260 261
261 262 263 264 266 268 268 268 268 268 268 269 271 272 278 273 270 266 266 265 263 262 261 260 258 257 256 255 255 254 254 253 252 250 249 250 254 255 256 257 259 261 262
263 263 265 265 266 267 267 267 267 268 268 269 270 271 268 265 264 262 259 259 259 258 258 258 256 254 254 254 254 255 254 253 252 250 250 251 253 253 255 257 259 261 261
262 262 263 264 264 263 264 265 265 266 267 266 263 262 262 261 259 259 258 258 257 256 256 256 256 255 254 252 252 251 249 249 249 250 249 251 253 254 256 258 261 261 260
260 261 261 262 262 263 263 263 264 261 262 261 260 260 259 259 258 257 257 257 256 255 254 254 255 254 254 252 252 250 250 255 254 252 250 253 253 255 258 260 261 261 259
259 259 260 260 260 261 261 260 260 260 259 259 259 259 259 258 257 257 256 256 255 255 255 254 254 254 253 253 251 252 253 257 255 254 254 256 260 263 258 259 260 258 257

GFSGL_sfc_thetae_015.txt.gz
Theta_e
289 288 286 287 287 286 285 286 286 286 285 285 285 285 284 284 284 283 284 283 283 283 282 282 282 282 282 282 282 282 281 280 281 277 279 279 278 278 278 279 279 279 280
288 288 287 286 285 285 285 285 285 285 284 284 284 284 284 283 283 283 283 282 282 281 281 281 280 280 281 281 281 280 280 279 278 278 276 276 276 277 277 277 278 279 280
287 287 287 287 286 285 285 285 284 285 284 284 283 283 283 283 282 283 283 282 282 282 281 280 280 280 279 279 279 278 278 277 277 276 275 276 276 277 277 278 278 279 279
286 286 286 286 286 286 286 285 284 284 284 284 283 283 283 282 282 282 282 281 281 281 281 281 280 279 279 278 278 278 277 276 275 274 274 274 274 276 276 276 277 278 278
285 285 285 285 285 285 285 285 285 283 284 284 283 283 283 282 281 281 281 282 281 280 280 280 280 280 281 280 278 277 276 275 274 273 273 273 274 274 275 277 276 277 278
283 284 284 284 284 283 284 284 284 283 283 283 282 282 282 281 285 286 283 281 281 279 278 278 279 279 281 282 281 280 277 273 272 273 273 273 274 276 276 275 275 275 275
281 283 283 283 282 281 282 282 282 282 283 282 282 282 281 282 286 287 286 281 280 280 279 278 277 277 279 279 282 281 280 279 277 274 274 275 276 276 276 275 276 276 275
279 279 280 279 278 280 280 281 281 281 281 281 281 282 281 282 285 287 286 282 280 280 279 278 277 277 278 278 279 278 278 278 277 276 277 278 278 278 277 278 276 274 273
277 277 277 276 276 279 279 279 280 280 280 281 281 281 281 282 285 286 286 283 280 279 278 278 278 276 279 281 278 277 276 276 280 280 280 280 280 280 280 276 272 270 269
275 275 275 275 276 275 276 278 279 279 279 280 280 281 281 281 284 285 286 284 279 278 278 277 278 277 280 281 277 276 275 276 276 278 278 279 281 278 277 276 272 268 268
274 273 272 273 273 273 274 277 277 278 278 278 278 279 279 280 280 284 286 284 279 278 276 275 276 280 280 282 280 276 276 276 276 275 275 274 273 273 272 273 273 271 268
271 270 270 269 270 271 271 273 276 276 275 277 277 277 277 278 279 282 285 287 282 278 276 276 276 280 281 282 280 277 278 276 274 272 271 271 270 270 271 272 272 272 273
268 267 267 267 267 268 269 270 272 275 274 275 275 274 275 275 277 281 283 285 284 278 277 278 278 281 281 282 282 278 277 273 271 269 269 270 270 271 271 270 270 270 270
264 265 265 265 265 266 268 269 271 274 274 274 275 274 275 274 274 276 279 281 284 280 278 277 278 280 280 280 280 279 274 272 271 270 269 269 270 269 268 269 268 268 267
263 264 263 264 263 264 266 268 270 273 276 274 275 275 274 273 274 276 277 279 280 279 276 275 275 277 276 276 275 271 270 269 269 268 267 267 267 267 267 268 267 266 264
261 261 261 262 262 263 264 265 271 274 277 280 280 279 276 278 279 279 280 281 283 279 274 273 274 275 272 273 270 269 269 268 268 267 266 266 266 266 266 266 266 264 263
259 259 260 260 261 261 262 263 263 268 274 278 280 281 281 280 279 280 281 282 284 280 273 273 273 273 271 271 269 268 267 267 268 267 266 265 265 265 264 264 264 264 263
258 259 259 259 260 261 262 263 264 265 266 271 276 278 280 281 281 280 280 281 280 278 274 273 272 272 269 268 268 267 266 266 266 266 265 264 263 262 261 262 262 261 262
258 258 259 259 260 261 262 262 262 264 266 268 272 275 277 282 282 280 281 278 278 275 272 272 270 270 269 268 267 266 265 264 264 263 262 261 260 259 259 260 261 261 261
259 260 260 260 261 261 261 261 263 264 266 269 270 271 274 276 277 276 277 277 278 275 270 270 269 269 267 266 265 264 263 261 260 260 259 259 259 259 260 259 260 260 261
260 260 260 260 260 260 261 261 263 265 267 269 270 272 275 275 275 274 276 276 270 270 269 267 266 265 264 263 261 261 260 260 259 258 258 258 257 257 258 260 260 259 259
260 260 261 261 263 263 263 265 266 267 269 268 269 271 275 276 274 274 269 267 267 266 265 263 262 261 261 261 260 260 259 259 258 258 258 257 257 257 257 258 258 259 260
261 261 261 262 264 265 266 267 268 268 268 269 269 269 269 265 263 262 261 261 261 261 261 261 260 258 259 259 260 260 259 258 258 258 257 256 256 256 256 256 257 258 260
260 260 261 262 263 264 264 264 265 265 263 263 263 262 261 261 260 259 259 259 259 259 260 260 259 258 257 257 257 257 258 257 257 256 256 255 255 255 255 256 257 259 261
259 259 260 260 260 261 261 261 261 261 261 260 260 260 259 259 259 258 258 258 258 258 258 258 258 257 256 255 255 255 254 257 254 253 253 253 254 255 255 256 258 261 261
258 258 258 258 259 259 259 259 259 259 259 259 259 259 259 258 258 258 258 258 257 257 256 256 256 256 256 256 255 255 255 257 255 256 254 254 255 255 256 259 260 260 260

GFSGL_sfc_thetae_018.txt.gz
Theta_e
289 291 291 292 292 291 291 291 291 292 292 292 292 291 291 291 291 290 290 290 289 289 288 289 289 290 289 288 289 288 287 289 290 284 286 286 285 284 281 282 283 283 284
288 289 289 290 289 289 290 290 291 290 291 290 290 289 289 290 290 289 289 288 288 287 287 287 288 286 288 288 287 287 286 286 287 282 282 281 281 282 282 281 281 281 283
287 287 287 287 287 287 287 288 289 289 289 290 288 288 288 288 288 288 287 288 287 286 287 285 285 285 285 286 285 285 285 282 285 285 280 281 280 280 279 280 281 282 282
285 286 286 286 286 286 286 287 287 288 288 287 288 287 287 287 286 286 285 286 286 285 286 285 284 283 284 284 283 284 284 284 283 281 281 278 278 279 280 280 279 282 282
283 284 284 285 285 284 284 285 286 286 286 287 286 286 285 285 285 285 284 285 284 284 284 284 284 284 285 285 283 283 283 283 282 281 279 278 277 277 277 280 280 281 282
281 282 282 283 283 281 282 283 283 284 285 286 285 285 284 284 286 288 286 284 284 283 283 284 283 283 284 287 287 286 284 282 280 280 279 277 278 278 279 279 278 278 280
280 281 281 281 280 279 280 282 281 282 283 283 284 284 284 285 287 287 287 285 283 283 283 282 281 281 282 283 286 286 284 285 284 282 280 279 278 279 280 278 278 278 279
280 280 280 279 277 278 278 280 279 281 281 281 282 283 284 284 286 287 287 286 284 284 284 283 282 281 281 281 282 282 282 281 282 280 281 281 281 281 280 280 280 280 280
278 278 279 277 275 275 274 276 277 278 280 281 282 282 283 283 286 286 286 285 284 284 283 283 283 281 282 284 281 281 280 280 283 282 281 282 282 283 281 280 277 275 274
278 278 278 276 274 273 274 274 276 277 277 279 280 282 282 283 284 285 285 285 284 284 283 282 283 282 284 283 282 281 279 278 278 278 278 281 282 281 281 280 278 274 274
278 277 276 275 273 273 273 273 273 273 274 276 278 280 281 282 283 284 285 284 284 284 283 282 281 284 284 283 284 282 280 279 279 277 279 279 279 279 280 280 278 275 273
275 274 273 272 272 272 270 270 271 271 272 273 275 277 280 281 282 283 284 285 285 284 284 283 282 282 283 283 283 283 283 280 278 278 278 277 276 276 276 275 275 275 275
271 269 269 269 269 269 268 268 269 270 270 272 274 276 278 280 281 282 283 284 284 284 284 283 283 281 282 283 284 283 281 278 277 276 276 275 275 275 274 273 273 274 273
266 266 267 266 267 267 268 268 268 268 269 271 273 275 277 278 279 280 280 280 282 283 284 283 282 280 281 281 281 283 280 276 276 275 274 274 274 272 271 272 270 270 269
263 263 264 264 264 264 265 266 266 268 269 269 271 272 274 275 278 280 279 278 280 281 282 280 279 277 277 279 280 279 278 275 275 275 273 271 270 270 270 271 270 269 267
260 261 261 262 262 262 262 263 267 269 270 272 274 274 275 277 280 281 281 281 281 282 279 276 276 276 276 278 279 276 275 274 274 273 271 270 269 269 268 268 269 267 267
259 260 261 261 261 261 261 261 260 264 268 270 272 274 275 276 279 282 282 282 281 282 278 277 277 276 277 278 277 273 273 274 272 271 270 269 269 269 268 267 267 267 266
260 260 260 260 260 260 260 261 261 261 261 263 268 270 273 277 279 281 283 282 278 280 279 276 276 277 278 276 274 272 271 270 270 269 268 268 268 267 266 266 266 265 265
260 261 261 261 261 261 261 261 261 261 262 263 264 268 271 275 278 280 281 280 277 278 278 276 276 277 275 275 272 271 270 269 269 268 267 266 266 265 265 265 265 264 264
261 261 261 261 261 261 262 261 262 262 262 263 265 266 269 273 273 275 279 280 278 278 278 276 276 273 273 272 271 269 268 267 266 265 264 264 264 264 263 263 264 264 264
261 262 261 262 262 262 262 262 262 263 263 264 266 269 274 273 273 275 278 279 278 279 275 273 272 271 270 269 268 267 266 265 264 263 263 263 262 262 264 264 264 263 263
262 262 262 262 263 263 264 266 266 265 265 266 268 272 274 273 274 275 273 272 272 273 272 271 269 267 267 266 266 265 264 263 263 263 262 262 262 262 262 263 263 263 263
261 261 262 262 263 264 265 266 266 267 269 269 269 268 268 267 266 266 265 266 266 266 266 265 264 264 264 265 266 265 264 263 263 263 262 261 261 262 262 262 262 261 262
260 260 261 261 262 262 263 263 263 263 263 263 263 262 262 262 262 262 262 263 263 263 264 263 263 262 262 262 263 263 263 263 262 262 262 262 261 261 261 261 261 261 262
259 259 260 260 260 260 261 261 261 262 261 261 261 261 261 261 260 260 261 261 261 262 262 262 262 261 261 261 261 260 262 261 260 260 260 260 261 260 260 260 261 262 262
258 258 258 259 259 259 259 259 259 260 260 260 260 260 260 260 260 260 260 260 260 260 260 260 260 260 259 259 259 259 260 259 257 258 258 259 259 259 260 260 260 261 262

GFSGL_sfc_thetae_021.txt.gz
Theta_e
288 289 290 290 290 289 289 290 291 291 292 291 292 292 292 292 293 293 292 291 291 291 291 291 291 291 291 290 290 290 288 289 291 284 287 288 287 285 283 283 284 282 283
287 288 288 287 288 287 287 287 289 289 290 290 290 289 290 290 291 290 290 289 289 289 289 289 289 289 289 289 288 287 287 287 288 282 283 284 284 285 282 280 280 281 283
285 286 286 286 286 285 284 286 286 287 287 289 288 288 288 288 289 289 289 288 289 289 289 288 287 288 287 288 287 287 286 283 286 284 281 282 282 283 281 281 281 281 281
284 284 284 284 284 284 283 283 285 285 285 286 286 286 287 287 287 287 287 287 287 288 288 288 288 287 287 287 286 286 286 284 284 284 280 280 279 280 280 278 278 280 280
284 282 282 283 283 283 282 282 283 284 284 284 284 285 285 286 285 285 286 286 285 286 287 286 287 287 287 288 286 286 285 285 283 282 280 278 278 277 277 279 279 280 280
283 282 282 282 281 281 281 280 281 282 282 282 282 283 283 284 287 288 287 285 285 284 284 285 285 285 286 289 290 290 287 285 283 282 281 279 278 278 278 278 279 279 277
282 281 281 281 280 280 279 278 279 279 280 280 281 282 282 283 286 287 288 286 285 284 284 284 284 284 284 284 288 289 289 290 289 284 283 281 279 279 279 279 279 279 280
281 281 280 280 279 279 277 277 277 278 278 278 279 280 281 282 285 286 287 286 285 285 285 284 283 283 284 283 283 284 285 285 286 286 285 284 282 281 281 281 281 281 280
280 280 280 279 278 277 275 275 276 276 276 276 277 277 278 280 283 284 284 284 284 284 285 285 284 284 285 287 282 282 283 284 286 289 287 288 286 285 284 281 278 277 276
278 278 279 278 277 275 275 274 275 274 275 275 275 276 276 277 281 283 283 283 283 283 284 284 285 285 286 287 283 282 281 282 282 282 282 284 284 284 285 281 280 277 276
277 276 276 276 275 275 274 274 273 272 272 271 272 273 274 276 278 282 283 282 282 282 283 284 284 287 287 287 286 282 282 284 283 281 280 279 280 280 280 280 280 279 276
272 271 271 271 271 272 270 270 270 269 269 269 269 271 273 275 278 281 283 284 284 282 282 283 284 287 287 286 286 285 285 285 282 280 277 278 278 278 278 279 279 278 278
267 265 265 266 267 267 267 267 267 267 267 267 268 269 270 274 276 280 282 283 284 282 283 284 286 287 286 285 286 286 284 283 279 277 276 277 278 279 279 277 276 276 275
262 262 263 263 263 263 264 265 264 264 264 265 266 266 268 270 273 277 279 280 281 281 281 282 284 285 286 283 281 284 282 282 279 278 277 278 278 276 274 274 272 272 271
261 261 261 262 262 262 263 263 263 264 264 263 264 265 265 266 269 274 275 278 279 279 279 280 281 281 281 279 279 280 281 281 279 278 278 277 274 273 272 272 271 270 269
260 260 261 261 261 262 261 261 266 267 268 269 270 269 268 272 274 275 276 278 279 281 279 277 278 279 278 277 278 278 279 280 278 278 277 274 272 272 270 271 270 269 268
259 260 260 260 261 260 261 260 259 263 267 268 269 270 271 271 273 274 276 277 278 279 278 278 277 278 277 277 278 278 278 276 277 275 274 272 271 271 269 269 269 268 268
259 259 260 260 261 261 261 261 261 260 260 261 265 267 269 271 272 273 274 276 275 277 279 278 277 277 277 277 278 278 276 274 274 273 272 271 270 269 268 268 268 267 267
259 259 260 261 262 262 262 262 262 262 261 262 263 266 267 269 271 273 275 272 275 276 278 277 278 278 278 278 277 275 274 273 272 271 271 270 270 269 268 268 267 267 267
260 260 261 261 262 262 262 262 262 262 262 262 263 263 265 266 267 269 273 274 273 275 278 278 278 278 278 275 274 273 271 271 270 270 269 268 268 268 267 266 266 265 265
260 261 261 261 261 262 262 263 264 265 265 264 265 266 270 269 271 272 273 274 275 278 278 278 276 275 274 274 271 271 270 269 268 267 266 266 266 265 265 266 265 265 264
260 260 261 261 262 262 263 264 264 264 264 265 266 268 271 269 269 270 270 270 274 274 274 274 274 273 272 270 270 269 267 266 265 265 264 264 265 265 265 265 264 264 263
260 260 260 261 262 262 262 263 263 263 263 263 263 263 263 263 263 264 264 265 265 265 267 268 267 267 268 268 269 267 266 265 265 265 264 264 263 263 264 263 263 263 263
259 259 259 260 260 260 261 261 261 261 261 261 261 261 261 261 261 262 262 263 263 263 264 264 264 265 265 266 266 266 266 265 265 265 264 264 263 263 263 263 262 262 263
258 258 258 258 258 259 259 260 260 260 260 260 260 260 260 261 260 261 261 261 261 262 262 262 262 262 262 262 262 263 265 265 264 264 264 263 262 262 262 262 262 262 262
258 258 258 258 258 258 258 258 259 259 259 259 260 260 260 260 260 260 260 260 260 260 260 260 260 260 260 261 261 262 263 263 261 262 262 262 261 261 261 261 261 261 261

GFSGL_sfc_thetae_024.txt.gz
Theta_e
285 286 285 284 284 284 283 284 285 285 287 287 287 286 286 286 287 286 286 286 286 286 286 285 286 286 288 287 286 286 286 285 282 280 282 283 285 285 284 281 283 282 283
284 283 284 284 283 282 282 282 283 284 284 285 286 285 286 286 286 285 285 286 285 285 285 285 285 287 286 284 284 286 288 284 282 278 279 280 282 284 282 280 280 281 280
283 282 282 281 281 281 279 280 281 282 282 282 283 284 283 284 284 285 285 285 285 285 286 285 286 284 285 287 284 285 286 285 283 278 278 279 279 282 278 278 278 278 280
283 281 280 280 280 280 280 279 279 280 280 280 281 282 283 283 283 284 284 284 284 285 285 285 286 285 285 285 285 285 285 284 285 280 277 278 278 281 280 278 277 279 278
281 280 280 280 280 279 279 278 278 278 280 280 279 280 280 282 283 283 283 282 283 284 284 284 285 285 287 287 285 286 285 285 285 283 278 275 277 278 278 279 278 278 278
279 278 280 279 279 278 277 277 277 277 277 277 278 278 278 280 284 285 285 283 284 283 283 284 284 284 286 289 290 291 288 285 285 284 283 279 279 279 280 279 279 277 276
276 277 277 277 277 278 278 277 277 276 276 276 276 277 277 278 283 284 285 283 283 283 283 284 284 284 284 284 287 290 290 291 290 286 284 282 280 279 279 279 279 280 280
277 277 277 277 277 277 276 276 276 275 275 275 275 275 275 277 281 283 284 282 282 282 283 283 283 284 284 283 283 283 284 286 288 288 286 286 284 281 281 281 281 281 278
277 277 276 275 275 276 275 275 275 275 274 274 274 273 273 274 279 280 281 279 280 280 282 283 283 283 286 287 284 282 283 283 287 290 290 290 290 288 284 282 279 277 272
275 275 275 274 273 272 273 273 274 273 273 274 273 273 273 272 276 278 278 276 276 278 280 281 283 284 286 288 285 284 281 282 283 284 284 287 289 287 286 283 281 278 277
272 271 270 269 268 268 269 269 269 269 270 269 269 270 270 271 271 276 277 275 276 277 278 279 281 285 287 288 288 284 283 283 284 284 283 284 284 283 283 283 283 282 279
267 266 265 264 264 265 264 264 265 265 265 265 266 266 268 269 272 274 276 277 278 276 277 279 280 284 285 287 287 288 288 286 283 282 281 281 281 281 281 282 281 282 282
263 261 261 262 262 262 261 261 261 262 262 262 263 263 264 267 268 272 274 275 276 275 278 281 283 284 285 285 287 288 286 285 282 280 280 280 280 281 281 279 280 277 277
260 260 261 260 260 261 262 262 261 261 260 261 260 260 261 263 264 266 267 268 271 274 278 279 281 282 283 283 283 285 286 284 282 281 280 280 280 279 278 278 276 276 274
260 260 260 260 260 260 261 261 261 263 263 262 263 264 264 264 266 269 270 268 269 271 273 275 276 275 276 278 280 282 283 283 281 281 280 278 278 278 277 278 276 274 273
259 260 259 259 259 260 260 260 265 267 269 270 270 269 268 271 272 272 273 273 274 275 272 271 272 274 274 276 278 280 279 280 281 281 279 278 277 276 274 274 274 273 272
258 259 259 259 259 259 259 259 258 262 267 269 269 270 271 271 272 272 273 273 274 274 270 271 271 273 275 275 278 278 277 279 281 280 278 278 276 274 272 271 271 271 270
260 259 259 259 258 259 259 260 260 260 259 261 266 268 270 271 272 272 273 273 269 270 269 270 270 272 275 276 276 277 278 278 279 278 277 275 274 272 271 271 270 270 270
259 259 259 259 260 260 261 261 261 261 261 262 263 266 267 270 271 272 273 269 268 268 269 270 272 274 276 276 277 277 279 276 276 275 274 273 273 272 271 271 270 270 269
258 259 260 260 260 260 260 261 261 262 262 263 264 264 266 266 265 265 267 268 270 271 272 272 274 278 277 277 276 277 275 274 274 273 272 272 271 271 269 269 268 267 267
259 259 258 259 259 259 260 261 261 262 262 262 262 264 270 265 263 264 265 265 266 267 272 273 275 277 277 275 275 275 274 273 272 271 270 270 270 269 269 268 268 267 266
257 257 258 257 258 259 259 260 261 261 260 260 261 262 266 262 262 262 263 263 264 265 266 269 270 270 270 271 272 271 270 269 269 268 268 268 268 267 267 266 266 266 266
257 256 256 257 257 258 258 259 260 260 259 260 260 260 260 260 260 260 261 262 263 263 264 265 266 266 268 268 269 269 267 267 267 267 267 266 266 266 266 265 265 264 264
254 256 256 256 256 257 257 258 259 259 259 259 259 260 260 259 259 260 260 261 261 262 262 263 263 264 265 265 266 267 267 267 267 267 267 266 265 265 265 264 264 264 264
252 253 254 255 255 256 256 257 258 258 259 259 259 259 260 260 260 260 260 260 260 260 260 260 261 262 262 263 264 265 267 266 266 266 266 265 264 264 264 263 263 263 263
252 251 251 253 255 255 256 256 256 256 257 257 258 258 258 259 259 259 259 259 259 259 260 260 260 261 263 263 263 264 265 266 264 265 264 264 263 263 263 262 262 262 262

GFSGL_sfc_thetae_030.txt.gz
Theta_e
281 282 282 281 281 281 280 280 279 279 279 279 280 280 281 281 281 281 281 282 281 282 283 283 284 285 286 285 284 286 287 288 286 288 283 282 282 284 284 287 287 286 289
281 281 281 281 280 279 279 279 280 279 280 278 279 279 279 279 279 280 280 281 281 280 281 282 282 285 283 284 285 284 284 285 286 286 288 280 281 283 285 284 285 285 286
280 279 279 279 278 278 279 279 279 279 279 278 278 278 279 278 278 278 278 279 280 280 280 281 281 282 283 284 284 284 285 286 284 284 285 281 280 280 280 281 283 282 283
280 279 278 278 278 278 278 278 278 278 278 278 277 278 278 278 278 278 278 278 279 280 281 281 281 281 281 282 283 284 284 284 284 283 283 284 279 280 282 281 279 281 281
279 279 278 279 278 278 277 277 277 277 278 278 277 277 277 277 277 277 278 278 278 279 280 280 281 282 284 284 283 282 283 283 283 283 283 282 279 278 279 280 282 281 281
278 276 278 277 277 277 277 277 277 276 276 276 276 276 275 277 280 281 280 277 278 277 277 279 279 281 282 285 286 288 287 283 282 283 283 282 283 281 282 282 281 280 279
274 273 274 274 274 274 274 274 273 272 273 272 273 273 273 274 278 279 280 278 277 276 276 277 278 279 280 280 283 285 285 287 289 285 283 283 283 284 282 281 281 282 282
273 271 271 272 271 271 270 269 269 270 269 269 270 270 270 272 275 276 276 275 274 275 275 275 275 275 277 278 279 279 281 281 282 284 285 286 287 286 285 283 283 282 283
273 272 271 269 267 268 266 266 267 266 266 266 267 267 266 267 271 272 273 271 271 271 273 273 273 273 276 278 276 276 277 280 284 287 288 289 290 291 290 285 282 280 279
271 270 269 268 263 264 265 264 264 264 265 265 265 265 264 264 268 270 271 269 268 269 270 272 274 274 276 278 275 275 274 277 279 281 282 284 288 287 290 289 284 281 280
268 267 265 265 263 263 262 263 262 262 263 261 262 262 263 264 264 269 271 269 268 268 268 269 271 274 275 276 278 276 276 279 280 281 281 281 281 282 284 286 287 284 281
264 263 262 260 261 262 260 260 260 260 259 259 260 261 263 264 266 268 271 272 272 269 268 269 269 272 274 275 274 276 278 279 279 279 280 280 281 280 282 284 286 286 285
258 256 256 258 260 261 259 259 259 259 259 259 260 260 261 263 264 269 271 272 272 269 269 270 274 275 275 275 274 274 273 272 274 275 278 280 281 282 282 282 284 286 285
251 256 258 258 259 259 260 261 259 258 259 259 259 260 262 264 266 268 268 268 270 270 271 269 270 273 274 274 272 272 272 272 272 273 278 281 283 281 281 283 282 283 282
255 258 258 258 257 259 260 260 260 262 263 263 265 265 265 265 267 271 272 271 271 273 273 273 271 267 265 265 267 269 270 271 270 275 276 280 281 281 281 282 281 281 279
256 258 259 259 259 260 259 259 264 266 268 270 271 270 268 271 273 274 274 275 275 276 273 271 270 270 269 269 268 268 269 270 272 276 277 277 277 279 280 280 281 280 277
252 257 258 259 258 258 258 258 257 261 267 267 268 270 270 271 271 272 273 274 274 272 268 267 267 268 269 269 268 268 268 270 273 274 276 275 276 278 279 279 278 278 276
251 256 256 257 257 258 258 258 258 257 257 259 264 267 268 269 270 271 270 268 261 263 263 264 265 266 267 268 269 268 269 270 272 273 275 275 278 279 278 278 277 276 276
253 254 254 256 258 258 257 257 258 258 258 258 260 262 263 267 268 267 267 260 260 260 261 262 263 263 264 265 268 268 268 268 270 270 273 275 277 279 278 278 277 276 275
250 255 257 253 256 256 256 256 257 257 257 258 258 259 260 263 259 259 259 259 259 259 260 261 262 262 265 267 269 270 270 270 270 271 273 276 277 277 277 277 275 274 274
250 252 254 253 254 254 255 255 255 256 256 257 258 260 268 260 258 258 259 259 259 259 259 259 260 262 263 265 266 269 273 272 273 273 275 277 276 275 277 276 275 274 274
249 248 249 251 253 253 252 254 254 255 255 256 257 258 264 258 258 258 259 259 260 260 260 260 260 262 263 264 264 265 267 268 270 272 272 272 272 272 273 272 272 272 270
249 249 251 253 252 252 251 250 250 252 254 254 255 256 256 256 257 257 258 259 260 260 261 261 261 262 263 264 265 266 265 265 267 269 268 269 269 269 270 269 269 268 268
248 250 253 254 250 249 249 250 250 252 252 252 251 253 254 255 255 256 257 258 259 260 261 261 261 262 263 264 265 265 266 267 267 268 268 267 267 267 267 267 267 267 267
250 253 253 253 246 248 248 247 249 247 248 250 251 251 253 253 254 254 255 256 258 259 260 260 261 262 263 265 265 265 266 266 266 267 267 267 266 266 265 266 266 266 266
254 254 253 250 249 247 245 245 246 248 248 250 251 251 251 252 253 253 254 255 256 257 259 260 260 261 262 265 266 269 269 268 266 266 266 265 265 265 265 265 264 264 264

GFSGL_sfc_thetae_033.txt.gz
Theta_e
280 280 279 279 279 279 278 278 278 279 278 278 279 278 278 278 278 278 278 279 279 279 280 280 281 283 284 285 284 284 285 284 283 286 286 284 283 283 284 285 287 287 289
280 279 279 279 279 278 278 278 278 278 278 278 278 278 278 278 277 277 277 277 277 277 278 279 279 282 281 283 283 283 284 284 283 282 285 285 282 283 284 284 285 286 286
279 279 279 279 278 278 278 279 278 278 278 278 278 277 277 277 277 277 277 276 276 277 277 278 279 279 279 280 281 282 283 284 283 282 282 285 283 281 282 283 284 284 284
279 278 278 278 278 278 278 278 277 277 277 277 277 277 277 277 277 277 277 276 276 277 278 278 278 279 279 279 280 280 281 282 282 281 282 282 283 282 281 281 281 282 283
278 278 278 278 278 277 276 275 276 276 276 275 275 274 275 275 276 276 277 277 277 277 277 277 278 278 281 281 280 280 280 280 280 280 280 281 281 278 280 282 282 284 282
278 276 277 275 275 274 273 273 273 272 272 272 272 272 272 273 276 278 277 276 276 276 276 277 277 277 278 280 282 283 283 280 280 280 280 279 280 281 282 282 281 281 280
274 271 271 272 272 271 271 270 270 269 270 269 269 269 269 269 273 275 275 274 273 272 273 274 275 277 276 276 278 279 280 281 283 281 280 281 281 282 282 281 282 282 282
272 270 270 270 268 269 268 267 267 267 267 267 267 267 267 268 272 272 273 271 271 271 271 272 272 272 274 274 274 273 275 276 277 279 280 280 282 284 284 284 283 283 284
272 271 270 268 265 266 263 265 265 265 265 264 266 265 264 264 269 271 271 269 269 269 270 271 271 271 273 275 273 271 272 274 278 280 281 283 285 287 286 284 282 280 280
271 270 268 267 262 262 264 263 264 262 264 264 264 263 263 262 267 269 270 268 267 268 269 270 272 272 274 275 273 272 270 272 274 275 276 278 281 281 286 285 284 282 281
268 267 265 265 261 261 261 262 261 261 262 260 261 261 262 263 263 269 271 269 268 267 268 269 270 273 274 275 275 272 271 273 273 273 273 276 278 279 281 282 284 284 283
265 263 261 258 259 261 255 258 257 258 258 258 259 260 262 263 266 268 271 272 273 269 268 269 270 273 274 275 275 276 278 277 274 272 271 272 274 276 280 282 282 284 286
261 258 254 257 259 259 255 258 258 257 257 258 259 259 261 263 264 269 271 272 273 271 271 272 275 276 277 276 276 276 274 271 269 268 268 269 271 274 277 281 282 282 283
258 257 258 256 257 257 260 260 257 257 258 259 259 260 262 264 267 268 268 268 271 272 273 271 272 275 276 276 273 273 272 271 270 269 269 270 272 272 273 277 280 280 280
257 259 259 257 255 257 258 259 260 261 262 263 265 265 265 265 267 272 273 271 271 273 273 272 270 270 271 271 268 268 268 268 267 268 269 269 270 270 272 274 280 280 279
258 259 258 258 257 259 258 258 264 267 268 270 271 269 268 271 272 273 274 274 274 274 268 263 263 264 265 266 267 268 270 270 270 269 269 270 270 271 272 274 280 280 279
254 257 256 258 257 257 257 257 256 260 266 266 268 269 270 270 271 272 272 272 269 268 258 260 260 261 262 264 264 265 265 269 270 269 269 270 271 272 277 277 279 278 278
254 255 254 255 254 254 255 256 256 255 255 257 263 265 268 269 271 270 269 265 258 259 258 259 259 260 261 262 263 264 265 267 269 269 269 271 272 271 275 274 275 275 277
253 253 254 253 254 255 255 256 256 256 256 256 258 261 262 266 268 267 266 256 257 257 258 258 259 259 260 261 263 264 266 268 269 269 268 269 270 271 272 276 277 277 276
250 254 254 252 251 251 254 253 254 255 255 255 256 256 258 261 257 257 257 258 258 258 258 258 259 259 260 261 262 263 264 266 268 270 269 269 270 271 273 275 277 277 276
250 250 254 254 252 248 250 251 254 253 254 254 255 258 266 258 256 256 256 257 258 258 259 259 260 260 261 262 262 263 264 265 266 268 271 271 272 273 275 276 276 275 276
252 252 248 247 249 250 249 252 253 252 252 253 254 256 263 255 255 255 256 256 257 259 260 260 260 261 262 262 263 263 263 264 265 266 267 268 269 272 273 274 274 274 274
251 249 247 247 248 250 250 252 252 249 250 250 252 253 253 253 253 253 254 255 256 257 259 260 260 261 262 263 265 265 264 264 265 266 266 266 266 265 264 266 268 269 269
247 248 249 248 248 249 252 252 251 251 250 250 248 248 251 251 251 252 253 253 254 255 257 259 260 261 261 262 265 267 266 266 266 266 266 266 266 266 266 266 267 267 267
245 247 248 249 248 251 252 251 250 246 247 248 248 247 249 250 251 251 252 253 253 254 255 256 259 259 260 260 263 266 269 267 266 266 265 265 265 265 265 265 265 266 266
251 251 250 249 251 252 251 250 249 247 247 248 247 247 248 249 251 251 251 252 252 253 253 255 256 257 258 260 262 268 269 271 266 265 265 265 264 264 264 264 264 264 264

GFSGL_sfc_thetae_036.txt.gz
Theta_e
279 279 278 278 278 278 278 278 278 278 278 278 278 277 277 277 277 276 276 276 276 276 277 277 278 279 279 280 281 283 282 281 280 282 285 286 286 286 287 285 285 286 287
279 279 279 279 278 278 277 278 278 277 278 277 277 277 277 276 276 276 275 275 275 275 276 276 276 279 278 278 279 279 280 281 281 279 282 283 284 286 286 285 285 285 285
279 278 278 278 278 277 277 277 277 277 276 276 276 276 275 276 275 276 276 275 275 275 276 276 276 277 277 277 277 278 278 280 280 280 279 282 282 284 284 284 284 285 285
279 278 278 278 277 277 277 276 276 275 274 274 273 273 273 274 274 275 276 275 275 276 277 277 277 276 276 276 277 277 278 278 278 278 279 279 280 282 281 282 282 283 284
278 277 277 278 277 276 274 274 273 273 272 272 272 271 272 272 273 274 274 274 274 274 275 276 276 277 279 279 278 277 277 276 277 278 278 279 279 279 279 281 281 283 284
277 277 277 275 274 273 272 272 271 271 270 270 270 269 269 270 273 275 275 273 272 272 271 272 273 273 275 278 279 280 280 277 276 276 277 277 278 280 281 281 281 281 279
274 272 271 271 271 270 270 269 269 268 268 268 268 268 267 268 272 274 274 272 271 271 270 271 271 272 272 272 274 276 277 278 278 276 274 275 276 278 280 280 281 281 281
273 270 270 270 268 268 267 267 267 267 266 266 266 266 266 267 271 272 273 271 270 270 270 270 270 270 271 272 272 272 273 274 274 275 275 275 276 277 278 279 279 280 283
272 271 269 268 265 266 263 264 264 264 264 263 265 264 263 263 269 271 271 270 269 269 269 270 270 270 272 274 272 271 272 273 276 277 278 279 281 282 281 279 277 278 278
272 271 269 267 262 262 264 262 263 261 264 264 264 263 263 262 267 270 271 269 267 268 269 270 272 272 274 275 273 271 269 270 271 271 272 274 276 275 278 277 277 275 276
269 267 266 265 262 261 260 261 259 258 262 259 260 261 261 262 263 269 272 270 269 269 269 270 271 274 275 276 276 273 272 274 273 273 273 273 273 273 274 275 277 277 276
266 265 264 261 261 262 255 256 255 255 255 256 257 259 262 263 266 269 272 273 274 270 270 271 271 274 276 277 277 278 279 279 274 271 270 269 270 270 272 273 275 276 277
262 260 259 261 261 261 255 257 257 255 254 257 259 259 261 264 265 270 272 273 274 272 272 274 276 277 277 276 276 277 275 273 271 270 269 270 271 272 272 272 273 273 273
256 260 260 258 260 259 260 260 256 255 256 258 258 259 261 266 267 267 268 271 273 272 273 273 272 272 272 272 271 272 271 271 271 270 269 271 271 271 270 271 270 270 270
257 260 260 260 259 259 260 259 259 260 260 259 261 265 265 264 267 273 273 272 272 272 270 265 262 262 263 264 265 266 267 268 268 268 268 268 268 269 269 270 270 269 268
259 260 260 260 260 259 259 258 264 267 269 271 271 270 268 271 272 273 274 274 273 271 261 257 258 259 260 261 261 262 264 264 265 266 267 269 268 268 268 269 270 270 268
258 260 260 260 259 258 258 256 255 259 265 267 268 269 269 271 271 272 272 272 268 265 254 256 257 258 259 260 260 261 261 263 265 266 266 267 269 269 269 269 270 271 271
256 258 257 258 257 256 254 254 255 254 254 256 261 264 267 268 270 270 269 264 257 257 250 255 256 257 258 259 259 260 261 263 264 265 266 268 269 268 268 269 269 270 274
257 257 256 256 255 255 255 256 254 254 254 254 255 259 260 265 267 266 265 250 254 256 256 257 258 258 259 260 260 260 261 262 263 264 266 268 269 268 268 269 270 271 274
255 257 256 254 254 254 254 253 254 253 252 252 253 255 256 256 250 250 250 249 252 255 256 257 258 259 259 260 261 261 261 262 263 264 265 266 269 269 268 269 270 271 273
253 252 254 251 250 250 250 251 252 251 251 251 253 256 264 257 251 250 252 252 252 255 256 257 258 259 259 260 261 261 262 263 263 264 265 265 267 267 271 271 273 274 274
250 250 247 249 250 250 250 251 251 250 251 252 254 255 262 252 252 252 252 252 253 253 255 256 257 258 260 261 261 261 262 263 264 264 264 265 266 267 267 268 269 272 274
251 251 250 247 248 249 248 248 248 249 251 252 253 253 250 250 249 250 251 251 252 253 254 254 255 257 259 260 261 262 263 265 265 265 264 264 265 265 266 266 266 266 267
249 249 250 248 246 247 248 249 250 252 253 253 249 248 250 250 248 248 250 251 252 252 253 253 254 254 256 257 259 261 262 266 266 265 264 264 264 265 265 265 266 267 267
247 247 247 248 247 249 250 251 252 252 252 251 250 247 248 247 248 247 248 249 250 251 252 252 253 254 254 255 256 258 260 267 265 265 264 264 264 264 264 264 265 266 266
252 251 250 251 250 250 251 252 253 253 252 250 248 248 247 248 248 248 249 248 250 250 250 252 253 252 253 255 256 260 263 270 266 265 264 264 263 263 263 263 263 264 264

GFSGL_sfc_thetae_039.txt.gz
Theta_e
281 280 280 280 280 281 280 280 280 280 279 279 279 278 278 278 278 278 277 278 277 278 278 278 278 279 279 280 281 281 281 281 280 282 285 286 286 287 288 290 290 290 291
280 280 281 281 280 280 279 279 279 278 278 278 277 277 277 277 277 276 276 277 277 276 277 277 277 278 278 279 279 279 279 280 280 278 281 283 283 285 286 287 287 288 288
280 280 280 280 279 279 279 279 278 277 276 276 275 275 274 275 274 275 276 276 276 276 276 276 276 277 277 278 278 278 279 279 279 279 278 282 282 284 284 285 286 287 287
280 279 280 279 279 279 278 277 276 275 274 274 274 273 273 273 273 274 275 275 275 275 275 275 275 275 275 276 277 278 278 278 278 278 278 278 280 282 283 282 283 285 285
279 279 279 279 278 277 275 274 273 273 272 272 272 271 271 272 273 274 274 274 273 273 273 273 273 274 275 275 275 275 276 276 277 277 276 277 278 278 279 282 281 283 285
279 279 279 277 275 274 273 272 272 271 271 270 270 269 269 270 273 275 275 273 272 271 271 272 272 272 273 274 275 276 276 274 273 274 275 275 276 276 278 278 279 279 278
276 275 275 274 273 272 271 270 270 269 269 268 268 268 268 268 272 275 274 273 272 271 270 270 270 271 271 271 273 274 274 275 276 275 273 273 274 275 276 275 276 277 278
276 274 273 272 271 270 269 268 268 268 267 267 266 267 267 267 272 273 274 272 271 271 270 270 270 270 271 272 272 272 273 274 274 275 275 275 276 277 277 277 276 277 278
275 274 272 271 268 268 266 266 266 265 265 265 267 265 264 265 269 272 272 271 270 270 270 271 271 271 273 275 274 273 273 273 276 277 278 278 279 279 279 277 274 273 272
275 274 271 269 265 265 266 265 265 264 265 265 265 264 263 263 267 271 272 271 269 270 271 271 273 274 275 276 274 273 271 272 273 273 274 276 277 277 278 277 276 272 272
272 270 268 267 265 264 263 264 262 261 263 260 262 262 262 263 264 270 272 272 271 271 272 271 272 275 276 277 278 275 274 276 276 275 275 275 275 275 276 276 276 275 272
269 267 265 263 265 263 259 260 259 259 259 258 259 260 263 264 267 270 273 274 275 272 271 272 273 276 278 277 276 276 277 277 275 274 273 273 273 273 274 275 275 275 276
265 263 261 261 262 261 259 260 260 259 259 259 261 261 262 265 266 270 272 274 275 273 274 274 275 274 273 271 272 273 272 270 270 269 270 271 273 274 275 274 275 275 275
262 261 260 260 261 260 262 262 260 260 260 260 260 260 262 264 267 268 269 271 274 274 272 268 268 268 268 268 266 267 267 268 267 267 268 270 271 271 271 272 271 272 271
261 262 262 261 260 262 262 262 262 263 261 257 259 261 262 265 267 272 274 273 273 272 265 262 261 261 261 262 263 263 265 265 265 265 266 266 267 269 269 271 270 270 269
261 261 261 261 261 261 261 261 265 268 270 271 272 272 269 271 272 274 274 274 274 271 260 257 258 259 259 260 260 261 262 263 264 264 265 265 266 266 267 269 271 270 269
261 261 261 261 261 260 259 259 258 261 265 267 269 271 271 271 272 272 273 272 268 265 257 257 257 258 258 259 260 261 261 262 263 264 264 265 266 267 267 268 269 269 269
255 260 259 260 260 259 259 258 257 256 255 257 261 265 267 269 269 271 270 265 257 257 255 256 257 258 259 259 260 261 261 262 263 264 264 265 265 266 267 269 269 268 269
255 257 258 258 258 257 258 257 256 256 255 254 256 259 261 264 267 267 265 256 253 255 256 256 257 258 259 259 260 261 261 262 262 263 264 264 265 266 266 268 269 268 269
253 257 257 256 256 256 256 256 256 255 255 254 254 255 255 255 255 254 254 253 253 254 255 255 256 257 258 259 260 261 261 261 262 264 264 265 265 266 266 267 269 270 269
252 252 255 252 252 253 253 254 255 253 253 253 253 256 263 261 256 255 253 253 252 253 254 254 255 256 257 258 259 260 260 261 262 264 265 265 264 264 266 267 268 269 271
249 249 248 249 252 252 252 253 253 253 253 253 254 255 263 257 256 254 253 253 252 252 253 253 254 255 256 257 258 259 259 260 262 263 265 264 264 265 266 266 267 268 269
248 248 249 248 249 250 250 251 251 251 252 251 252 254 254 254 254 252 252 252 252 252 253 252 253 253 255 256 257 258 258 260 262 263 264 264 263 264 265 265 266 267 268
250 251 251 251 249 249 249 249 250 251 251 252 251 252 253 254 251 250 251 251 251 251 251 252 252 252 253 254 255 256 257 259 262 265 265 264 263 264 264 264 265 266 267
245 249 251 252 250 249 249 249 250 251 251 252 253 253 253 252 250 250 249 249 249 250 251 251 252 252 252 253 253 254 256 259 264 265 263 263 263 262 263 263 263 264 264
248 249 250 253 252 251 251 252 253 254 254 254 254 253 252 250 250 249 249 248 249 250 250 251 251 251 251 253 254 257 260 265 269 264 263 262 261 262 262 262 262 262 263

GFSGL_sfc_thetae_042.txt.gz
Theta_e
286 286 286 286 286 286 285 285 284 284 283 282 282 281 281 281 281 281 281 281 280 281 282 281 281 282 281 282 282 282 282 282 280 282 285 286 286 286 288 289 290 290 290
286 286 286 285 285 285 285 284 284 282 282 281 280 280 279 279 279 279 279 279 279 279 279 279 279 279 279 280 281 280 280 281 280 278 281 282 283 285 286 286 287 288 288
285 285 285 285 285 285 284 283 282 281 280 279 278 278 277 277 277 278 278 278 278 278 278 277 277 277 277 277 277 277 278 279 279 279 279 281 282 283 283 284 285 287 288
285 285 285 285 285 284 283 282 280 279 278 277 277 276 276 276 276 276 277 278 278 277 277 277 276 276 275 275 275 275 276 277 277 277 277 278 280 281 282 281 282 285 285
284 284 285 285 285 283 281 279 278 277 276 276 275 275 275 274 275 276 277 277 276 276 276 276 275 275 275 275 275 275 274 274 274 274 274 275 276 277 277 279 279 281 282
284 284 285 284 282 280 278 277 276 275 275 274 273 273 273 273 273 276 276 276 275 274 274 274 274 274 274 275 275 276 276 274 273 273 273 272 273 275 277 276 277 276 275
283 283 283 282 280 279 277 275 275 274 274 273 272 272 272 272 272 275 275 275 275 274 273 273 273 273 273 273 274 275 275 276 277 275 273 273 273 274 275 274 275 275 275
283 282 281 280 279 277 275 274 274 273 272 272 272 271 271 271 272 273 275 275 274 273 273 273 273 273 273 273 273 274 274 275 276 276 276 276 276 277 277 276 277 277 278
281 281 280 279 277 275 273 273 273 272 271 271 271 270 269 269 271 273 273 274 273 273 273 274 273 273 275 277 276 274 275 275 278 279 279 280 280 280 280 278 276 275 274
282 281 280 278 275 273 273 272 272 271 271 270 270 269 268 267 269 271 273 274 273 273 274 274 276 275 277 278 276 276 274 276 276 277 277 278 279 278 279 278 277 273 273
282 279 277 275 273 273 272 271 270 269 269 267 267 268 267 268 268 271 273 273 273 273 274 274 275 276 277 278 277 275 274 276 275 275 275 276 277 277 278 278 277 276 274
278 276 274 272 272 270 268 268 267 267 266 266 266 267 269 268 269 271 273 274 275 274 273 274 275 276 275 275 274 274 275 274 272 272 272 272 273 274 276 277 277 277 277
274 272 270 269 269 268 267 267 267 267 267 268 268 268 269 269 270 271 272 274 275 274 275 275 274 272 272 271 271 271 270 269 269 268 268 269 271 272 273 274 275 276 276
272 270 268 267 267 266 268 268 268 268 268 268 268 268 268 269 270 271 272 273 274 275 274 270 270 269 269 269 267 268 267 267 266 266 267 268 270 270 270 271 271 272 272
271 269 269 268 267 268 268 269 268 269 269 268 267 267 268 269 271 272 274 274 275 275 271 268 266 265 265 266 266 266 266 266 266 266 266 266 267 268 269 271 270 270 270
270 269 269 269 268 268 268 268 270 271 271 272 273 273 273 272 274 274 274 275 275 272 268 264 263 264 264 264 264 264 265 265 266 265 265 266 266 267 267 268 270 270 269
271 270 269 267 268 267 267 266 266 268 269 270 271 272 273 274 273 273 274 274 270 268 264 263 262 263 263 263 264 264 264 265 265 265 265 266 266 266 266 267 268 269 270
267 265 268 268 267 267 266 266 265 264 264 265 266 267 268 270 271 272 272 271 265 263 261 261 261 262 262 262 263 263 263 264 264 265 265 265 266 266 266 266 268 268 269
264 265 265 265 265 264 264 263 263 263 262 262 262 263 264 266 268 269 269 264 261 260 261 260 261 261 261 262 262 262 263 263 263 264 265 265 266 267 266 266 267 267 268
261 260 261 263 263 262 262 262 261 261 261 261 261 261 262 259 261 262 262 261 260 260 259 259 260 260 260 260 261 261 262 262 263 264 264 265 267 267 266 266 266 267 268
262 261 259 261 261 261 261 261 261 261 260 260 260 261 263 260 261 262 261 260 260 259 259 259 259 259 259 259 260 260 261 262 262 263 264 265 266 265 266 266 267 267 268
259 259 259 258 259 259 259 259 259 259 259 259 259 260 264 263 263 261 260 260 259 258 258 257 258 258 259 258 259 259 259 260 261 262 263 263 266 266 266 266 266 267 268
258 257 257 257 257 256 256 257 257 257 258 258 258 258 259 259 259 259 259 258 257 257 257 257 257 257 258 258 259 259 258 259 260 261 261 263 265 265 265 265 266 266 266
258 257 257 257 257 257 256 257 257 256 255 257 257 257 258 258 258 258 257 257 256 256 256 256 256 256 256 256 258 259 259 259 260 260 262 265 265 265 265 265 265 265 266
257 257 257 257 257 256 256 256 256 256 256 256 257 257 258 257 257 257 256 255 254 254 255 255 255 256 255 255 255 255 256 257 258 262 266 266 265 264 264 264 264 265 264
258 257 257 257 256 256 256 256 256 257 257 258 258 258 258 257 257 256 255 254 254 254 254 255 255 254 254 255 256 257 258 261 263 268 265 266 264 265 264 264 264 264 264

GFSGL_sfc_thetae_045.txt.gz
Theta_e
288 288 288 288 288 288 287 286 286 285 284 284 283 283 282 282 282 282 282 281 281 281 282 281 281 282 281 281 281 282 281 281 277 279 282 283 283 283 284 285 286 286 286
288 288 287 287 287 287 286 286 286 284 284 283 282 281 281 280 280 280 280 280 280 279 280 279 279 279 278 279 279 278 278 278 277 275 278 278 279 281 282 281 283 285 285
287 287 287 286 286 286 286 285 285 284 283 281 280 280 279 279 278 279 278 279 279 279 279 278 277 277 277 277 276 276 276 276 276 275 275 277 278 279 279 281 281 282 284
287 287 286 286 286 286 286 285 283 283 281 280 279 278 278 277 277 277 278 278 278 278 278 278 277 276 276 275 274 275 275 275 275 274 273 274 275 276 277 276 277 279 279
286 286 286 287 287 286 285 283 282 281 280 279 278 277 277 276 276 276 277 278 277 277 277 277 276 276 276 276 275 274 274 273 273 272 272 272 272 273 273 275 275 276 277
285 285 286 286 285 284 282 280 279 278 278 277 276 276 275 275 276 276 277 276 276 276 275 275 275 276 276 276 277 277 276 273 272 271 272 272 273 273 274 274 274 273 271
284 284 284 285 283 282 281 279 278 277 277 276 275 275 274 275 276 276 276 276 275 275 275 274 274 275 275 274 276 277 277 277 278 275 273 273 273 274 274 273 273 273 273
284 284 283 283 281 281 279 277 277 277 276 275 274 274 274 274 275 275 276 275 275 275 275 274 274 274 275 275 274 275 276 276 276 276 276 276 276 276 276 275 275 275 276
283 283 282 282 280 279 277 276 277 276 275 274 274 273 272 273 274 274 275 274 274 274 275 275 275 274 276 278 276 274 275 276 279 279 280 280 281 281 281 278 275 273 272
282 283 283 282 280 278 277 276 277 276 275 274 273 273 271 270 273 274 274 273 273 274 275 275 277 277 278 278 276 274 271 272 273 273 275 276 277 277 279 277 276 272 272
283 282 281 281 279 278 277 276 274 273 273 272 271 271 271 270 270 274 275 273 273 273 274 274 275 277 277 278 277 273 271 274 273 270 270 271 273 274 275 276 277 276 273
281 279 278 277 277 276 274 273 272 271 270 269 269 269 271 271 271 272 275 276 276 273 273 274 275 277 276 276 274 274 274 272 268 268 267 268 269 270 272 273 274 274 275
277 276 275 274 274 273 271 271 270 269 270 270 270 270 271 272 271 274 275 275 276 274 275 275 277 274 274 272 272 272 270 268 266 265 265 266 269 270 271 271 272 273 273
275 273 272 271 271 270 271 272 271 271 270 270 271 271 271 271 271 272 272 273 274 275 276 272 271 272 271 270 268 269 268 267 266 266 266 267 268 267 267 269 268 269 269
275 273 273 272 270 270 270 271 271 272 273 271 272 271 270 270 271 273 273 272 274 275 273 268 267 267 266 266 266 266 267 267 266 266 265 265 265 266 266 268 268 267 266
274 273 273 272 271 271 271 270 274 274 274 274 274 271 270 273 274 275 276 276 276 274 268 265 265 265 264 265 264 264 265 265 266 265 264 265 265 265 265 266 267 266 266
275 274 273 271 272 270 270 270 269 272 274 275 275 276 276 276 276 276 276 275 275 269 264 264 263 263 263 264 264 264 263 265 265 264 264 264 264 264 265 265 265 266 265
270 267 271 270 271 270 270 269 269 267 267 268 271 271 272 272 273 274 274 274 268 266 262 261 261 262 262 262 262 262 263 263 263 263 263 263 263 264 264 265 265 264 265
268 268 268 268 268 267 267 267 266 265 265 265 265 266 267 269 271 272 273 269 266 262 262 261 261 261 261 261 261 261 261 261 262 261 262 263 263 264 264 265 264 264 265
264 262 262 265 265 264 264 264 264 264 263 263 263 263 264 261 260 262 264 263 262 261 261 260 260 260 260 259 259 259 259 260 260 261 261 262 263 263 263 264 264 264 264
264 263 260 262 263 263 263 262 263 262 262 262 262 264 266 261 260 262 263 263 262 261 260 259 259 259 259 258 258 258 258 259 259 260 261 261 262 261 263 265 265 265 265
261 261 260 260 260 260 260 261 261 260 260 260 260 262 266 263 263 264 263 263 262 260 258 257 257 258 258 257 256 257 257 257 258 259 260 260 260 261 264 264 264 264 264
260 259 259 259 259 258 258 258 258 258 258 259 259 259 259 259 260 261 261 261 261 259 257 257 257 257 257 256 257 257 257 257 257 259 258 258 259 261 264 263 263 262 263
259 259 259 259 259 258 258 258 258 257 257 257 257 258 258 258 259 260 260 260 259 258 257 255 256 254 255 254 256 256 257 257 258 258 258 258 259 264 263 262 262 262 263
259 259 258 258 257 257 257 257 257 257 257 257 257 257 258 258 258 259 259 259 257 256 256 256 255 254 254 253 253 253 254 257 255 257 258 259 263 263 260 261 259 261 261
259 259 258 258 258 257 257 257 257 257 257 258 258 258 259 259 259 259 259 258 256 256 255 255 254 253 253 253 253 255 256 259 259 260 263 265 264 257 257 257 257 258 258

GFSGL_sfc_thetae_048.txt.gz
Theta_e
285 284 284 284 284 284 283 282 281 281 281 280 280 279 279 278 278 277 277 277 277 277 277 276 277 277 276 276 276 276 276 275 273 275 276 277 277 277 279 279 280 280 282
284 284 284 284 283 282 282 282 281 280 280 279 279 278 278 278 277 277 276 276 276 276 276 276 275 277 274 275 274 274 274 274 272 272 274 274 274 276 276 276 278 280 279
284 283 282 282 282 281 281 281 280 279 278 278 278 277 277 277 276 276 276 276 275 275 276 275 275 275 274 274 272 272 273 274 273 272 271 274 274 274 274 275 276 276 279
283 283 281 281 281 281 281 280 279 279 278 277 277 276 276 276 275 276 276 275 275 276 276 275 275 274 274 273 273 273 274 272 272 272 271 272 273 274 274 273 273 275 275
283 282 282 281 281 281 280 279 279 278 277 277 276 275 275 275 275 275 276 275 275 275 275 276 275 275 277 277 275 273 273 271 271 271 271 271 272 272 272 274 273 273 274
283 282 282 282 281 281 279 278 278 277 276 276 275 275 274 275 278 277 277 276 276 275 274 274 274 275 275 277 277 278 277 273 271 270 272 272 273 273 274 273 273 272 270
281 281 281 281 282 280 279 277 276 275 275 274 274 274 273 274 278 278 278 276 275 274 275 274 274 275 274 274 275 277 277 278 279 276 274 273 273 274 274 274 274 274 273
282 282 281 282 280 278 277 276 275 275 274 273 273 273 273 273 278 278 278 275 274 274 274 274 274 274 274 274 274 274 275 276 276 277 276 275 276 277 277 277 276 275 276
282 282 282 281 279 278 277 275 275 274 272 272 272 270 270 271 277 278 277 274 274 274 275 274 274 274 276 278 276 271 273 273 276 277 278 279 279 278 277 274 271 271 270
282 282 282 281 280 278 277 275 274 271 273 273 272 270 270 268 276 277 277 273 268 272 273 275 277 276 278 279 276 270 269 270 271 272 270 271 273 273 275 274 273 270 270
281 280 279 279 279 278 276 272 273 271 272 270 270 269 269 269 269 276 277 274 271 270 271 272 274 277 278 279 278 273 270 273 268 266 267 267 268 269 270 272 273 271 268
278 278 278 278 277 276 274 269 270 270 267 266 266 267 269 270 272 274 276 278 276 271 269 273 273 277 278 278 276 275 275 273 263 263 264 264 266 267 269 269 270 271 272
276 276 273 272 273 273 271 269 267 267 268 267 267 267 267 270 270 275 276 277 278 275 274 274 277 278 276 273 273 273 271 263 261 259 263 265 267 268 269 268 269 270 270
273 272 271 271 269 268 270 269 269 267 267 267 268 268 266 267 268 269 270 270 274 274 274 272 272 274 275 271 267 268 267 265 265 264 265 266 267 266 266 267 266 267 266
271 270 268 268 268 266 267 268 269 267 269 264 265 264 264 265 268 271 270 266 266 270 271 265 262 262 261 262 262 262 263 263 263 264 263 263 264 265 265 266 265 265 264
269 269 268 267 266 266 266 264 274 274 275 277 277 270 264 273 275 276 277 278 278 278 272 259 258 259 261 261 261 261 261 262 263 263 263 263 263 263 263 264 265 264 264
267 268 267 267 266 265 263 264 262 268 276 277 277 277 277 278 278 278 278 278 279 278 262 257 258 259 261 261 260 260 261 262 263 262 262 262 262 262 262 263 263 264 263
263 265 265 262 263 262 262 263 262 261 262 263 269 272 273 274 275 275 276 276 272 271 256 256 260 259 259 259 258 258 259 261 260 260 260 260 260 261 261 262 262 263 263
263 261 262 262 261 261 262 262 262 262 259 256 257 264 266 270 271 272 273 270 269 268 262 259 258 259 258 257 255 254 255 258 256 257 258 259 260 260 260 262 262 263 263
258 261 260 258 258 259 260 258 258 257 256 256 257 258 259 256 254 253 257 260 259 259 257 258 257 256 256 256 253 251 255 254 254 252 254 257 259 260 260 260 261 262 262
258 256 257 255 255 255 254 255 256 255 255 255 257 260 267 263 262 256 255 256 258 255 256 257 256 255 256 255 251 251 254 254 252 251 252 257 258 258 259 260 262 263 262
257 255 253 251 254 254 253 255 254 254 254 253 255 256 264 259 257 258 260 262 261 258 259 259 256 256 256 256 253 253 252 251 251 249 253 256 256 257 257 259 262 261 261
257 254 252 252 254 255 253 252 251 251 252 251 252 253 251 252 253 253 257 258 258 258 258 258 256 256 257 256 253 254 253 253 252 248 253 255 255 256 256 259 261 260 261
255 253 253 254 254 253 251 250 251 252 250 250 248 250 253 253 251 253 256 257 256 256 258 258 257 256 257 255 253 251 251 253 249 252 253 256 256 256 257 260 258 258 259
254 254 255 254 252 250 249 249 250 248 248 250 251 251 251 252 252 251 254 258 259 258 257 257 257 256 256 254 252 250 250 256 254 252 251 255 255 255 257 257 253 255 255
255 256 255 253 253 249 248 249 249 249 250 251 252 252 252 254 256 257 256 257 257 257 256 256 256 255 255 253 251 252 253 257 255 254 254 255 257 261 259 253 253 252 253

GFSGL_sfc_thetae_051.txt.gz
Theta_e
285 284 284 283 283 283 282 281 280 280 280 279 279 279 278 278 277 277 276 276 276 276 276 276 276 276 275 274 274 275 274 273 271 273 274 275 275 274 276 276 277 276 277
284 284 283 283 283 282 281 280 280 279 279 279 279 278 278 277 277 276 276 276 276 276 276 275 275 277 274 274 273 273 273 273 271 271 273 273 273 274 274 274 276 277 276
284 283 282 282 281 281 280 280 279 278 278 278 278 277 277 277 276 276 276 276 275 275 275 275 275 274 274 273 272 271 272 274 272 272 271 273 273 274 274 274 275 275 277
283 283 282 281 281 281 280 279 279 278 277 277 277 277 276 276 276 276 276 275 275 275 276 275 275 274 274 273 273 273 273 272 272 271 271 272 273 274 274 273 273 275 275
283 282 282 282 281 280 280 279 278 278 277 277 276 275 275 275 275 275 276 275 275 275 275 276 275 275 277 277 275 273 273 271 271 271 271 272 272 273 273 274 273 274 275
283 282 282 281 281 280 280 279 278 277 277 276 275 274 273 275 279 280 277 276 276 275 274 274 275 274 275 278 278 279 278 272 265 264 272 273 273 273 274 274 273 272 271
283 282 281 282 281 281 281 279 278 277 275 275 274 274 274 274 280 281 280 276 275 275 274 275 275 275 274 274 275 277 278 278 279 277 273 273 272 273 273 273 273 272 272
282 282 282 281 281 280 279 279 277 275 275 274 274 274 273 274 280 281 280 276 275 274 274 274 274 274 274 274 273 273 274 275 276 276 274 274 274 276 274 273 272 271 272
282 282 282 282 281 280 279 278 277 276 274 274 273 272 272 272 280 281 280 275 274 274 274 274 274 273 276 278 275 273 272 273 276 277 277 278 277 276 275 271 268 267 267
282 282 283 283 282 280 280 278 277 276 276 274 274 272 271 270 278 280 279 274 268 272 272 274 276 276 277 279 276 270 268 270 272 270 268 270 271 271 273 271 269 266 266
282 281 281 281 281 281 279 276 273 274 273 272 271 271 270 270 270 279 280 275 272 270 270 271 273 277 278 279 279 275 269 274 265 263 265 266 267 268 269 270 270 268 266
279 279 280 280 280 278 277 273 273 272 271 270 269 268 270 270 272 276 278 279 278 270 269 272 273 277 278 279 279 278 277 274 259 260 261 264 265 266 268 268 269 269 270
277 277 276 275 276 276 275 271 269 270 271 270 269 270 269 269 270 276 277 278 279 277 275 275 277 278 279 277 275 276 272 264 259 257 261 264 266 267 268 267 268 268 268
273 271 270 272 268 267 270 271 271 269 269 269 268 268 264 266 269 269 270 271 276 277 276 273 275 276 275 274 268 270 268 265 264 263 264 266 266 265 264 266 265 265 264
269 269 269 267 267 267 267 267 268 266 270 265 263 264 263 265 269 272 270 267 267 270 269 261 262 266 265 265 263 263 263 263 262 261 262 262 263 264 264 264 264 264 262
269 269 268 267 266 266 266 265 274 274 275 277 276 270 265 273 275 276 277 278 278 278 272 269 266 267 267 265 263 262 262 262 263 261 259 260 261 262 262 262 263 262 261
267 267 266 267 266 265 263 264 263 266 277 278 278 278 278 277 278 279 279 279 280 280 275 274 267 265 265 264 263 262 261 263 263 259 259 260 261 260 260 260 261 262 261
265 267 266 265 264 263 262 261 260 260 260 261 270 272 273 274 275 276 276 276 271 271 271 262 265 263 263 263 262 261 260 259 260 258 256 254 254 258 259 259 260 260 260
264 262 262 261 260 261 261 261 259 259 259 260 262 265 264 269 270 271 271 259 258 261 262 261 260 261 261 261 260 258 257 257 257 252 250 250 253 257 257 258 260 260 260
259 261 260 259 258 258 259 258 259 260 257 255 255 257 254 254 252 253 253 252 254 257 258 259 260 260 260 259 258 256 255 255 254 251 249 249 251 255 257 258 258 258 259
256 257 258 257 256 258 258 259 256 253 254 253 255 257 266 259 255 253 252 252 254 255 257 257 254 257 258 258 256 256 255 256 255 250 248 247 249 255 256 257 257 258 260
255 254 255 256 257 257 256 254 253 253 252 252 253 255 263 253 251 252 252 251 253 256 257 257 257 256 257 258 257 257 256 255 254 246 248 248 249 251 254 256 256 258 259
258 257 256 254 254 254 253 250 250 250 249 249 250 251 249 249 250 250 251 252 252 254 253 254 256 256 257 258 258 257 256 256 254 248 247 247 247 249 250 254 255 258 257
256 256 256 253 253 254 253 251 251 253 252 250 247 248 250 250 249 250 251 252 252 252 250 254 256 257 258 257 256 256 254 254 248 247 248 249 252 251 252 255 255 256 255
253 254 254 252 252 251 250 248 250 247 247 249 250 248 250 250 250 250 251 251 252 252 252 251 254 257 256 256 256 255 253 255 251 249 246 247 250 250 253 255 255 257 252
254 254 254 252 250 248 247 248 248 248 249 250 250 250 250 251 251 252 252 252 253 252 251 250 253 254 255 256 255 255 254 256 253 252 250 249 250 253 254 256 257 256 254

GFSGL_sfc_thetae_054.txt.gz
Theta_e
285 285 284 284 283 283 281 281 280 280 279 279 279 279 278 278 278 277 277 276 276 276 276 276 276 276 274 274 274 275 274 273 271 272 273 275 274 274 275 275 276 276 276
284 284 284 283 282 281 281 280 280 280 279 279 279 278 278 277 277 277 276 276 276 276 276 275 275 276 274 274 273 273 273 272 271 270 273 273 273 274 274 274 276 277 276
283 283 282 282 282 281 280 280 280 279 278 278 278 277 277 277 276 276 276 276 275 275 275 275 275 274 274 273 272 272 272 274 272 271 271 273 274 274 274 275 275 276 277
283 283 282 282 282 281 280 280 279 279 278 278 278 277 277 276 276 276 276 275 275 275 275 275 275 274 274 273 273 272 273 272 272 271 271 272 273 275 275 274 273 275 275
283 282 282 282 282 281 280 280 279 278 278 278 277 276 276 275 276 275 276 275 275 275 275 276 275 275 277 276 274 273 272 271 271 271 271 272 272 273 272 273 272 273 274
283 282 282 281 281 281 280 279 279 278 277 277 277 276 274 275 280 281 277 275 276 275 274 275 275 274 276 279 280 280 278 269 260 265 272 273 272 272 272 272 272 270 268
283 283 282 282 281 281 280 280 279 278 278 277 276 275 275 275 281 283 282 276 275 275 275 275 275 275 274 273 276 278 278 278 279 277 274 273 272 272 273 272 271 270 269
283 283 282 282 281 281 280 279 279 278 277 277 276 276 275 275 281 283 283 277 276 275 274 274 274 274 274 273 273 272 273 274 275 276 275 274 274 276 274 272 271 269 269
282 283 282 282 282 280 280 279 279 278 277 276 277 275 275 275 281 283 282 276 275 274 274 274 274 273 276 278 275 271 272 274 278 279 279 279 278 277 275 271 264 264 264
283 283 283 283 283 281 281 280 280 279 278 277 276 275 275 274 279 282 282 275 271 273 273 274 276 275 277 278 275 272 271 271 272 268 269 270 271 270 273 270 268 264 264
284 283 282 283 283 283 282 281 280 278 277 275 274 273 272 272 272 281 282 276 274 271 271 271 273 277 279 279 280 275 273 274 270 264 263 265 266 267 268 269 270 268 265
283 282 282 282 282 282 281 280 277 276 274 272 270 269 271 271 273 278 281 282 280 271 270 272 272 277 278 279 279 280 280 279 260 258 258 263 265 266 267 268 269 269 269
279 279 279 279 279 279 278 274 270 272 273 272 271 272 272 270 270 278 278 281 281 278 276 275 277 278 279 279 280 280 276 265 260 257 260 263 265 267 268 267 267 267 267
277 274 273 275 271 271 273 273 273 272 272 272 269 270 265 267 268 269 271 273 277 278 278 276 277 279 279 277 271 275 271 267 266 264 264 265 266 265 264 265 264 264 263
271 270 270 270 270 268 269 270 272 267 272 267 267 266 265 264 267 272 271 267 267 271 271 261 262 266 269 269 266 266 267 266 265 264 261 261 263 263 263 264 263 262 260
270 269 269 269 268 268 267 264 275 274 276 277 276 268 263 273 276 277 278 278 279 279 273 270 267 267 267 268 268 268 267 265 265 263 260 260 260 261 260 261 261 260 259
269 268 266 267 266 265 263 266 265 267 277 277 278 279 279 274 277 278 278 279 280 279 274 272 272 270 267 268 269 267 265 264 265 263 263 261 261 260 258 258 259 259 258
262 265 264 263 263 263 262 261 261 261 261 260 269 272 273 273 273 274 275 274 262 262 261 258 260 262 264 265 266 265 264 263 261 261 259 258 255 256 256 256 257 257 258
264 262 261 260 260 261 261 260 259 259 257 256 258 265 264 269 269 269 269 255 253 253 253 253 254 255 260 261 262 261 261 259 257 256 255 254 253 252 254 255 257 258 258
259 261 260 259 259 259 260 259 258 258 257 259 258 257 255 255 252 253 252 250 250 249 250 248 251 250 255 257 258 257 256 254 254 256 255 254 254 252 255 255 255 256 256
257 257 258 257 256 256 255 257 257 255 254 251 253 256 265 255 253 252 250 248 247 248 250 249 251 252 256 256 254 254 254 256 257 257 255 252 252 250 252 256 256 255 255
255 254 254 254 255 256 257 255 254 254 252 252 253 255 263 253 250 248 247 247 248 249 250 251 256 251 254 254 255 256 256 256 256 256 253 253 251 247 251 254 254 254 254
255 255 255 255 256 256 254 251 252 251 250 249 250 251 248 247 247 247 247 247 248 249 250 248 252 253 250 251 256 257 257 256 257 256 252 252 249 244 248 252 253 252 253
255 255 255 253 253 252 252 250 250 251 250 249 246 245 248 247 246 247 248 248 248 249 249 249 251 252 250 250 251 256 256 256 255 253 252 251 247 246 246 250 252 253 255
253 254 254 254 252 251 250 249 250 248 247 248 247 247 246 247 248 247 248 249 249 249 251 251 251 251 252 252 253 254 256 258 256 253 250 245 246 245 244 246 251 253 254
252 252 252 251 250 249 248 249 248 248 247 248 248 247 247 248 249 249 249 249 250 251 251 250 250 251 251 252 252 254 255 258 256 254 248 247 247 247 246 249 250 254 255

GFSGL_sfc_thetae_057.txt.gz
Theta_e
287 287 285 284 283 282 282 281 280 280 280 280 280 279 279 278 278 277 277 277 277 276 276 276 276 276 274 274 274 274 274 273 271 272 273 274 273 274 275 276 276 276 277
287 286 284 283 282 282 281 280 280 280 280 280 279 279 279 278 277 277 277 276 276 276 276 275 275 276 274 273 273 273 273 273 271 270 272 272 272 274 274 274 276 278 277
285 284 283 282 282 281 280 280 280 279 279 279 279 279 278 278 278 277 277 276 276 275 275 275 275 274 273 273 272 272 272 274 272 271 271 272 273 274 274 275 275 275 277
284 283 282 282 282 282 281 280 280 279 279 279 279 278 277 277 277 277 277 276 275 275 275 275 275 274 274 273 273 272 273 272 272 271 271 271 273 274 274 273 272 274 274
284 283 283 283 283 282 281 280 280 279 279 279 278 277 277 277 277 277 276 275 275 274 275 276 275 275 278 276 274 273 272 272 271 270 271 271 272 273 272 273 271 273 273
284 283 283 282 282 281 280 280 279 279 278 278 278 277 276 277 281 282 278 276 276 275 274 275 275 275 278 280 281 281 277 270 264 263 271 272 273 273 273 272 272 270 268
283 282 282 282 281 281 280 280 279 278 278 278 277 277 277 277 282 284 283 276 275 275 275 275 275 275 275 274 277 280 280 281 281 276 274 274 273 273 273 272 272 270 269
283 282 282 282 281 281 280 279 279 279 278 277 277 277 277 277 282 284 284 277 275 275 275 275 275 275 274 273 273 272 273 273 274 275 275 275 274 275 276 274 271 267 268
282 282 282 282 282 280 280 279 279 279 278 278 279 278 277 277 282 284 283 278 277 276 276 275 274 274 276 279 275 271 272 273 277 280 281 281 281 280 278 272 263 257 263
283 283 283 283 282 281 281 280 280 280 279 279 278 278 278 278 281 284 283 278 275 275 275 275 277 275 277 279 276 271 270 272 273 271 272 274 274 271 274 271 268 262 263
283 283 282 282 283 282 282 281 281 280 279 278 278 278 277 277 276 283 284 278 277 274 274 274 274 278 280 281 281 276 274 276 273 274 268 268 267 267 268 269 269 268 264
282 282 282 283 283 283 283 282 281 280 279 278 277 276 275 274 276 280 283 284 281 274 274 274 273 278 279 280 280 281 281 281 272 264 263 264 265 266 267 268 269 269 268
283 283 284 284 284 284 283 282 280 279 279 277 275 275 275 272 272 279 280 282 283 280 276 276 278 279 280 280 281 281 280 273 267 263 264 266 266 267 268 267 267 267 267
281 280 279 280 279 280 281 279 277 276 276 275 274 274 270 269 269 270 272 272 277 279 279 276 277 280 280 279 275 276 275 272 270 268 266 266 266 264 263 265 263 263 262
275 273 273 274 274 272 272 274 275 273 277 274 272 270 267 267 268 272 269 265 263 270 270 261 262 267 270 271 272 271 271 271 268 268 267 263 263 263 262 262 262 259 258
271 270 271 272 271 272 271 269 276 275 278 278 276 270 264 273 275 277 278 278 279 278 269 268 268 268 269 268 268 268 268 267 267 267 265 263 262 261 260 259 260 257 257
272 270 269 269 268 268 266 268 267 271 278 278 279 279 277 273 277 278 278 278 277 272 266 264 262 262 263 265 266 267 267 268 267 266 265 262 261 259 257 256 258 258 257
265 266 265 264 265 264 264 264 264 266 266 262 273 274 275 275 274 274 274 267 259 260 256 254 253 253 255 256 258 261 263 261 262 263 262 259 258 257 252 254 257 255 256
264 262 262 261 260 262 261 261 260 260 259 256 257 264 262 270 270 270 267 253 250 249 248 249 249 249 251 252 254 254 257 258 259 258 256 255 256 254 250 255 256 257 257
260 261 260 260 259 260 260 260 259 259 257 257 256 256 255 256 252 251 249 248 247 247 247 246 247 246 246 248 252 251 250 250 251 254 255 255 255 255 255 254 255 256 253
257 257 259 257 257 256 256 257 257 256 256 252 253 258 263 254 252 250 249 247 247 245 246 245 245 245 245 248 249 248 247 250 250 255 255 254 254 252 254 255 256 254 255
255 254 254 254 255 256 254 255 255 255 254 255 253 255 264 254 250 249 247 246 245 245 246 244 245 246 248 248 249 249 250 251 249 256 256 254 254 253 253 253 253 253 254
255 255 254 252 253 253 252 250 251 251 251 250 251 252 250 249 250 249 247 245 244 246 245 244 245 247 248 247 248 252 253 251 252 253 254 254 253 253 251 250 247 250 252
253 253 253 251 251 250 250 249 250 252 250 249 249 249 251 248 245 246 246 246 245 245 244 245 246 248 249 249 248 249 251 253 251 251 253 254 253 252 250 243 246 250 253
250 251 250 250 249 249 250 249 250 248 248 249 248 247 246 246 246 245 245 245 245 245 248 248 249 249 250 250 250 249 249 256 255 252 250 251 251 249 243 244 244 246 251
250 250 249 249 248 248 248 249 248 248 247 248 249 248 249 248 248 247 247 246 248 249 249 249 249 249 250 250 250 252 252 257 255 254 251 251 249 245 244 244 244 247 250

GFSGL_sfc_thetae_060.txt.gz
Theta_e
290 289 289 287 286 285 284 283 282 281 280 280 280 280 279 279 279 279 279 278 278 277 277 277 277 277 275 275 275 275 274 274 271 272 273 273 273 273 275 275 276 276 276
289 288 287 286 285 284 284 282 281 280 280 280 280 280 279 279 279 279 278 278 278 277 277 277 275 276 274 273 273 273 273 273 272 270 272 272 272 273 274 274 276 277 276
287 287 286 284 284 283 282 281 280 279 280 280 280 280 279 279 278 279 278 278 278 277 277 276 275 275 273 273 272 272 272 274 272 271 270 272 272 274 274 275 275 274 276
286 286 285 284 284 283 282 281 280 280 279 279 280 279 279 279 278 278 278 277 277 277 276 276 275 275 274 273 273 272 272 271 271 271 270 271 272 274 274 273 272 274 274
286 285 285 284 284 283 281 280 280 279 279 279 279 278 278 278 278 278 277 277 277 276 276 276 275 275 278 276 274 273 272 271 271 270 270 270 271 272 272 273 272 272 273
285 284 285 283 283 282 281 280 280 279 279 279 278 278 277 278 282 283 279 277 277 276 275 275 275 276 278 281 281 280 276 271 264 265 271 271 272 273 272 272 271 271 269
283 282 282 283 282 281 280 280 279 279 279 278 278 278 277 277 283 284 283 277 277 276 276 276 275 276 275 275 279 282 282 283 281 274 273 273 273 273 273 272 272 271 270
283 282 282 282 282 281 280 280 279 279 278 278 278 278 278 278 283 285 285 278 277 276 276 276 275 275 275 274 273 273 274 274 276 276 275 275 274 275 275 275 273 267 269
282 282 282 283 282 281 280 279 279 279 278 278 279 278 278 278 283 284 284 281 278 276 276 276 275 275 277 280 275 272 273 274 277 280 281 281 282 283 282 271 260 257 264
282 282 282 283 282 281 281 280 280 279 279 278 278 279 278 279 283 284 285 282 278 278 277 276 278 277 279 280 277 274 272 273 272 271 274 276 278 274 277 274 269 260 263
281 281 282 282 282 282 281 280 279 279 279 278 278 278 279 279 280 284 287 282 279 278 277 276 276 280 282 282 282 277 274 275 273 275 272 271 270 270 270 270 270 268 265
280 280 281 282 282 282 281 280 280 280 279 278 278 278 278 278 279 282 285 286 283 279 276 276 276 279 281 282 281 282 282 281 279 270 267 268 268 268 269 269 269 269 269
280 281 282 282 282 282 282 281 280 281 280 279 278 278 278 275 276 282 282 284 285 282 278 278 279 280 281 281 282 282 280 279 275 269 267 268 269 270 269 268 268 267 267
282 282 282 282 282 283 283 282 283 281 280 280 278 278 278 272 272 273 277 279 281 281 280 274 278 280 280 279 274 275 274 274 273 271 271 270 268 266 266 266 264 262 259
279 278 280 280 281 279 277 279 279 275 281 279 278 277 273 271 272 274 273 269 268 271 265 260 262 264 266 267 268 270 271 271 270 269 269 268 266 265 265 264 263 260 256
274 274 274 274 273 273 273 271 278 278 280 280 279 274 267 275 277 279 279 278 277 276 262 259 261 264 267 267 266 265 264 264 264 264 264 264 264 264 263 262 261 257 254
272 270 270 271 271 270 270 271 271 276 280 280 279 277 276 275 278 278 279 279 276 273 263 258 258 260 260 262 262 261 261 262 261 261 263 264 264 262 261 260 259 257 254
268 268 268 267 267 266 268 268 269 271 271 267 277 278 279 278 278 277 277 269 258 258 256 258 258 254 254 254 254 255 256 256 257 258 260 258 257 258 257 257 257 254 256
266 265 264 264 263 264 264 264 264 264 264 260 262 266 265 274 274 272 267 256 253 251 249 249 248 248 249 249 249 249 249 251 252 250 250 252 254 254 252 254 256 257 258
262 263 261 261 260 260 261 260 259 259 259 259 258 256 253 255 252 250 248 247 246 247 246 247 246 244 245 245 245 246 247 246 246 246 247 248 250 251 252 251 255 256 256
257 257 258 258 257 256 256 258 258 257 257 254 253 256 262 252 250 248 247 247 247 246 246 245 244 243 243 243 244 244 244 247 245 246 246 247 248 247 248 255 255 256 256
255 254 255 253 255 255 254 255 254 255 253 254 255 256 265 253 250 249 248 247 246 245 244 243 243 243 245 245 246 245 246 247 245 245 247 248 247 247 250 254 254 255 254
255 255 254 252 253 253 252 250 251 252 251 250 251 253 250 249 249 249 248 245 244 244 243 242 244 246 246 246 246 249 249 250 249 247 249 247 247 248 251 252 253 251 249
253 253 253 250 250 250 250 248 250 250 250 249 248 248 250 248 246 246 245 244 244 243 243 244 245 246 247 247 245 245 247 249 245 249 250 249 248 251 253 251 251 246 246
250 251 251 249 248 248 248 248 249 247 248 249 248 249 248 247 248 246 245 245 244 244 247 247 247 247 248 249 248 246 247 254 250 250 248 250 249 249 250 247 243 243 245
249 249 248 247 247 246 247 248 248 248 249 249 249 248 247 247 248 247 247 246 247 248 248 248 248 248 248 249 249 251 251 255 253 252 249 248 247 248 244 244 242 243 245

GFSGL_sfc_thetae_063.txt.gz
Theta_e
294 293 292 290 290 289 289 286 285 284 283 282 282 282 282 282 282 282 282 281 281 281 281 280 280 280 279 279 279 279 279 279 278 278 278 278 278 278 279 279 280 280 280
293 292 290 288 288 287 287 285 284 283 283 282 282 282 282 281 281 281 280 281 280 280 280 279 278 278 278 278 278 277 278 278 277 275 276 277 276 278 278 278 278 279 279
291 290 289 288 287 286 286 284 283 282 282 281 281 281 281 281 281 281 281 280 280 279 279 279 278 278 277 277 277 276 277 276 276 275 275 276 276 277 277 278 278 279 278
289 290 289 287 287 287 285 283 282 282 281 281 281 281 281 280 280 280 280 279 279 279 279 279 278 278 278 277 276 276 276 275 275 274 274 274 275 277 277 276 276 278 277
288 289 289 287 287 286 284 282 282 281 281 281 281 280 280 280 279 279 279 279 279 278 278 278 278 278 279 278 277 276 276 275 275 274 274 274 275 275 275 276 275 276 277
288 287 288 286 285 284 283 282 281 281 280 280 280 279 279 279 283 283 280 279 278 277 277 277 278 279 280 282 282 280 278 275 273 274 275 274 275 275 276 275 275 274 273
287 286 285 285 284 283 282 281 280 280 279 279 279 279 279 279 285 285 283 279 278 278 277 277 277 277 278 278 282 283 283 282 280 276 275 276 276 276 276 276 275 274 273
286 285 285 284 283 283 282 281 281 280 279 279 279 279 279 279 285 285 284 279 279 278 278 277 277 277 277 276 276 276 277 278 280 281 280 279 278 278 278 277 276 274 273
284 284 283 283 282 281 281 280 280 280 279 280 280 279 279 279 285 286 284 281 278 279 278 277 277 277 279 281 277 275 275 276 278 281 282 282 282 283 283 279 272 271 272
283 283 283 282 281 280 282 281 281 280 280 279 279 279 279 279 285 286 285 283 281 281 279 278 279 278 280 281 280 277 275 276 276 276 276 278 280 279 281 278 275 271 270
281 281 281 282 281 281 281 281 280 279 279 279 278 279 279 280 281 286 287 283 282 282 280 279 278 282 283 283 283 279 278 279 277 278 276 275 275 276 275 275 274 273 270
280 279 279 279 281 281 279 280 280 280 279 278 278 277 279 279 281 285 288 287 285 282 281 280 279 281 283 283 283 284 284 283 281 280 277 275 273 272 273 273 273 272 272
278 278 279 280 281 281 281 280 279 280 279 278 278 278 278 278 279 284 285 287 287 285 283 282 281 282 283 283 283 283 282 280 279 277 275 273 272 273 273 271 271 271 270
279 280 281 281 281 282 282 281 281 280 280 279 279 279 280 279 278 278 281 283 284 285 284 281 282 282 281 280 277 278 276 276 275 274 273 273 272 270 269 270 268 267 266
282 281 282 282 282 281 281 282 281 282 283 282 282 282 281 277 277 278 278 277 277 278 270 270 271 272 273 272 271 271 272 272 271 271 270 269 269 268 268 268 266 265 263
278 279 279 279 279 278 277 275 281 282 284 283 282 280 274 278 280 281 281 280 279 279 269 268 268 268 269 269 268 268 268 268 268 267 267 266 266 265 265 266 264 262 261
276 274 274 274 275 274 274 274 274 278 282 280 279 280 278 278 279 280 281 281 280 279 268 266 267 266 265 265 265 264 264 264 263 263 263 263 264 263 263 262 262 261 260
270 270 271 270 271 271 271 271 273 275 275 274 279 278 279 279 279 280 280 273 266 264 262 262 262 262 261 261 261 261 260 260 261 261 260 260 259 260 260 260 260 259 259
270 268 267 267 267 268 268 268 268 269 268 265 267 270 268 278 277 271 268 262 262 260 257 258 258 257 257 257 257 256 255 257 257 257 257 256 257 257 257 257 258 257 258
264 265 264 263 263 263 263 264 263 264 263 263 262 261 260 264 260 257 255 256 257 257 256 256 254 253 254 254 254 254 254 254 255 255 255 255 256 255 257 255 255 256 257
261 261 260 260 259 259 260 261 261 261 261 260 260 260 263 259 258 256 256 256 256 254 254 254 253 252 252 252 252 253 252 255 253 253 253 254 253 254 254 255 256 255 256
260 259 258 258 258 258 257 258 258 258 257 258 257 258 268 258 256 255 254 253 252 252 252 253 252 252 252 252 253 253 253 253 253 252 252 252 252 253 253 254 254 255 255
257 257 255 254 254 254 254 253 254 255 254 254 255 256 255 255 255 255 254 252 251 252 250 249 251 250 250 249 250 252 253 253 254 252 253 252 252 253 253 254 253 253 253
255 254 254 251 252 252 252 252 252 252 252 252 251 252 254 252 252 253 252 251 250 249 248 248 248 249 250 249 249 249 250 251 251 251 251 252 252 252 253 253 252 252 252
251 252 251 250 249 249 249 249 251 248 249 251 250 251 251 251 250 250 249 249 248 249 249 249 248 249 250 250 250 250 249 253 253 250 250 251 251 251 251 252 251 250 249
250 250 248 248 247 246 247 248 248 249 249 250 250 250 250 250 250 250 249 248 248 249 249 250 250 249 250 251 251 252 251 255 253 251 251 252 251 250 250 249 248 248 249

GFSGL_sfc_thetae_066.txt.gz
Theta_e
303 304 303 302 301 299 295 294 292 290 286 286 285 285 285 286 288 289 288 287 287 285 286 285 284 284 282 282 283 283 283 284 283 282 282 283 282 282 283 284 284 283 284
302 303 302 300 299 297 294 293 291 288 287 285 284 284 284 284 287 287 286 286 286 284 284 283 282 281 281 281 282 281 282 282 282 280 281 280 281 283 283 282 281 282 283
301 300 300 299 297 296 295 292 291 288 286 283 283 283 282 283 284 286 286 285 285 284 283 283 282 281 280 280 280 281 281 279 280 279 279 280 281 282 281 282 282 283 282
299 299 298 298 296 294 291 289 289 288 285 283 283 282 282 282 282 284 284 284 284 284 283 283 281 280 280 280 280 280 280 279 279 278 278 279 280 281 280 279 280 283 282
297 297 297 296 295 293 289 287 287 286 284 283 282 282 282 281 281 281 283 283 283 282 282 281 281 281 282 282 280 281 280 279 279 278 278 279 279 279 278 280 279 280 281
296 295 296 294 291 289 287 285 284 284 283 282 281 281 280 280 284 285 284 283 282 281 280 280 281 280 281 283 283 282 281 280 280 280 279 278 278 279 279 279 278 277 276
293 293 292 291 289 288 286 284 283 282 282 281 281 281 280 280 285 285 285 282 282 281 280 280 279 279 280 280 283 284 283 283 283 280 278 278 279 280 281 279 278 278 277
290 290 289 289 288 287 285 284 283 282 281 281 280 280 281 280 286 286 284 282 282 281 280 282 281 279 279 279 279 280 281 282 283 283 282 281 282 283 281 280 279 279 279
289 289 288 288 287 286 284 284 283 282 281 282 281 280 280 280 286 286 283 281 280 279 281 282 281 280 280 282 279 279 279 279 281 283 284 284 284 284 283 282 280 277 275
288 288 288 287 286 284 285 284 284 283 281 280 280 281 281 281 286 286 284 281 280 280 281 282 281 281 282 283 281 281 278 279 279 279 279 280 281 281 282 281 280 276 276
286 286 285 286 285 285 285 284 283 282 280 279 279 280 280 281 284 286 286 283 282 283 284 282 281 284 284 284 284 282 281 282 281 281 279 279 279 279 279 279 279 277 275
284 284 284 284 284 284 283 283 282 280 279 279 278 278 280 280 284 286 287 286 286 285 285 284 283 284 285 286 286 285 284 284 283 282 281 280 279 278 277 277 276 276 276
282 281 282 283 283 283 282 282 282 281 280 279 279 279 279 279 281 285 287 287 287 285 285 285 284 284 285 285 285 284 283 283 282 280 279 279 277 276 275 274 274 274 273
281 281 282 282 282 283 283 283 282 281 281 280 280 279 279 279 280 282 284 285 286 286 286 285 285 284 283 283 281 282 281 280 279 278 276 276 275 274 273 273 271 270 269
282 282 283 283 283 282 282 283 282 283 283 281 282 282 281 280 280 283 283 283 284 284 280 279 279 280 279 278 277 277 277 276 275 275 273 272 272 271 270 270 269 268 266
281 282 283 283 283 282 281 281 284 284 285 286 286 285 283 284 284 284 284 284 284 283 276 277 277 278 277 276 275 274 273 271 272 271 270 269 268 267 267 267 267 266 264
282 280 279 280 280 279 279 280 279 282 282 282 283 282 281 281 282 283 283 283 282 281 276 275 276 275 275 273 272 271 270 269 267 267 267 266 266 266 264 265 265 264 263
278 278 280 280 280 279 279 279 280 280 278 278 280 279 279 280 280 281 282 280 275 273 273 273 272 271 271 270 268 267 266 265 265 265 265 264 263 263 263 263 263 262 262
275 274 275 275 276 277 277 277 278 279 277 275 275 275 275 279 276 276 275 275 273 271 268 269 269 268 267 266 265 264 263 263 263 263 263 262 262 261 261 261 261 260 259
270 270 272 273 273 273 274 274 274 274 274 274 275 274 271 273 273 269 266 267 268 268 267 266 264 263 263 263 262 262 261 260 261 261 261 261 261 261 260 260 259 259 260
268 268 268 270 271 271 271 272 272 272 272 271 271 268 267 271 269 267 266 265 265 264 263 263 261 261 261 260 260 260 260 262 261 260 260 260 259 259 259 260 259 259 258
266 266 266 266 267 266 266 267 267 268 268 267 265 266 270 266 265 265 264 263 262 261 261 261 261 260 260 259 260 260 260 260 260 259 259 258 258 259 258 258 258 258 258
265 265 264 263 263 263 264 264 264 265 265 265 264 264 264 264 262 262 262 261 260 259 259 258 259 258 258 257 259 260 260 259 260 260 258 258 258 258 258 258 258 256 257
263 263 262 262 261 262 262 261 261 259 262 262 262 261 262 261 261 260 260 260 259 258 257 256 256 257 257 257 257 257 257 258 258 257 257 257 257 257 256 257 257 256 256
261 261 260 260 260 260 261 260 260 260 260 260 260 260 260 259 259 259 259 258 257 257 257 256 256 256 255 255 255 256 256 257 257 255 256 256 256 256 255 256 256 256 255
260 259 259 259 259 259 259 260 260 259 259 259 259 259 259 258 258 258 258 257 256 256 256 256 256 255 255 256 256 256 255 257 255 254 256 256 255 255 255 254 254 254 254

GFSGL_sfc_thetae_069.txt.gz
Theta_e
307 308 307 308 309 309 307 306 305 304 298 294 291 290 290 289 290 291 291 290 290 288 288 287 286 286 285 284 284 284 284 284 284 281 283 284 283 282 282 282 284 283 283
306 306 306 306 307 306 306 304 302 296 292 292 290 288 287 287 288 289 288 288 287 285 286 285 283 283 283 283 284 283 283 283 283 281 281 280 280 283 283 282 281 282 282
305 304 304 304 303 302 302 300 296 293 289 287 287 286 285 285 285 286 286 286 286 285 284 283 282 282 281 282 282 282 282 280 281 281 280 280 280 281 281 281 282 282 283
304 303 302 303 302 301 301 298 293 291 287 286 286 285 284 284 284 283 283 285 284 284 284 283 282 281 282 282 281 281 281 280 280 279 279 279 279 281 280 278 279 281 281
302 301 301 302 302 301 299 296 292 290 287 286 284 284 283 282 282 283 283 283 283 282 282 282 282 283 285 283 280 280 280 280 280 279 278 278 278 279 278 280 278 279 280
301 299 299 299 297 295 293 290 288 286 285 284 283 282 282 281 285 287 284 282 282 281 281 281 281 282 284 284 283 284 282 281 280 280 279 278 279 279 279 279 278 277 276
297 295 294 293 292 291 289 287 286 285 284 283 282 282 281 281 286 287 286 282 281 281 281 281 281 282 281 281 284 284 284 284 284 281 279 280 279 279 280 279 279 278 277
294 292 291 291 290 289 287 286 286 285 283 282 282 282 281 281 286 287 285 281 281 281 281 281 282 280 280 280 280 281 281 282 282 282 281 280 280 281 282 281 279 278 278
291 291 290 290 288 287 286 285 285 284 283 283 283 282 282 281 286 287 284 282 281 281 281 283 283 281 283 283 279 278 279 280 283 285 285 286 286 286 285 281 279 278 277
289 289 290 288 287 286 286 285 285 284 283 282 282 282 282 281 286 286 283 282 280 280 282 283 283 284 285 285 281 279 278 279 279 279 279 280 282 281 283 280 279 276 276
287 287 286 287 286 286 286 285 284 282 281 280 280 281 281 283 285 287 284 282 281 280 280 281 283 286 286 286 285 282 281 283 282 280 279 279 279 278 278 278 279 277 275
284 284 284 285 285 285 284 283 283 281 280 279 278 279 280 282 284 286 286 284 284 281 281 282 283 286 287 287 286 286 286 284 282 280 280 279 279 279 278 277 276 276 276
282 281 283 283 284 284 283 282 281 281 280 279 278 278 278 280 282 286 287 286 285 284 284 286 286 286 287 287 287 287 285 284 282 281 280 280 277 276 275 274 275 274 273
281 281 282 282 282 283 283 283 282 281 281 279 279 279 279 279 280 283 284 286 285 285 286 285 286 285 286 285 282 284 283 282 281 280 277 276 275 273 272 273 270 269 266
281 282 283 283 283 282 283 283 283 283 283 282 282 282 280 279 280 282 284 284 285 285 285 283 283 283 282 281 280 280 279 276 275 275 274 273 272 272 270 269 267 265 262
281 282 282 283 283 283 282 282 285 285 285 285 285 284 284 284 284 284 284 285 285 286 280 279 278 279 279 278 276 276 275 272 273 272 270 269 269 268 266 266 265 262 261
283 282 282 281 281 281 281 281 278 281 284 284 286 286 284 284 286 285 285 286 287 285 279 278 278 278 278 277 275 274 272 271 268 267 268 267 266 265 263 263 263 262 260
281 282 282 281 281 281 281 281 280 279 278 278 280 280 281 281 282 283 283 282 278 279 278 276 276 276 275 273 271 270 268 266 265 266 265 263 261 261 260 260 261 258 257
278 277 278 278 279 279 279 279 280 279 277 276 277 277 279 280 280 279 279 278 276 273 271 272 271 271 270 269 268 266 266 265 264 262 261 259 258 258 257 258 259 258 257
272 273 275 275 275 275 276 275 276 276 276 276 277 273 273 275 274 270 269 270 270 269 268 267 266 266 266 265 265 263 261 260 259 258 259 258 258 258 257 255 255 256 255
271 271 272 272 272 272 273 273 273 274 273 273 268 270 272 272 269 268 267 266 265 265 263 264 263 262 262 261 260 260 259 261 260 260 259 257 256 254 255 257 255 254 254
269 268 268 268 268 268 268 269 269 269 269 268 267 268 270 267 267 266 264 263 262 261 261 261 260 260 259 258 259 259 259 259 259 259 257 254 254 254 253 255 254 255 254
268 267 266 266 266 267 266 266 266 266 266 265 265 265 265 264 263 262 261 260 259 258 258 257 258 257 257 257 259 259 259 258 258 257 255 254 253 253 253 253 253 252 252
265 265 264 263 263 263 263 263 262 261 262 262 262 262 262 261 260 259 258 259 258 257 256 255 255 256 257 257 257 257 257 256 256 255 254 253 253 253 252 253 253 252 253
263 262 261 261 261 261 262 262 261 261 260 261 260 260 260 259 258 258 258 257 255 255 255 255 255 256 256 255 255 256 257 259 255 255 253 252 252 251 251 251 251 252 253
261 261 261 261 261 260 260 260 260 260 259 259 259 259 258 258 258 257 257 255 255 254 254 255 255 255 255 256 255 256 256 258 255 256 254 254 253 254 252 250 249 250 249

GFSGL_sfc_thetae_072.txt.gz
Theta_e
301 302 303 302 303 304 304 302 301 300 298 297 296 296 294 294 296 298 296 294 294 291 289 287 285 284 284 283 281 281 281 282 279 277 280 281 281 281 280 280 280 280 280
301 301 301 301 302 301 301 301 299 298 293 293 291 292 291 292 292 294 292 291 290 288 287 285 284 284 282 282 281 280 281 281 281 277 278 278 279 280 280 279 280 281 280
300 300 300 299 300 300 299 299 297 293 290 288 287 288 288 289 289 291 291 289 290 288 287 285 283 282 281 281 281 280 280 280 280 280 277 279 279 279 278 279 279 280 281
299 299 298 298 299 299 298 296 293 289 286 285 286 287 287 286 287 286 287 287 287 286 285 284 283 282 281 281 280 280 280 279 279 278 278 278 278 279 278 277 277 279 279
298 298 299 298 298 297 294 292 288 287 285 285 284 284 285 285 284 285 285 285 284 283 282 282 282 282 284 284 281 280 280 279 278 278 277 277 277 278 277 278 277 278 278
298 298 297 293 292 291 290 289 287 285 284 283 283 283 283 283 287 288 286 284 283 283 281 281 282 283 285 285 285 284 282 280 278 278 278 277 278 278 278 278 277 276 274
292 290 288 289 289 288 288 286 285 284 282 282 282 282 282 282 287 289 287 283 283 282 281 281 282 283 283 282 285 285 284 285 284 281 279 279 279 279 279 278 278 277 276
289 287 285 287 287 285 284 284 283 282 282 281 281 281 282 282 287 288 287 282 282 281 281 281 282 281 282 281 282 281 281 282 283 282 281 280 280 280 281 280 279 277 277
288 287 285 285 284 284 283 282 281 281 280 283 283 281 282 281 287 288 285 282 281 281 281 282 283 282 284 284 281 280 280 281 284 285 285 285 285 285 284 278 274 273 276
286 286 286 283 282 282 282 281 280 280 283 282 282 282 282 281 286 288 285 282 280 280 281 282 283 284 285 285 281 280 278 278 279 279 281 283 284 282 284 281 275 273 272
282 282 281 281 280 280 279 279 280 282 281 281 280 281 281 282 285 287 286 282 281 280 280 281 284 287 287 288 285 280 280 281 281 280 279 278 278 278 278 278 277 275 270
279 279 278 277 279 280 282 282 281 281 280 279 279 279 280 282 285 287 286 285 284 280 280 282 283 288 288 288 287 285 286 286 282 279 278 277 277 277 277 276 276 275 275
279 276 275 276 277 278 278 280 280 280 279 278 278 277 278 279 282 287 287 286 286 281 282 282 284 286 287 288 288 287 285 284 283 279 278 278 277 276 275 274 274 273 271
279 279 277 277 277 278 279 278 278 279 279 278 278 278 278 278 279 283 284 284 284 284 284 284 285 285 286 286 283 286 284 283 281 280 278 275 274 272 271 271 266 266 261
279 280 281 281 281 280 280 278 277 277 279 279 280 280 278 277 279 283 284 284 284 284 284 284 283 282 282 282 279 280 278 276 276 274 273 271 271 271 268 266 265 261 258
278 280 281 281 279 276 277 281 285 284 285 285 285 283 282 283 284 284 286 286 287 287 282 280 281 281 280 278 277 276 275 274 273 270 267 266 266 265 264 263 261 258 257
281 280 280 278 277 278 278 279 277 281 285 286 286 286 285 285 285 285 285 286 286 286 279 279 277 276 275 276 275 274 272 271 268 268 267 264 263 265 263 261 262 260 255
281 281 280 279 278 278 277 276 276 276 275 275 281 282 283 284 285 286 286 285 280 278 276 275 274 275 274 273 271 269 266 264 263 263 261 260 260 260 259 259 261 255 253
275 276 277 277 278 278 278 279 278 276 274 274 274 276 278 281 279 279 279 275 273 271 271 270 270 268 266 265 262 263 263 262 263 261 258 257 258 257 254 259 257 256 254
272 274 275 275 275 275 275 274 274 273 273 273 270 269 269 270 267 267 268 268 267 265 264 263 262 263 262 262 261 261 261 259 259 258 256 257 256 258 258 252 251 252 250
271 271 271 271 270 270 271 271 272 271 268 266 266 269 274 267 265 263 262 261 260 259 258 258 257 257 257 258 260 259 258 258 257 257 255 255 256 253 256 255 252 250 249
268 268 267 267 267 267 267 267 267 267 266 264 264 267 270 264 262 260 259 257 255 255 254 254 254 254 253 254 253 253 253 254 253 256 256 255 255 252 250 251 250 250 249
267 266 265 265 265 265 263 263 263 263 262 261 260 260 259 257 257 256 255 253 253 253 251 251 251 251 250 250 251 252 253 254 255 255 254 254 253 253 251 251 250 249 249
264 263 262 262 262 261 261 261 260 260 258 256 254 254 255 253 252 253 252 251 251 249 248 248 248 249 248 248 248 249 250 251 250 254 255 254 254 254 252 251 251 252 253
261 260 260 259 259 258 258 257 256 254 253 255 253 254 252 252 251 250 249 249 249 249 249 249 249 249 250 250 249 249 250 258 251 251 251 252 252 253 252 252 250 252 253
260 259 259 259 258 257 257 257 255 254 253 253 252 251 251 251 250 250 249 249 249 249 248 248 249 250 250 251 251 252 254 259 255 255 252 252 251 252 252 251 252 252 251

GFSGL_sfc_thetae_075.txt.gz
Theta_e
299 300 300 301 302 302 303 302 302 300 300 298 297 299 300 301 301 301 301 299 298 298 297 295 294 291 289 287 285 284 284 283 281 279 280 281 281 281 281 283 282 281 281
299 299 299 300 300 300 301 300 299 299 296 297 295 296 297 298 299 299 298 297 296 295 294 292 292 287 287 285 285 283 283 283 281 278 278 279 280 281 280 279 280 281 280
298 298 298 298 299 300 300 298 297 296 294 291 292 292 293 294 295 296 296 295 295 295 293 291 288 286 285 284 284 283 282 281 281 279 277 278 278 279 279 279 280 280 280
298 298 297 298 299 299 298 297 296 294 291 288 289 289 288 289 290 291 292 292 292 291 289 289 286 286 285 284 283 282 281 281 280 279 277 277 278 279 278 278 278 279 279
297 296 298 297 296 296 294 292 291 289 288 287 285 285 285 287 288 288 289 289 288 286 286 286 285 285 285 285 283 282 281 280 279 279 277 277 277 277 277 278 278 278 279
295 295 296 293 292 291 291 290 289 287 286 285 284 284 284 285 288 290 289 287 287 285 283 283 283 283 284 286 286 286 283 280 278 278 278 277 278 279 279 278 278 277 275
289 288 288 288 288 289 288 288 287 285 284 283 283 282 284 285 288 290 289 285 285 285 284 282 282 283 283 284 286 286 285 286 284 281 279 279 279 279 279 278 278 278 277
286 285 285 285 286 285 284 285 283 283 282 281 281 281 283 283 287 290 289 284 284 284 283 282 282 283 283 283 283 282 282 283 284 283 282 281 281 281 281 281 280 278 277
286 285 285 284 284 283 283 282 280 279 278 278 279 279 282 282 286 289 288 283 282 282 282 283 283 283 285 286 282 281 281 281 285 286 285 285 284 284 283 280 276 274 273
284 284 285 283 281 280 281 279 278 279 280 282 283 283 283 282 286 288 287 282 281 280 281 282 283 284 286 286 282 282 281 281 281 281 282 284 285 285 287 283 279 273 273
281 281 280 280 279 279 278 282 283 283 282 281 281 281 281 282 284 288 288 282 281 280 280 281 282 286 287 287 285 283 283 282 282 280 279 279 280 280 280 280 279 277 272
278 278 277 274 278 280 284 282 282 281 280 280 279 279 279 281 284 287 288 284 284 281 280 281 283 287 288 288 285 285 286 284 280 280 278 278 277 278 278 278 278 276 276
273 272 272 274 275 276 282 281 280 280 279 278 278 278 278 280 282 286 288 285 285 281 282 283 285 287 289 288 288 287 284 284 282 279 278 278 279 278 277 275 275 273 272
273 275 274 273 273 275 276 277 278 279 278 278 278 277 277 278 278 283 284 284 284 282 283 283 285 286 286 285 283 285 284 284 283 281 279 276 275 274 273 273 270 269 266
273 277 279 276 274 275 276 273 274 274 277 276 274 275 275 274 278 282 284 282 282 283 282 282 282 282 282 282 283 282 282 280 280 277 275 273 273 272 271 270 268 266 264
279 279 279 279 278 278 279 280 284 284 284 284 284 281 279 280 283 285 286 286 285 286 283 282 281 281 281 280 280 278 276 276 275 273 272 272 271 270 268 267 265 263 263
280 279 278 278 278 278 278 279 278 281 285 286 286 285 284 284 284 285 286 287 287 286 279 280 280 279 277 277 276 274 273 272 271 271 270 269 268 267 266 265 264 262 258
279 279 277 278 279 278 277 277 276 274 275 277 283 283 286 286 285 285 286 286 280 277 277 276 275 275 273 272 272 271 268 267 267 267 265 264 265 264 263 262 262 259 256
276 276 276 277 277 278 278 277 275 274 273 272 273 275 275 280 280 280 280 275 272 271 271 270 269 266 265 265 264 262 262 262 262 261 260 261 262 261 256 258 260 259 256
273 274 275 275 275 275 275 274 274 273 271 270 269 268 269 269 267 266 266 266 265 263 263 262 257 257 257 258 257 258 257 257 257 256 256 257 256 255 255 255 256 256 254
271 270 271 270 270 271 271 271 270 269 268 268 268 273 273 266 264 262 262 260 258 257 257 256 256 255 254 254 254 255 254 255 253 251 251 250 251 251 253 258 255 254 252
268 268 268 267 267 267 267 267 267 266 266 265 264 267 269 263 262 260 257 255 253 253 252 253 253 252 251 251 251 250 250 250 248 249 249 250 252 251 252 253 254 254 251
267 266 266 265 265 264 264 264 263 263 262 262 261 260 259 256 255 254 253 251 252 252 250 250 250 250 247 247 247 249 249 249 250 250 252 252 252 252 252 253 251 251 251
264 264 263 263 262 262 261 260 260 260 259 256 254 254 255 253 252 252 251 249 250 247 247 247 247 247 247 246 245 245 246 247 246 250 251 251 251 250 249 249 252 252 253
262 262 261 260 260 259 259 258 257 257 255 257 254 255 252 251 251 249 248 248 247 247 248 247 246 247 247 248 247 247 247 255 249 248 246 248 249 250 249 251 252 253 254
260 260 259 258 258 257 256 256 255 256 254 253 253 251 251 251 250 248 247 247 248 248 247 246 247 248 248 249 250 251 252 256 253 253 246 248 249 249 250 251 252 254 253

GFSGL_sfc_thetae_078.txt.gz
Theta_e
298 298 298 299 300 301 303 303 303 300 300 300 301 303 303 304 305 305 305 304 300 300 299 298 297 298 295 294 292 289 287 287 287 280 282 283 283 283 282 284 283 283 283
298 298 298 298 299 299 300 300 299 299 297 299 297 299 300 301 302 302 302 302 299 297 297 296 296 297 295 293 292 290 288 285 283 279 279 280 281 282 282 282 281 281 281
297 297 297 297 297 298 298 298 297 297 295 293 294 295 296 297 298 299 300 300 299 298 298 296 297 295 291 291 289 289 287 284 282 281 278 279 279 281 279 280 280 280 280
296 296 296 297 297 296 296 296 295 295 294 291 292 292 292 294 294 294 294 296 296 296 296 295 294 292 291 288 286 285 284 282 282 280 279 278 278 279 280 279 278 280 279
294 295 296 296 295 295 293 292 291 291 291 290 289 289 288 288 288 290 290 292 291 292 289 289 290 288 289 287 286 285 284 283 282 281 278 277 277 278 278 279 278 279 279
291 290 291 290 290 290 289 289 289 289 288 287 286 287 286 287 290 292 291 289 288 289 288 286 285 285 287 288 289 288 286 284 283 281 279 278 278 279 279 279 278 277 276
285 286 286 286 287 288 288 288 287 287 286 285 285 284 284 284 289 291 291 287 287 287 287 285 283 284 284 285 287 287 288 288 286 282 280 280 279 280 280 279 279 279 278
285 284 284 285 285 285 284 284 285 285 283 283 283 282 282 283 288 290 290 287 286 285 285 284 284 283 284 284 284 283 283 284 284 283 283 282 283 282 282 281 280 280 279
284 284 284 284 283 283 282 282 280 279 278 278 280 281 282 283 287 288 289 285 284 283 283 283 283 283 285 286 283 282 282 282 286 285 285 286 287 285 284 281 277 276 276
283 283 283 283 281 281 282 280 277 278 283 282 283 283 283 284 286 288 288 284 282 281 282 283 283 284 286 287 283 281 280 281 282 283 283 285 285 284 286 282 280 277 277
281 281 280 280 280 280 280 282 283 283 282 282 281 281 282 283 283 287 289 283 282 280 280 281 282 286 287 287 285 283 283 283 284 281 281 281 281 281 281 282 281 280 276
280 279 279 277 279 279 280 283 282 282 281 280 280 279 280 281 283 286 288 284 284 280 280 281 282 286 287 288 285 286 287 283 282 279 278 278 278 279 279 279 279 279 278
276 276 274 275 276 275 282 281 280 280 279 279 278 278 278 280 281 286 288 285 285 282 282 282 284 286 288 288 287 287 284 281 280 278 278 278 279 279 279 276 276 274 273
274 278 278 273 274 273 275 279 280 279 278 278 278 278 278 279 280 282 285 284 284 282 283 283 285 286 287 286 284 285 284 284 282 280 279 278 277 276 275 274 272 271 269
277 278 280 280 276 274 275 273 275 276 277 277 278 278 276 276 278 284 284 282 280 280 279 280 282 282 282 282 281 282 283 282 282 280 277 274 274 273 272 272 270 268 267
278 279 279 279 278 278 278 278 283 283 284 284 283 280 278 281 282 285 286 285 284 284 279 278 277 277 277 278 279 278 278 278 278 276 274 273 272 272 270 269 267 265 265
277 280 279 278 277 277 277 277 276 280 286 286 286 284 284 284 284 285 286 286 286 286 277 278 279 279 279 279 279 276 275 274 273 273 273 272 271 269 268 266 266 265 263
278 279 277 275 276 277 277 276 275 275 274 274 279 283 286 285 285 286 286 283 278 278 276 276 275 275 274 273 272 271 270 269 268 268 267 266 265 264 264 264 264 261 261
273 272 273 274 277 278 277 275 274 273 272 271 272 275 273 279 279 280 280 273 273 272 271 270 270 270 269 266 264 262 262 262 260 260 258 259 261 261 258 261 262 260 256
271 275 275 274 275 275 275 274 273 271 270 270 270 269 269 270 268 267 267 268 267 266 265 264 262 262 259 257 257 257 257 257 256 256 256 257 259 259 257 253 254 253 253
269 270 272 272 272 272 272 271 270 270 269 268 270 273 272 266 264 263 262 261 261 261 260 259 257 256 254 253 253 254 254 254 253 253 253 253 250 249 249 253 251 253 254
269 269 269 269 269 269 268 268 268 267 266 266 264 266 269 263 262 261 259 257 255 254 253 253 252 251 250 251 250 250 249 249 247 247 247 247 246 247 247 250 253 253 251
267 267 266 266 266 266 265 265 265 265 263 263 262 262 261 259 259 258 257 255 255 255 254 253 252 251 247 246 245 248 249 248 248 246 247 246 247 247 247 249 249 249 251
264 264 264 263 263 263 263 262 262 261 260 260 259 258 259 256 254 255 254 254 255 252 252 249 248 247 247 245 244 243 244 245 243 245 246 247 247 248 247 248 250 252 252
262 262 262 261 261 261 261 260 260 259 257 258 255 255 253 253 254 254 253 253 250 248 249 248 247 247 246 246 246 244 245 252 247 246 244 246 246 245 246 247 250 250 252
261 261 260 260 260 259 259 257 256 255 254 256 256 255 255 253 253 251 250 248 248 248 247 246 245 245 246 247 247 250 251 256 251 251 245 245 246 245 246 248 250 251 253

GFSGL_sfc_thetae_081.txt.gz
Theta_e
297 297 297 298 298 299 299 300 300 299 299 299 299 299 300 301 302 304 306 307 305 304 303 302 300 301 300 297 294 293 292 293 292 291 284 284 284 284 284 285 286 285 285
297 297 297 297 297 297 298 298 298 299 297 299 297 298 300 302 303 303 303 304 303 301 300 299 299 299 298 298 295 292 292 292 292 292 280 281 282 283 283 283 283 284 283
294 295 296 296 296 296 296 296 296 296 295 294 294 295 299 300 301 301 302 302 302 302 301 298 298 297 295 296 294 292 291 290 288 284 280 281 281 283 281 282 282 281 282
292 292 293 294 295 295 295 295 294 294 294 292 292 293 294 296 296 297 295 298 299 299 299 298 298 297 295 295 292 291 288 286 285 284 281 280 280 280 281 279 278 280 279
289 289 290 291 291 291 290 289 289 289 290 290 289 289 289 292 293 293 291 294 294 294 294 294 294 293 292 294 290 287 285 285 284 284 280 279 279 278 278 279 279 279 279
286 285 286 286 286 286 286 286 287 287 287 287 287 287 287 289 292 293 293 290 290 290 291 289 288 287 288 291 292 290 288 286 284 283 281 280 279 279 280 279 278 278 276
283 284 284 284 284 285 285 285 286 286 286 285 285 285 285 285 291 292 292 288 287 288 288 287 285 285 285 287 290 291 289 291 289 285 282 282 280 280 280 279 279 279 279
283 282 282 283 283 283 283 283 284 283 283 283 283 283 282 283 289 290 290 286 286 286 287 286 286 284 285 285 286 285 285 286 286 284 284 282 282 282 282 282 280 280 279
283 282 282 282 281 281 282 282 282 279 279 279 280 278 281 285 288 289 288 286 286 285 285 285 285 284 285 288 284 283 282 282 286 287 287 286 286 286 284 282 279 278 276
281 281 281 281 280 280 283 282 283 280 283 282 284 284 284 284 286 287 287 285 284 283 282 283 283 284 286 288 283 282 280 281 283 283 284 286 286 286 287 283 280 278 277
279 279 279 279 278 280 280 282 283 283 283 283 282 282 282 282 283 286 287 284 283 281 281 281 282 286 287 288 286 283 282 283 284 282 282 282 282 282 283 283 282 281 278
277 276 277 276 277 279 276 281 283 282 282 282 280 280 280 280 282 284 286 288 284 281 280 281 282 285 287 288 285 286 287 284 282 281 280 279 280 280 280 280 280 280 280
278 276 277 280 275 274 274 280 281 281 280 280 279 279 279 280 281 284 286 287 285 282 282 282 283 285 287 287 286 287 283 282 280 279 278 279 279 280 279 276 276 275 274
278 278 278 280 281 279 274 274 277 279 279 279 279 278 278 278 280 282 284 284 284 282 282 282 283 285 286 285 284 285 283 282 280 280 279 278 278 277 275 275 272 272 270
276 278 280 281 280 280 279 274 272 273 278 276 278 278 274 273 275 284 283 280 277 279 277 280 282 282 282 282 283 283 283 283 282 280 278 275 275 275 273 273 271 269 268
273 276 279 280 280 279 278 278 284 285 285 285 284 279 277 281 282 285 285 285 284 284 275 275 278 278 278 278 279 278 279 279 278 276 275 274 273 272 270 270 269 268 268
267 271 276 278 276 272 272 273 274 278 282 282 286 285 284 284 285 285 286 285 285 283 275 276 277 278 276 276 277 277 276 274 274 275 274 273 272 271 270 268 267 266 265
266 271 276 276 274 272 270 272 272 275 274 274 277 279 284 286 286 286 286 282 278 278 277 276 276 275 274 274 273 272 271 271 270 270 269 268 267 266 265 265 265 263 262
267 271 273 271 274 274 273 272 273 273 272 272 273 275 273 279 279 279 278 273 271 270 270 269 269 268 267 267 267 266 266 265 264 263 263 263 262 262 260 261 262 263 260
268 270 273 271 272 275 274 272 272 271 271 270 269 267 268 270 268 267 267 267 267 265 265 264 263 262 262 262 261 260 260 260 259 259 258 258 258 259 257 257 259 259 252
267 268 271 270 271 272 273 272 271 270 269 267 269 272 272 266 264 263 262 261 261 261 261 260 259 259 258 257 257 258 256 256 254 254 253 252 252 253 254 253 249 248 249
266 268 267 267 270 270 269 269 269 268 267 266 265 267 269 264 262 261 259 258 257 256 256 256 255 253 252 252 252 253 251 250 248 247 247 246 246 245 246 248 249 250 249
267 267 265 266 267 267 267 267 266 266 265 264 263 262 261 260 260 258 256 255 255 254 252 250 250 249 248 247 247 249 251 249 248 245 246 245 245 245 245 247 248 250 250
265 265 265 264 264 264 264 263 263 263 262 261 260 259 259 258 257 257 256 253 253 251 252 251 250 250 249 246 244 242 243 243 242 244 245 245 245 245 245 246 248 249 252
263 263 263 262 262 262 262 261 261 260 259 259 258 257 256 256 256 254 251 250 250 250 251 250 249 248 247 246 245 243 244 251 245 244 242 244 244 243 243 244 245 247 249
261 261 261 261 260 260 260 260 259 258 257 257 256 255 254 253 252 250 248 248 250 249 247 246 245 245 245 245 246 248 250 255 250 249 244 244 244 243 243 244 244 246 248

GFSGL_sfc_thetae_084.txt.gz
Theta_e
295 295 295 296 296 296 296 297 297 298 298 298 298 298 299 300 302 306 308 309 306 304 304 302 302 303 302 301 300 297 296 296 293 297 287 286 285 286 286 287 287 287 287
293 294 294 295 295 295 296 296 296 296 296 296 296 296 297 298 298 299 301 303 304 304 304 303 302 302 300 301 300 295 296 296 294 293 289 282 283 285 285 284 285 286 285
290 291 292 292 292 292 293 294 294 294 294 293 293 293 295 297 300 301 302 302 302 303 303 300 301 299 297 298 298 296 294 294 293 292 292 282 282 283 283 283 283 284 285
288 288 288 289 289 289 289 290 290 290 290 290 290 290 290 291 295 296 296 299 300 301 301 300 299 297 297 296 295 295 293 291 290 289 284 281 281 282 282 280 280 282 281
286 286 286 286 286 286 286 286 286 286 287 287 287 287 287 288 291 292 292 294 295 296 295 294 294 294 293 296 294 293 291 289 286 286 285 280 279 279 279 280 280 279 280
284 284 284 283 284 284 284 284 284 284 285 285 285 285 285 286 291 293 294 292 290 290 291 291 290 288 290 292 294 295 291 288 286 286 286 282 282 281 281 279 279 277 276
282 282 282 282 282 283 283 283 284 284 284 283 283 283 283 284 290 292 292 290 289 289 288 288 287 287 286 288 290 292 293 293 292 288 286 284 282 281 281 279 279 279 279
281 281 281 281 281 281 281 281 282 282 282 282 282 282 281 282 289 290 290 288 287 287 287 287 287 287 286 285 286 286 287 287 288 288 285 284 284 283 282 282 280 280 280
282 281 281 280 280 279 279 282 283 283 279 281 281 281 280 282 288 289 288 286 286 286 286 285 286 285 286 288 285 284 284 283 287 287 287 287 287 286 284 282 280 279 276
280 280 280 279 277 278 279 281 281 279 282 282 281 280 281 283 286 287 287 285 285 285 283 283 284 285 286 287 285 284 281 281 283 283 284 286 286 285 286 284 281 279 276
278 278 277 277 276 276 277 277 278 278 280 277 280 280 278 282 282 285 287 285 285 284 282 282 282 285 287 287 287 283 282 283 285 283 282 282 283 283 282 282 282 281 277
277 279 279 274 279 277 272 275 278 282 281 282 281 280 279 281 282 284 286 287 287 282 281 281 282 284 286 287 285 286 286 284 282 281 280 280 280 280 281 281 281 281 281
272 275 279 279 280 282 280 278 276 275 280 279 279 279 278 277 276 284 285 287 286 282 282 282 284 285 286 286 286 286 283 282 281 280 279 279 279 280 279 277 275 275 274
268 272 277 279 280 281 282 280 278 272 273 275 274 275 274 274 275 278 284 284 284 282 282 281 283 285 286 285 284 284 282 282 281 280 279 279 279 278 276 275 273 273 271
267 271 274 277 280 281 281 280 279 275 277 275 276 273 272 269 273 283 283 280 278 280 276 278 281 282 282 282 282 282 282 282 281 280 279 277 276 276 275 274 272 271 270
266 269 271 272 276 279 279 278 282 284 284 285 285 281 273 280 284 285 285 285 285 283 279 278 278 279 279 279 280 279 279 279 278 278 277 276 275 274 272 271 271 269 267
262 266 268 271 276 277 276 270 272 274 282 281 282 285 284 283 284 285 286 285 285 282 276 278 278 278 278 277 277 276 274 273 274 275 274 274 273 272 270 269 268 267 266
261 264 266 270 275 277 273 269 270 268 269 273 277 279 283 285 286 286 285 281 275 274 273 273 272 273 272 272 272 272 271 271 270 270 269 269 269 267 266 266 267 264 264
262 265 267 270 273 274 272 270 270 271 268 272 273 275 273 278 278 278 277 272 270 268 268 267 267 267 267 267 267 266 266 264 264 264 264 264 264 264 262 264 264 263 262
262 265 268 270 271 272 270 271 270 268 269 270 271 270 270 270 267 266 266 266 266 265 264 263 262 262 262 262 262 262 262 262 262 262 260 259 259 261 259 258 258 258 257
263 265 266 269 268 269 271 272 271 269 269 268 269 272 272 266 263 262 261 260 261 260 260 260 259 258 258 258 259 259 258 257 255 256 254 252 252 253 251 254 249 248 248
263 264 265 266 267 270 270 271 269 268 268 266 265 266 268 264 262 260 259 258 257 256 256 256 255 254 254 254 253 254 253 251 248 246 246 245 245 244 246 247 248 247 247
263 264 264 264 267 268 267 268 267 266 265 264 263 262 261 260 259 258 256 256 256 255 254 254 253 250 248 247 246 249 250 248 247 244 246 244 244 244 244 246 246 246 248
262 263 263 263 265 265 265 264 263 263 262 261 261 260 260 259 258 257 256 256 255 252 253 252 251 249 247 245 243 241 242 242 241 243 244 244 243 244 244 244 245 246 248
261 262 262 262 263 262 262 262 261 261 260 260 260 259 258 258 257 255 254 254 253 253 250 249 247 246 245 245 244 242 243 248 242 243 241 243 244 242 242 243 243 245 246
260 261 261 261 261 261 261 260 260 260 259 259 258 257 257 256 256 255 254 253 254 250 248 246 246 246 245 244 244 247 249 255 249 248 244 244 244 241 241 243 242 244 245

GFSGL_sfc_thetae_087.txt.gz
Theta_e
293 294 295 295 296 297 297 297 298 298 299 299 300 301 301 302 304 306 308 309 308 308 306 305 304 305 304 304 302 301 300 299 296 300 300 292 288 287 288 289 290 290 291
291 292 292 292 293 293 293 294 295 295 296 296 297 297 298 299 301 300 301 303 304 304 305 303 303 303 302 303 303 300 299 299 297 295 298 288 287 287 288 286 287 288 288
289 290 290 290 290 289 290 290 291 291 292 292 293 293 295 296 298 299 300 301 302 302 303 302 302 302 300 300 300 300 297 297 297 295 295 284 285 284 284 284 285 285 286
287 288 287 288 288 288 288 288 288 288 289 289 290 289 290 291 291 293 295 298 299 300 300 300 300 299 299 299 296 296 296 294 293 293 293 291 283 282 284 282 281 283 283
286 286 286 286 286 286 286 286 286 286 287 287 287 288 288 289 289 290 291 293 293 294 295 296 297 296 293 297 295 295 293 292 292 290 290 284 282 280 280 281 281 281 282
284 284 284 284 284 284 284 284 284 285 285 285 286 286 286 287 289 291 291 290 290 290 291 292 291 288 290 292 294 295 295 290 289 290 289 288 286 283 282 280 280 278 277
284 283 282 282 282 283 282 282 283 283 284 284 284 284 285 285 288 290 290 288 289 289 289 288 288 287 287 289 290 292 292 293 295 291 288 288 286 283 282 280 281 280 279
282 281 281 281 281 281 280 280 282 283 282 283 283 283 284 284 288 289 289 288 288 288 288 288 287 287 287 287 287 286 286 287 288 290 287 287 286 285 284 283 282 281 280
282 281 281 280 279 279 278 279 280 281 282 282 283 282 282 283 286 288 288 287 286 286 287 287 286 286 287 288 286 285 285 285 287 290 290 289 289 288 285 283 280 279 277
280 280 279 279 277 277 278 278 279 279 280 282 282 282 281 281 284 286 287 286 285 285 286 285 284 286 287 288 285 285 284 283 284 284 285 286 287 286 286 284 283 281 278
277 278 279 280 278 278 279 279 278 277 280 280 280 282 280 280 281 285 286 285 284 284 285 284 284 285 286 287 288 285 284 284 285 284 284 284 284 284 284 284 285 282 280
274 274 275 278 281 281 281 281 281 279 279 279 278 279 280 280 281 284 285 286 287 284 283 283 283 284 286 287 287 286 287 285 284 283 282 282 282 282 282 283 282 282 282
269 269 271 274 277 279 282 282 282 282 280 277 277 277 278 279 278 282 284 286 286 283 283 284 285 285 286 286 286 286 284 283 282 281 281 280 281 281 279 277 276 275 274
266 268 271 272 274 277 280 281 281 281 279 278 279 279 279 277 277 278 283 284 282 282 282 281 284 285 286 285 284 284 283 283 282 281 280 280 280 279 277 277 275 275 273
266 268 270 272 272 274 277 280 281 281 281 280 281 281 280 277 278 284 284 281 280 282 278 279 282 283 283 283 283 282 283 283 281 281 280 279 278 277 276 276 274 274 273
265 268 268 269 270 272 276 279 282 282 284 283 284 283 284 281 284 285 285 285 284 283 277 278 279 280 280 280 280 279 278 278 279 280 279 278 277 276 274 273 273 273 271
260 264 266 267 268 270 274 277 274 276 282 282 281 282 285 284 285 286 286 285 283 280 275 275 275 275 276 276 275 275 274 274 276 275 275 275 275 274 273 272 271 270 269
258 261 263 266 267 269 273 275 274 272 272 272 276 279 280 281 282 285 283 279 274 273 272 271 271 271 271 271 272 272 271 271 271 271 271 271 271 271 270 270 270 268 268
260 262 264 265 267 269 272 273 273 272 271 269 270 274 273 276 276 276 276 272 270 268 268 267 267 267 267 268 268 267 267 267 267 267 267 267 267 268 266 267 266 265 264
260 261 264 265 267 268 271 272 271 271 270 270 270 270 271 270 267 266 266 267 266 265 265 264 264 264 264 264 265 265 265 264 264 263 262 263 263 265 263 263 263 263 262
260 262 263 264 265 268 270 272 271 271 270 269 268 272 271 266 264 263 262 262 262 262 262 261 261 260 261 261 262 262 261 260 259 259 259 259 259 259 258 259 258 257 257
260 262 263 263 265 267 269 271 270 270 268 267 265 267 268 264 263 261 260 259 258 258 258 259 258 257 257 257 258 259 258 256 255 255 255 254 255 254 255 256 256 255 255
261 261 263 263 265 266 267 268 268 267 266 265 264 263 263 262 261 260 258 257 258 257 257 258 257 256 255 254 254 256 257 256 255 253 254 253 253 254 254 256 254 254 255
259 260 261 262 264 264 265 265 264 264 264 263 262 262 261 260 260 259 258 257 257 256 256 256 256 255 254 252 250 249 249 249 249 250 251 253 253 251 253 252 253 253 254
258 259 260 261 261 263 263 263 262 262 262 262 261 260 260 260 259 258 257 257 256 256 255 255 254 253 251 248 248 247 247 253 248 247 248 251 251 250 250 251 251 252 252
258 259 259 260 260 261 261 261 261 261 260 260 260 259 259 259 258 258 257 256 256 255 254 253 252 249 249 249 249 249 249 254 251 248 249 251 251 250 249 250 248 252 252

GFSGL_sfc_thetae_093.txt.gz
Theta_e
300 300 300 299 300 299 299 298 298 299 298 298 298 299 300 300 301 302 303 304 304 305 306 306 305 307 307 307 307 307 305 304 300 303 305 306 298 295 293 294 294 294 294
299 299 298 298 298 297 296 296 296 296 297 297 297 297 297 297 298 298 298 299 299 300 301 302 301 301 302 303 304 303 304 304 301 298 302 302 299 295 296 293 292 291 291
297 296 295 295 295 294 294 295 295 295 295 295 295 294 294 295 294 295 295 295 296 297 297 297 297 297 296 297 299 299 300 301 301 298 298 300 301 288 288 287 288 289 289
295 294 293 293 293 293 293 293 293 293 293 292 293 292 292 292 293 292 291 292 293 293 294 294 294 293 294 295 295 295 295 295 296 296 296 296 297 288 286 286 286 286 287
293 293 292 292 291 291 291 290 290 290 290 290 289 290 290 290 290 289 289 290 290 290 291 290 291 290 289 291 291 291 291 291 291 291 292 293 293 286 285 286 285 287 285
291 290 290 289 289 289 288 288 288 288 288 288 288 288 288 288 290 290 289 288 288 288 288 289 290 289 290 290 291 292 292 289 288 288 288 288 289 291 290 287 285 281 282
290 288 287 287 287 287 286 286 286 286 287 286 287 287 287 288 289 289 289 287 287 288 288 288 288 288 288 288 289 290 290 290 291 288 286 287 287 288 288 286 284 282 283
288 287 286 286 285 285 284 284 285 285 285 285 285 285 286 286 288 288 288 286 287 287 287 287 286 287 287 286 287 286 286 287 287 287 287 286 286 287 287 287 285 284 283
286 286 285 284 283 283 281 283 284 284 284 284 284 284 284 284 287 287 287 285 285 285 286 286 286 286 288 289 286 285 285 286 288 290 290 290 290 290 289 285 283 282 280
284 283 283 283 282 282 283 283 284 284 284 284 284 285 284 283 286 286 286 284 283 284 285 285 286 288 288 287 285 284 283 284 285 285 285 286 286 286 287 285 284 282 279
282 282 281 281 280 281 282 283 283 283 284 284 284 285 285 284 284 286 286 284 283 283 284 284 286 286 286 287 287 285 285 286 286 284 285 284 284 284 284 284 283 283 282
279 279 278 278 279 280 279 281 282 283 283 283 284 284 285 285 285 286 286 286 286 285 284 284 284 285 286 287 286 287 287 285 284 284 284 283 282 279 279 278 278 277 278
275 274 276 277 278 279 279 279 280 282 282 282 282 283 283 284 284 286 286 286 286 284 284 284 285 285 286 286 286 285 284 284 284 283 281 280 280 280 280 279 278 277 275
273 274 275 276 277 278 279 279 280 280 281 281 281 282 282 283 283 284 284 284 285 284 284 284 285 286 286 285 283 284 284 284 283 282 281 281 281 279 278 279 277 277 274
272 273 275 276 276 276 277 278 278 279 280 279 280 282 281 281 282 285 285 284 285 285 283 283 282 283 282 282 282 281 281 282 282 283 281 280 279 278 277 278 277 276 274
270 273 274 272 274 274 275 275 279 280 281 282 284 283 283 285 284 284 286 286 285 284 282 280 279 279 279 279 279 279 278 277 278 280 279 279 277 276 276 276 276 275 273
266 268 270 271 272 272 273 273 272 276 279 281 282 283 284 285 283 283 284 284 281 282 280 278 277 277 277 277 276 276 275 275 276 276 276 276 276 276 275 274 274 273 271
263 265 267 269 270 271 271 272 272 272 272 274 279 281 282 283 281 281 282 282 280 277 275 274 273 273 274 274 274 273 274 274 273 273 273 273 274 274 273 272 272 271 270
265 267 268 269 269 269 270 270 271 272 272 274 276 279 280 280 279 277 278 279 278 274 273 271 270 271 272 272 271 271 270 269 269 270 270 270 270 271 269 269 267 267 268
265 265 265 266 267 268 269 270 270 271 272 274 276 277 277 275 274 274 273 274 273 272 271 270 269 269 269 269 269 269 268 268 267 267 267 267 267 267 266 265 264 264 262
265 266 265 266 267 268 269 269 269 270 271 273 275 274 276 272 273 271 269 269 269 269 268 267 266 265 265 265 266 265 264 265 263 263 263 262 262 261 261 261 259 257 257
264 266 266 266 267 267 268 269 268 270 272 273 273 271 271 269 268 267 266 265 264 264 265 265 264 262 262 262 262 264 262 260 260 259 258 257 258 258 258 258 257 256 255
265 265 265 266 267 267 268 269 269 270 270 271 270 269 268 267 266 265 264 264 264 263 263 263 263 261 260 260 260 259 259 259 257 256 257 257 256 255 255 255 254 254 254
264 264 265 265 265 265 266 266 267 267 267 267 267 266 266 265 265 264 263 263 263 262 262 261 261 260 259 259 259 258 257 255 254 253 253 254 254 253 254 252 253 252 253
263 263 263 263 263 263 264 265 265 265 265 265 265 265 264 264 264 263 263 263 262 262 262 261 260 260 259 258 257 256 255 257 252 252 250 251 251 250 250 251 251 252 252
262 262 262 262 262 262 262 262 263 263 263 264 263 263 263 263 263 263 263 262 261 261 261 261 260 259 259 258 257 258 256 257 252 252 250 251 251 250 250 250 249 251 251

GFSGL_sfc_thetae_096.txt.gz
Theta_e
295 295 295 294 295 294 293 293 293 294 294 294 294 294 294 294 294 294 294 295 295 295 296 296 297 298 298 299 300 300 301 302 299 301 304 304 303 298 297 296 297 297 298
295 294 293 293 292 292 291 292 292 292 292 292 292 292 292 292 292 291 291 291 291 291 293 293 293 295 293 295 296 296 296 298 297 295 298 298 299 301 301 296 296 295 294
293 292 291 290 290 290 290 290 291 290 290 290 290 289 289 290 289 290 289 289 290 290 290 290 290 291 290 291 292 292 293 294 295 293 293 296 297 298 295 290 290 292 290
291 290 289 289 289 289 289 289 288 288 288 288 288 287 287 287 288 287 287 287 288 288 289 289 289 288 289 288 288 288 289 290 290 290 290 291 293 293 286 287 289 287 289
290 289 288 288 288 287 286 286 285 284 286 285 284 284 285 286 287 286 285 286 285 286 286 287 287 287 289 289 288 287 287 286 287 287 287 288 288 289 289 290 286 290 289
287 286 286 285 285 284 284 284 283 283 283 283 283 283 283 285 289 290 289 285 284 284 284 285 285 287 288 289 290 290 289 286 286 286 285 285 286 287 288 287 287 286 285
284 284 284 284 283 283 283 282 282 282 282 282 282 282 282 282 288 289 288 285 284 283 284 285 285 285 286 286 287 288 287 288 289 287 285 285 284 285 285 284 285 285 285
284 283 282 282 281 282 281 280 281 281 280 280 281 281 281 282 287 288 287 284 283 283 283 285 285 285 286 285 286 285 285 285 285 286 286 286 286 287 286 285 285 284 282
283 282 282 281 279 279 276 278 279 278 278 277 280 278 278 283 286 286 286 284 283 283 284 285 285 285 286 288 285 283 284 284 287 288 289 289 289 288 288 285 283 281 278
282 282 281 280 276 276 278 277 277 276 281 281 283 284 283 284 286 286 285 284 282 282 284 284 285 286 286 286 284 283 282 284 285 285 284 285 285 284 285 283 283 279 278
280 279 278 278 275 275 275 276 274 275 278 275 279 280 284 281 280 287 287 284 283 282 283 283 283 285 286 287 287 284 285 285 284 283 283 279 279 278 278 277 278 277 278
276 276 273 271 274 275 269 269 270 271 272 274 274 278 278 279 284 286 286 286 286 283 283 283 283 285 286 287 285 287 286 284 283 280 277 277 277 276 276 276 276 275 276
271 267 267 268 270 270 267 268 270 269 270 274 275 277 279 281 284 286 286 286 286 284 284 284 285 286 287 286 285 286 283 280 278 276 276 276 278 278 279 277 276 276 275
265 267 268 267 267 268 272 273 267 267 271 273 275 276 278 280 282 283 283 284 284 284 285 283 284 285 286 284 282 281 281 281 279 277 276 278 279 277 276 277 275 275 274
266 268 267 268 266 268 269 269 271 271 272 272 277 278 278 278 281 284 284 283 284 285 284 282 281 280 280 279 273 274 275 276 277 278 278 278 277 276 275 276 276 274 272
265 267 266 266 266 268 268 270 276 278 279 280 281 280 280 283 284 285 286 284 285 286 275 278 278 278 277 277 269 269 270 272 275 275 275 276 275 274 274 273 273 271 269
262 263 263 265 264 264 264 266 268 271 276 277 279 280 281 282 283 285 284 283 284 283 277 276 277 276 276 271 268 269 269 272 271 272 272 272 273 272 272 272 272 270 268
256 261 259 260 260 261 262 262 264 267 267 269 275 277 279 281 282 282 282 281 277 274 275 273 271 272 269 267 267 268 269 269 269 268 269 270 270 270 269 268 268 267 265
258 259 259 259 259 261 261 264 266 267 268 269 271 274 275 280 280 280 281 274 273 271 271 271 271 270 269 267 266 266 265 264 265 265 265 265 266 265 264 264 265 265 264
255 259 259 257 257 258 261 264 265 266 267 267 268 270 272 267 265 267 266 268 269 269 270 270 269 268 267 266 264 263 262 263 263 262 262 261 262 262 262 260 260 260 259
255 256 259 257 257 258 259 261 265 265 266 266 268 272 277 268 267 262 264 265 265 266 267 267 266 265 264 264 262 260 259 260 259 259 258 257 257 257 256 258 256 255 254
255 255 256 256 257 258 260 261 263 264 266 267 268 267 273 264 265 262 262 263 263 264 264 264 263 262 261 261 260 260 259 258 257 257 257 257 256 254 254 254 253 252 250
256 256 255 255 256 258 258 257 260 260 262 260 265 263 260 261 262 262 262 263 263 263 263 263 263 262 261 260 259 259 259 258 256 256 255 254 253 252 250 250 249 249 249
254 255 255 255 254 255 254 256 258 259 258 258 258 259 259 259 261 262 263 263 263 262 262 262 262 261 260 259 258 257 257 257 255 255 252 252 252 251 249 247 248 248 249
253 254 254 254 253 253 253 253 255 254 254 257 256 256 257 259 260 261 262 262 262 262 262 262 261 261 260 260 259 258 257 258 254 254 251 251 251 249 246 246 247 248 248
253 253 252 252 252 252 252 253 252 254 255 255 255 255 256 258 259 261 262 262 262 262 262 262 261 261 260 260 260 259 259 260 256 256 253 253 251 247 245 246 246 247 247

GFSGL_sfc_thetae_099.txt.gz
Theta_e
295 294 293 293 292 292 292 291 291 291 291 291 291 291 291 291 291 291 290 290 289 289 290 290 291 292 292 292 293 293 294 294 291 293 295 296 296 296 296 298 299 299 300
293 292 291 291 290 290 289 289 289 289 289 289 289 289 289 289 289 289 287 287 287 287 288 289 288 290 288 289 290 291 291 292 291 288 291 292 292 294 294 294 295 297 296
291 290 289 289 288 288 288 288 288 287 287 287 287 287 287 287 287 287 287 287 287 287 287 286 287 287 285 287 288 287 288 289 289 287 287 290 290 292 291 292 292 293 293
289 288 287 287 287 287 286 286 286 286 286 285 285 285 285 285 286 285 285 285 285 285 286 285 285 285 286 286 286 286 286 286 286 285 286 287 288 289 290 288 288 290 289
288 287 286 286 286 285 284 284 284 284 284 284 283 283 283 284 285 285 284 284 283 283 283 283 285 286 287 288 286 286 286 285 285 284 284 284 284 285 284 286 286 286 287
286 285 285 284 283 283 283 283 283 283 283 282 282 282 282 283 287 288 287 285 284 282 282 284 285 285 286 287 288 288 288 285 284 283 283 282 283 284 285 284 284 282 281
284 283 283 283 283 283 282 282 282 282 281 281 281 281 281 281 287 287 286 285 284 282 283 283 284 284 285 285 286 288 287 287 287 285 283 283 283 284 285 283 283 283 282
283 282 282 282 282 282 281 280 281 281 280 280 280 280 280 281 287 286 286 284 284 284 284 284 284 284 285 285 285 284 284 284 285 285 284 285 286 286 285 284 283 284 283
283 282 282 281 280 279 277 278 279 278 277 276 279 276 278 279 286 287 286 284 284 283 284 284 284 284 286 286 284 283 283 284 287 288 288 288 287 285 284 280 278 279 275
282 282 281 280 278 276 277 276 277 275 279 279 279 276 276 277 285 287 286 284 283 283 284 284 284 285 286 286 284 284 282 283 281 283 283 284 280 278 280 276 275 276 274
281 280 279 279 276 276 275 276 273 271 273 268 273 275 275 277 279 286 287 284 283 283 283 283 283 285 286 287 287 283 283 285 283 282 278 273 272 273 275 275 275 275 274
279 278 276 273 275 275 268 268 267 266 267 269 270 272 274 276 280 284 287 286 285 283 282 283 283 286 286 287 285 286 286 284 278 270 268 270 271 273 275 276 276 275 275
276 273 270 270 271 270 265 266 267 265 266 268 270 272 274 275 276 283 285 285 285 283 284 285 286 285 286 285 285 284 282 281 269 267 268 270 274 276 277 276 276 276 275
272 273 272 269 266 265 270 270 265 264 264 267 266 274 276 277 277 281 282 283 283 284 284 285 284 284 284 283 280 279 278 275 278 278 272 273 275 273 274 276 275 275 273
272 271 268 266 264 265 267 266 268 268 268 263 266 270 274 276 277 282 283 282 283 283 283 282 277 279 279 279 275 271 273 274 274 275 274 274 274 273 273 273 273 271 269
269 268 266 265 264 266 265 265 273 275 277 278 279 278 274 280 281 282 283 284 286 285 281 279 275 276 276 276 274 272 272 272 273 273 272 271 271 271 271 271 270 268 267
265 264 263 265 263 263 262 261 261 266 274 275 276 278 278 279 281 282 283 283 284 282 278 278 277 274 273 272 271 272 271 271 271 270 268 268 270 270 269 269 270 268 265
260 262 260 259 259 258 259 259 258 259 260 262 270 274 276 278 280 281 281 280 269 270 269 274 275 271 271 271 270 270 269 269 268 266 266 265 264 265 265 264 266 264 263
261 259 258 257 257 258 258 259 259 259 260 262 263 269 270 275 278 277 276 266 269 269 267 269 271 270 270 270 269 269 268 266 263 262 262 262 262 262 261 261 263 263 263
254 258 257 255 255 256 257 258 259 259 259 259 261 264 266 265 260 258 258 259 259 264 266 265 266 267 267 267 266 266 265 263 260 260 259 259 259 260 260 259 258 258 256
255 255 257 254 254 254 255 256 258 258 258 258 261 265 274 270 259 256 255 256 257 259 261 263 263 264 264 264 264 264 263 262 259 258 257 257 256 257 256 258 255 254 254
257 256 256 256 257 257 256 257 257 257 258 260 261 260 270 258 256 256 256 255 257 259 261 261 261 262 262 262 262 262 262 261 259 258 257 257 256 255 255 256 254 252 249
257 257 256 255 255 255 254 252 253 254 254 255 255 257 255 254 254 255 255 254 257 259 260 261 262 262 262 261 261 260 260 260 258 258 259 256 256 255 254 253 249 249 248
256 255 255 252 252 252 252 252 252 254 253 252 251 253 255 253 253 254 256 255 257 258 260 261 261 261 261 260 260 259 259 258 258 257 256 257 257 255 254 250 248 247 248
252 252 252 252 251 252 251 250 251 250 250 251 253 252 252 252 253 253 255 257 259 259 260 261 261 261 261 261 260 260 259 261 258 256 255 256 256 254 253 249 247 247 248
252 253 253 253 252 250 250 250 250 250 250 252 252 253 253 254 254 254 256 260 261 261 261 262 261 261 261 261 261 261 261 261 259 258 255 255 255 253 251 248 246 248 249

GFSGL_sfc_thetae_102.txt.gz
Theta_e
294 294 293 292 292 291 291 290 290 289 289 289 289 289 288 288 289 288 287 287 287 287 287 287 287 288 287 287 288 288 288 288 286 288 290 291 290 290 291 292 292 292 293
292 291 291 290 290 289 288 288 288 288 287 287 287 287 287 287 287 286 285 286 285 285 285 285 285 287 285 286 287 288 288 288 286 284 286 287 287 289 290 289 290 292 292
291 290 289 288 288 287 286 287 287 286 286 285 286 285 285 285 285 285 285 285 284 284 284 283 283 283 285 286 286 286 286 287 286 285 284 286 287 288 287 288 288 288 289
289 288 287 286 286 286 285 285 285 285 284 284 284 283 283 283 284 284 285 284 284 283 284 283 283 285 285 285 285 284 285 285 284 284 283 283 284 286 286 284 283 286 285
287 287 286 285 285 284 283 283 283 283 283 283 283 282 282 283 284 284 284 284 284 283 282 283 285 285 286 286 285 285 285 284 284 283 282 283 283 283 282 284 283 284 284
286 285 285 284 283 282 282 283 283 283 282 282 282 282 281 283 287 287 286 284 284 283 282 283 284 285 285 286 287 288 287 285 283 282 282 281 282 282 283 283 281 280 278
284 283 283 282 282 283 283 283 282 282 282 281 281 281 281 281 286 286 286 284 283 283 283 283 283 284 285 285 286 287 286 287 287 285 282 282 282 284 283 281 280 280 280
283 283 282 283 282 282 281 281 281 281 281 281 281 280 280 281 286 287 287 284 284 284 284 284 283 284 284 284 284 284 284 284 284 285 284 284 285 284 281 280 278 277 279
283 283 282 282 281 280 279 279 280 279 278 277 279 276 275 279 284 287 285 283 282 282 282 284 284 283 285 286 284 283 284 283 285 287 287 287 286 283 282 274 272 272 274
283 283 282 281 280 279 279 279 278 277 278 278 278 276 275 273 281 286 286 280 279 280 282 283 284 285 285 286 284 284 281 281 284 283 283 280 277 276 279 271 273 269 270
282 281 280 279 278 278 278 278 276 274 275 270 273 272 271 273 275 285 286 281 280 282 282 282 283 286 286 286 287 283 282 285 283 280 272 270 270 271 273 274 274 273 268
281 279 278 277 279 277 276 274 273 272 269 268 267 268 271 273 279 282 284 285 285 282 282 283 283 286 287 286 286 286 285 283 278 268 266 268 273 274 275 274 273 273 274
279 277 276 276 276 275 273 273 272 268 268 267 268 266 268 272 272 281 283 284 284 282 283 284 286 286 287 285 285 284 280 277 279 272 274 274 274 273 274 274 273 273 273
277 276 275 274 273 273 274 273 269 267 264 266 264 264 266 271 272 274 277 281 283 283 283 282 282 285 285 284 279 278 277 273 274 277 277 271 271 270 270 273 271 272 269
276 274 274 274 273 271 271 270 270 267 268 263 263 264 265 268 276 281 281 281 281 283 283 276 270 271 273 275 273 272 270 272 272 273 271 272 271 272 271 272 271 269 267
274 273 273 271 270 270 269 269 273 275 277 277 278 274 268 278 280 281 282 283 283 284 279 276 276 272 276 275 272 271 271 271 272 272 270 269 267 268 270 270 269 266 264
275 272 270 270 269 267 267 266 263 265 273 274 275 276 277 277 279 280 281 281 280 279 270 266 269 273 275 274 270 270 270 272 271 270 267 267 269 268 268 268 268 267 264
270 270 269 267 267 264 264 263 263 262 259 259 268 272 274 276 277 279 278 273 264 265 259 262 267 270 268 268 268 268 269 270 270 268 266 264 263 264 263 262 264 262 261
266 264 264 263 263 263 262 262 260 258 257 257 257 266 266 274 275 274 273 258 257 258 259 262 262 263 263 264 266 267 266 266 267 264 262 261 261 261 260 259 260 262 262
263 264 263 261 259 259 259 259 259 259 258 257 258 259 259 261 258 254 254 253 253 253 255 257 259 258 259 261 263 263 264 263 262 260 260 259 260 260 261 258 258 259 257
261 261 260 258 257 257 258 258 258 256 257 256 258 261 272 262 256 252 252 252 252 252 253 254 255 257 258 259 261 262 261 262 260 259 258 258 259 260 259 260 258 255 255
260 260 258 258 257 258 256 257 257 256 255 255 256 257 268 256 253 253 253 252 252 253 254 254 255 258 259 260 261 261 262 261 258 258 258 258 257 258 258 258 256 256 255
260 258 258 254 256 255 253 252 253 252 252 252 253 254 253 252 251 251 252 252 251 253 254 255 256 257 259 261 261 261 260 260 260 257 257 257 257 256 255 256 255 253 254
259 259 259 256 255 254 254 252 251 252 252 251 250 250 252 251 250 251 252 252 251 252 253 254 255 256 257 260 261 260 260 259 258 258 258 258 258 256 255 255 256 255 255
257 258 258 257 255 255 253 251 252 251 251 252 250 250 250 250 250 250 251 251 252 254 255 255 256 257 258 259 261 261 260 262 262 259 257 257 257 256 256 255 255 254 253
256 256 255 253 252 252 254 255 256 256 256 255 255 252 250 250 251 251 252 252 254 255 255 255 256 258 259 260 261 262 262 263 262 260 258 257 256 256 255 254 254 254 254

GFSGL_sfc_thetae_105.txt.gz
Theta_e
294 294 294 293 294 293 291 290 290 289 289 288 288 287 287 287 287 286 286 285 285 285 285 284 284 285 284 284 285 285 285 285 283 285 286 288 287 287 288 289 290 289 290
292 292 291 291 291 290 289 288 288 287 287 286 286 286 286 286 285 285 284 284 283 283 283 283 282 285 285 285 285 285 286 286 284 282 285 285 286 287 287 286 287 288 286
290 290 289 288 288 287 287 286 286 285 285 285 285 284 284 284 284 284 284 283 283 282 282 282 282 284 282 283 285 285 285 285 285 283 282 285 285 286 284 284 284 284 287
288 288 287 287 287 286 286 285 285 285 284 284 283 283 283 283 284 284 284 283 282 282 283 283 284 284 284 284 284 284 284 284 284 283 283 283 284 284 283 283 282 283 282
288 287 286 285 285 284 284 284 283 283 283 283 282 282 282 283 284 283 284 283 283 282 283 284 284 284 285 286 284 284 284 284 283 281 281 282 282 281 281 283 281 281 280
286 285 284 284 284 283 283 282 282 282 282 282 282 282 281 283 288 287 285 283 282 282 282 283 284 284 285 286 286 287 286 283 281 281 282 281 281 282 284 281 279 277 276
285 284 284 283 283 283 282 282 282 281 282 281 281 281 280 282 287 286 286 283 282 282 282 283 283 283 284 284 285 286 286 287 287 284 282 282 281 282 281 279 278 276 275
284 284 283 282 282 281 281 281 281 281 281 280 281 281 281 282 286 286 287 283 282 282 282 282 283 283 284 283 283 283 284 284 285 284 284 284 284 283 281 279 276 270 274
284 283 283 282 281 281 280 280 280 280 278 278 280 279 279 280 284 286 286 282 282 282 282 282 283 283 285 286 284 282 283 284 284 287 287 286 285 283 282 268 270 265 267
284 284 283 282 282 281 280 279 279 278 279 280 280 279 277 275 281 285 286 280 275 279 280 282 283 284 285 286 284 283 283 282 283 283 282 281 278 276 280 270 273 269 263
284 282 281 281 281 280 279 278 277 277 278 277 277 276 276 275 276 284 285 281 279 276 276 277 280 285 286 287 287 283 283 284 282 280 278 271 270 270 272 272 272 272 266
283 282 280 279 280 279 278 277 277 277 276 275 275 275 275 275 278 281 283 284 283 275 275 279 279 285 286 286 286 286 286 283 280 276 271 271 275 276 275 272 273 274 274
281 280 278 278 278 277 277 275 275 275 275 274 274 273 272 274 274 280 281 283 283 279 279 282 285 286 286 284 285 286 281 277 275 278 278 277 275 273 272 270 269 272 273
281 278 277 277 276 276 277 276 275 274 274 274 273 272 272 272 273 274 275 275 279 280 281 281 281 284 283 282 278 280 274 271 269 269 271 272 271 270 269 269 268 270 270
280 277 277 276 276 275 274 274 274 274 274 272 271 270 269 269 273 279 277 275 274 277 278 270 270 269 269 273 271 272 270 268 268 269 268 268 270 269 268 268 268 267 266
277 276 276 275 274 273 273 271 275 276 278 279 279 274 271 277 279 280 281 282 282 281 275 273 266 266 269 271 271 271 267 267 266 268 266 267 268 266 266 268 268 266 264
279 276 274 273 273 272 272 271 269 270 275 276 276 276 277 277 278 279 280 279 277 273 260 259 260 264 267 269 270 270 267 266 265 265 265 264 264 265 267 267 268 267 264
277 275 274 273 272 271 270 270 269 269 268 266 270 272 274 275 277 278 276 270 259 259 255 255 257 261 264 265 265 266 264 265 268 268 267 265 261 262 265 264 265 263 262
275 274 273 272 270 269 267 266 266 266 265 263 260 266 265 273 275 273 271 256 255 253 253 253 254 256 258 259 261 261 262 263 264 264 265 263 260 261 263 262 263 264 263
272 270 269 268 266 265 265 265 264 263 262 262 260 260 258 260 258 255 253 251 250 251 251 251 252 252 253 254 256 257 258 260 261 262 263 262 261 260 263 261 262 262 258
267 266 266 265 264 264 264 264 264 262 262 260 260 261 268 261 257 253 252 250 251 250 251 250 251 251 251 253 253 255 256 258 259 260 260 259 258 258 259 261 261 258 256
264 263 263 263 262 261 261 261 261 261 260 260 259 258 271 255 253 252 251 251 251 250 250 251 251 250 251 252 252 253 254 255 257 259 260 259 258 257 258 260 259 259 258
264 263 261 256 259 258 259 258 258 258 256 256 255 256 252 252 251 252 252 250 249 250 250 250 251 252 251 252 253 254 253 254 257 258 259 259 258 258 258 258 259 257 256
263 263 262 261 260 259 259 256 255 255 255 255 253 252 254 253 252 252 251 249 249 249 249 251 252 254 253 253 252 252 253 254 258 258 259 259 259 259 258 257 258 258 258
263 263 263 261 262 261 260 256 256 255 254 254 253 253 254 255 255 255 253 250 248 249 252 252 253 254 255 255 255 254 254 261 261 261 259 258 258 258 258 258 257 257 257
263 263 263 262 261 259 257 256 255 255 255 255 256 256 256 256 257 255 251 249 251 252 252 252 253 255 255 256 256 258 258 263 262 262 260 258 258 257 258 257 257 256 256

GFSGL_sfc_thetae_108.txt.gz
Theta_e
300 299 300 299 299 298 297 295 293 291 289 288 287 287 287 286 286 285 285 285 284 283 283 283 283 283 282 283 283 283 282 283 281 283 284 286 285 285 286 286 286 286 286
296 297 295 295 295 293 292 290 291 288 287 287 286 286 286 285 285 285 284 283 283 283 282 282 281 284 282 282 283 282 282 284 283 281 283 284 284 284 284 283 285 286 284
294 294 293 292 291 290 288 287 287 286 286 285 285 285 284 284 284 284 283 283 282 282 281 281 282 282 281 282 282 281 283 285 284 283 282 283 283 283 284 283 283 283 284
292 292 290 290 289 287 287 286 286 285 285 284 284 283 284 283 284 284 283 282 282 282 282 283 283 283 282 282 282 281 283 283 283 283 282 282 283 284 283 281 280 282 280
290 290 288 287 286 286 285 285 284 284 283 283 283 282 283 283 284 283 283 283 282 282 282 283 283 283 285 285 283 283 284 283 282 281 281 281 281 281 281 282 280 280 279
289 288 286 285 285 284 284 284 283 283 283 282 282 282 282 284 289 287 284 283 283 282 282 282 283 283 284 285 286 286 286 283 282 282 282 280 281 281 282 279 279 276 274
286 284 284 284 284 284 283 283 282 281 281 281 281 281 281 283 288 287 286 283 282 282 282 282 282 282 282 283 285 286 285 286 287 284 281 281 282 282 280 277 277 275 272
285 285 283 283 283 282 282 281 281 281 280 280 280 281 281 283 288 287 286 283 282 282 282 282 282 282 282 283 283 283 283 284 284 284 283 284 284 283 280 276 272 267 270
284 284 284 283 282 281 281 281 280 280 279 279 280 279 280 281 286 287 286 283 283 283 283 282 281 281 284 286 284 282 280 283 286 287 287 286 286 284 281 267 268 270 264
285 285 284 283 283 282 281 280 279 280 280 280 280 278 279 279 283 286 286 283 280 281 281 282 282 283 285 286 281 277 275 276 282 281 282 282 278 275 280 270 271 270 263
286 284 283 282 282 282 281 279 279 279 279 277 277 277 277 278 280 284 286 283 281 279 279 279 280 284 285 286 286 282 277 282 282 279 278 275 272 270 271 272 273 271 265
284 283 282 282 282 281 280 278 278 278 276 275 276 276 277 277 279 283 284 285 284 277 277 279 279 284 286 286 283 285 286 284 278 278 278 278 277 276 273 271 270 273 273
284 283 282 281 280 280 279 277 277 277 277 275 276 276 276 276 277 281 283 283 283 280 280 281 284 285 285 283 283 283 281 273 272 268 273 278 279 274 270 269 267 269 272
283 281 280 279 278 278 278 278 277 276 276 276 276 276 275 275 275 276 277 275 278 280 281 278 281 283 281 279 273 276 275 278 275 270 267 269 269 267 268 268 267 266 264
281 279 279 279 278 277 277 277 277 277 278 277 277 276 274 273 275 277 276 273 273 276 275 270 271 269 268 269 267 266 267 270 271 266 265 266 267 268 268 266 265 262 263
279 279 279 278 277 276 275 274 278 278 279 279 279 276 274 277 279 281 282 282 282 280 267 265 264 265 266 266 265 266 265 266 269 267 264 264 265 269 270 266 264 263 263
281 279 278 278 276 275 274 273 272 274 279 281 280 280 279 277 280 280 281 281 277 273 262 260 261 261 261 264 263 264 266 265 266 265 265 266 267 267 267 266 265 266 264
281 280 278 277 276 275 275 274 274 272 271 270 277 277 278 279 279 280 279 273 264 262 258 257 257 256 257 258 259 260 261 261 263 264 264 264 264 263 264 264 264 260 261
279 278 279 277 276 275 274 274 273 272 271 269 266 272 274 277 278 277 275 262 261 257 255 253 253 252 254 254 254 255 257 259 260 259 261 261 260 261 264 264 262 264 262
278 278 276 275 273 273 272 271 270 269 269 268 267 268 265 265 266 260 255 254 253 255 254 251 251 249 250 251 251 252 253 254 256 256 258 259 260 261 263 262 262 260 260
276 274 274 272 272 271 270 270 269 268 268 267 267 266 268 264 264 260 257 254 255 254 254 252 250 249 249 249 249 250 251 253 254 254 256 258 259 258 259 261 261 260 258
272 270 270 271 270 269 269 267 266 266 266 265 262 261 274 262 259 258 257 255 254 253 252 251 251 251 251 251 251 250 251 251 251 253 254 257 257 259 259 260 260 260 260
269 268 267 266 266 265 262 262 263 264 263 262 260 261 257 259 258 257 256 254 251 251 250 250 252 252 251 251 252 254 252 252 252 252 253 256 258 258 259 259 260 259 259
267 267 267 265 264 263 263 263 262 262 261 260 259 259 259 257 255 255 253 251 248 248 248 250 252 253 252 251 250 250 252 252 250 253 254 255 257 258 258 258 259 259 259
267 267 266 265 264 264 262 262 261 260 261 261 259 258 256 254 253 252 251 250 250 252 255 254 254 253 254 254 253 252 252 259 255 255 255 256 255 256 258 258 258 258 258
265 266 266 265 265 264 264 263 263 261 261 260 259 258 257 255 255 254 254 254 255 256 255 255 256 255 253 254 254 256 256 260 257 257 258 257 256 255 258 257 257 257 257

GFSGL_sfc_thetae_111.txt.gz
Theta_e
304 305 308 310 309 306 305 301 299 295 293 292 291 290 289 289 289 289 288 288 287 287 287 287 286 287 287 287 287 287 286 286 283 285 287 288 287 287 287 289 289 288 288
301 301 301 301 301 301 300 297 295 292 292 290 290 289 288 288 288 288 287 287 286 286 285 285 285 285 285 286 286 285 285 286 284 282 285 285 285 287 287 287 287 286 287
297 298 296 296 298 297 294 293 292 290 289 288 288 287 287 287 287 287 286 286 285 285 285 284 284 285 284 285 285 285 285 285 285 283 283 285 286 287 286 286 286 286 285
295 295 294 293 294 293 291 290 289 289 288 287 287 286 286 286 286 286 285 285 284 284 284 285 285 284 284 285 284 285 285 285 284 284 283 284 285 286 286 284 282 284 283
292 293 292 291 291 289 288 287 287 287 286 286 285 285 285 286 285 285 285 284 284 283 284 284 285 285 285 286 285 285 285 284 284 283 283 283 283 283 282 283 281 282 282
291 292 289 288 287 287 286 285 286 285 285 285 284 284 284 285 288 287 285 284 284 283 283 284 284 284 285 285 285 286 286 284 283 283 283 281 281 283 284 281 280 278 277
290 287 287 286 286 286 285 285 284 284 284 283 283 283 284 286 289 288 286 284 284 284 283 283 283 283 284 284 285 285 285 286 287 286 282 282 282 284 282 279 279 277 277
286 286 285 286 285 284 284 284 283 283 283 282 282 283 284 285 289 288 286 284 284 284 284 284 284 284 284 284 284 284 284 284 285 285 285 285 285 285 283 280 277 275 276
286 286 286 286 284 283 283 282 282 282 282 282 282 282 283 284 288 288 286 284 283 283 284 284 284 284 284 285 284 281 282 283 286 287 287 286 285 284 283 279 277 274 275
287 286 285 285 285 284 284 282 282 283 282 282 282 282 282 283 288 288 287 284 283 283 283 283 282 283 285 285 283 283 282 283 281 284 284 283 280 279 280 278 277 274 273
287 285 284 284 285 284 283 282 282 282 281 281 281 280 280 281 283 287 288 284 284 283 282 282 283 284 285 285 286 284 283 284 284 284 282 280 280 278 278 278 277 276 273
285 284 284 284 284 283 283 281 281 281 280 279 278 277 278 279 281 286 287 287 286 283 281 282 282 284 284 286 286 285 285 284 282 280 280 279 281 280 280 279 277 276 277
284 284 283 283 283 283 282 280 280 280 279 278 278 277 277 278 279 283 285 286 286 282 282 282 283 284 285 284 283 283 279 280 280 277 277 277 279 280 278 276 275 273 276
283 283 282 282 281 281 282 281 280 279 278 278 278 278 278 277 277 279 280 283 283 283 283 282 282 283 282 280 276 277 276 277 278 278 276 275 275 275 276 276 274 274 272
282 280 280 281 280 280 280 280 280 281 281 279 280 280 278 277 278 280 279 278 278 279 278 277 278 275 275 274 273 272 273 273 273 275 274 273 273 273 273 274 273 271 271
279 279 280 280 280 279 278 277 280 281 283 283 282 281 278 280 282 282 282 282 282 283 276 274 273 272 272 271 270 270 271 270 272 272 271 271 271 271 271 272 272 270 270
279 279 280 279 279 278 277 277 275 278 281 282 282 282 281 280 281 282 283 283 283 280 273 270 270 270 269 268 268 268 268 269 268 269 270 269 270 269 270 270 271 270 270
277 278 279 280 279 278 278 278 278 275 275 276 282 282 282 281 281 282 282 282 275 271 268 268 267 266 265 265 265 265 265 266 266 268 267 267 266 267 267 268 268 267 268
280 279 280 280 279 279 278 277 277 276 277 276 272 280 280 281 281 281 282 273 272 268 265 263 263 263 263 262 262 262 262 263 264 264 264 264 263 264 265 266 266 265 265
276 276 278 278 277 277 277 276 276 276 276 274 272 274 270 274 275 276 276 267 265 265 263 262 261 260 260 260 260 260 260 261 262 262 262 262 262 262 263 263 264 264 264
273 275 276 278 277 277 276 276 275 276 275 274 273 272 273 272 273 272 268 263 263 263 262 261 259 258 258 257 257 258 258 260 259 260 260 261 260 260 261 262 262 262 262
270 272 275 276 276 276 276 276 276 275 274 273 271 269 276 270 269 267 265 264 261 260 260 260 259 258 257 257 257 258 258 258 258 258 259 258 259 260 260 261 261 262 262
268 267 270 271 271 270 268 269 270 271 271 271 269 267 270 271 267 265 263 261 259 258 257 256 257 257 256 255 256 258 258 258 258 258 258 258 258 259 259 260 260 260 261
264 264 269 267 268 268 268 268 268 268 266 265 264 265 266 265 264 263 262 259 258 256 256 255 256 257 257 256 256 255 256 257 256 256 257 257 257 257 258 258 259 259 260
262 263 267 269 268 268 268 267 265 265 264 264 262 264 263 264 263 262 261 259 258 257 256 255 256 257 257 258 257 255 254 258 257 255 256 256 256 256 257 258 258 259 259
262 264 265 265 266 267 266 266 265 265 264 264 264 264 263 262 262 261 260 258 258 258 258 258 258 258 258 258 258 257 256 259 256 257 258 258 257 257 257 257 257 258 258

GFSGL_sfc_thetae_114.txt.gz
Theta_e
308 309 318 324 324 320 316 311 308 304 303 303 302 296 295 294 295 295 295 294 293 292 292 292 291 292 291 291 291 291 290 290 288 289 290 290 289 289 290 290 290 290 290
309 310 310 313 317 314 316 310 305 300 302 296 298 294 294 294 294 293 292 292 291 290 290 290 289 289 289 289 290 289 289 289 288 285 287 288 288 289 289 288 289 289 289
306 308 309 310 310 311 307 305 303 297 297 293 295 293 292 292 292 292 291 291 290 290 289 289 288 288 287 288 288 288 288 287 288 287 286 288 288 288 288 288 287 288 288
303 306 306 306 306 306 302 299 297 295 293 290 292 291 291 291 291 290 290 289 288 288 288 288 287 288 287 287 287 288 287 287 287 286 286 286 287 287 288 285 284 287 286
301 302 303 300 300 297 295 293 290 292 290 292 289 290 290 290 288 289 289 288 287 287 287 286 287 286 287 288 287 287 287 286 286 285 285 285 285 284 283 284 283 284 285
299 299 297 294 291 291 289 288 288 288 288 288 287 288 288 286 289 289 289 287 287 286 285 285 286 285 286 286 286 286 287 285 284 284 285 283 283 284 285 283 282 280 280
296 293 291 291 290 289 287 286 286 286 287 286 287 288 287 287 289 289 288 287 286 286 285 285 284 284 285 286 286 286 285 286 286 286 284 283 283 284 284 282 282 280 281
293 290 289 289 288 287 286 286 286 286 285 285 286 287 287 287 289 289 286 287 286 286 285 285 285 285 285 285 285 285 285 286 286 286 286 286 286 287 285 284 281 280 281
292 291 289 289 288 287 286 286 286 285 285 285 286 286 287 288 289 288 286 286 285 284 285 285 285 285 285 286 285 284 285 286 287 287 288 286 285 285 284 283 280 278 279
292 291 290 289 288 287 287 286 285 286 285 285 285 286 286 287 289 288 286 286 284 284 284 284 284 285 285 286 285 285 283 285 285 285 285 286 285 283 282 283 282 278 278
291 290 288 288 288 288 287 286 285 285 285 285 284 285 285 286 288 288 287 285 285 284 284 283 284 286 286 286 286 285 285 286 285 285 285 285 284 283 282 282 281 280 278
288 287 287 286 287 287 286 285 285 285 284 284 284 283 283 284 286 289 289 287 287 285 284 285 285 285 285 286 285 286 287 285 285 284 283 282 283 283 283 282 282 281 281
286 286 286 286 286 286 285 284 284 284 284 283 282 282 282 282 283 287 288 289 287 285 285 285 285 284 285 285 286 286 283 283 282 281 280 280 281 283 281 281 281 280 278
285 285 285 285 285 285 286 285 285 284 284 283 283 283 282 281 282 284 285 287 286 286 284 284 284 284 284 284 282 281 281 280 280 280 281 281 281 279 279 280 278 279 277
285 285 285 285 284 285 285 285 285 286 286 284 284 283 282 281 281 283 284 284 284 285 283 282 281 281 280 280 279 278 278 277 277 278 278 278 278 278 277 278 277 277 275
284 283 284 285 284 284 284 283 285 285 285 286 286 285 284 284 285 284 284 284 284 284 281 279 279 280 279 279 278 277 276 274 276 276 277 276 275 276 276 276 276 275 274
285 284 284 283 283 283 283 283 280 281 284 284 284 285 284 283 285 284 284 284 284 283 280 279 279 279 278 277 275 274 274 274 273 273 274 275 274 274 273 273 274 274 274
283 282 284 284 283 283 283 283 282 281 279 280 283 283 284 284 284 285 285 284 281 282 281 279 277 277 276 274 273 272 272 271 271 272 272 273 272 272 272 272 273 272 272
283 284 283 284 283 283 283 282 282 281 281 281 281 282 283 284 284 284 285 281 280 279 276 276 276 274 273 271 271 270 270 270 270 270 270 270 270 270 269 270 270 267 268
281 279 281 283 282 282 281 281 281 280 281 281 279 281 282 282 280 280 281 281 279 278 277 274 272 271 270 269 268 268 267 267 267 268 268 269 268 268 268 267 268 268 267
280 281 280 281 281 281 281 281 281 281 280 281 280 281 281 279 279 280 279 280 277 276 274 273 271 268 267 267 266 266 266 267 267 267 267 267 266 265 266 267 267 266 265
277 279 280 279 280 280 280 280 280 280 280 280 281 279 282 278 279 278 279 278 276 275 273 271 269 267 266 265 265 265 265 265 265 265 265 265 265 265 265 265 265 265 265
273 275 276 277 277 277 277 278 278 279 279 279 278 274 274 277 275 275 276 274 271 269 268 267 267 265 265 264 265 265 265 264 265 265 264 264 264 264 264 264 264 263 264
270 271 271 273 273 273 273 274 274 273 274 274 273 271 271 273 275 271 271 270 268 267 265 264 264 264 264 263 263 263 263 264 264 263 263 264 263 262 263 263 263 262 262
268 268 269 270 271 272 272 272 272 272 272 271 270 269 270 270 270 270 269 268 266 264 263 263 262 263 263 262 262 262 262 262 262 261 261 261 261 261 261 261 262 262 262
265 266 266 267 268 269 269 270 270 270 270 269 269 269 268 268 268 267 267 265 264 263 263 262 262 262 262 263 262 262 261 261 261 260 261 261 261 260 260 260 260 260 261

GFSGL_sfc_thetae_117.txt.gz
Theta_e
314 320 324 326 327 326 325 326 322 318 313 312 309 305 304 301 301 299 298 297 296 294 295 293 292 293 292 292 292 292 290 291 289 289 289 290 289 289 289 290 290 289 289
311 311 316 323 322 322 322 318 312 310 308 308 304 301 300 298 298 297 294 294 293 292 292 291 290 291 290 291 290 290 290 290 289 286 287 287 287 288 288 288 288 289 288
310 310 310 310 315 319 317 312 308 306 303 302 299 298 296 295 295 295 293 293 292 291 291 290 289 289 288 289 289 289 289 288 288 286 285 287 287 287 286 287 286 287 288
308 308 309 309 310 312 314 309 305 303 299 299 296 295 294 294 293 292 291 291 291 290 290 290 289 289 288 288 288 288 288 287 286 285 285 285 285 285 285 284 283 284 284
305 306 307 307 308 305 300 299 296 298 295 295 291 290 290 291 290 290 290 289 288 288 288 288 288 288 289 289 287 287 287 287 285 284 284 284 284 283 282 283 282 282 283
303 303 304 301 298 295 293 292 290 290 290 289 290 289 289 288 291 291 290 288 287 286 286 286 287 285 287 288 288 289 289 286 283 284 284 283 282 282 283 282 281 280 277
299 297 295 293 292 291 290 289 288 289 288 288 288 288 288 287 291 291 290 287 286 286 285 285 284 285 285 285 287 287 286 287 287 286 284 283 282 282 281 282 281 280 279
296 294 291 291 290 289 288 288 288 288 287 287 288 287 288 287 291 290 288 287 286 286 286 285 284 284 285 285 285 284 284 284 285 285 285 284 285 284 283 283 282 280 280
295 293 291 290 288 288 287 287 287 286 286 286 286 287 287 287 290 289 287 286 285 285 285 285 285 284 285 286 284 284 284 284 287 287 288 288 287 286 285 282 280 279 277
294 293 292 290 288 288 288 287 287 287 285 285 285 287 286 287 290 289 287 285 284 284 284 285 284 285 286 286 284 284 282 283 284 284 284 285 286 284 284 281 281 278 277
291 290 288 288 287 289 288 287 286 285 284 284 285 285 286 287 288 289 288 285 284 284 283 283 284 287 287 286 286 284 284 285 285 284 284 284 284 281 282 282 281 280 278
288 287 287 286 287 286 286 286 285 285 285 284 284 284 285 286 287 289 288 287 287 284 284 284 284 286 287 286 286 286 287 286 284 284 283 282 283 282 283 282 281 281 281
286 285 285 285 286 286 286 285 284 285 284 284 283 283 283 284 286 289 289 288 288 285 285 286 286 286 287 287 287 286 284 285 283 282 280 281 282 282 281 279 281 281 280
285 285 285 285 285 285 286 286 286 284 284 284 284 283 283 282 284 286 287 288 287 286 286 285 285 285 285 284 283 285 283 282 282 280 280 282 281 280 279 280 278 278 278
285 284 285 285 285 285 285 286 285 286 287 285 285 285 284 282 283 285 286 286 286 286 284 284 283 282 282 282 282 282 281 279 277 277 277 278 279 278 278 278 277 276 275
284 284 285 285 285 284 284 284 287 287 287 288 289 287 286 287 287 286 286 287 288 287 283 281 280 281 280 280 280 279 278 277 277 277 276 276 277 276 276 277 276 274 273
283 284 284 282 284 284 283 284 283 283 284 286 287 288 287 286 287 286 286 287 287 286 282 281 280 280 280 280 280 279 277 276 276 275 275 275 275 275 274 273 274 274 273
281 282 283 284 284 284 283 283 283 283 281 282 284 285 286 286 286 286 286 286 283 284 282 281 280 280 280 279 278 277 275 274 271 272 272 273 273 273 272 272 272 272 272
281 284 284 284 284 283 283 283 282 282 282 282 282 283 284 286 285 286 286 283 282 281 281 281 281 280 280 278 277 275 273 272 271 271 271 271 271 270 270 270 271 269 267
281 281 279 283 283 283 283 282 282 281 281 281 282 282 282 282 281 282 284 284 283 282 282 282 281 280 278 275 274 272 271 270 269 269 269 269 269 269 268 266 265 266 264
278 280 280 281 282 282 282 282 282 281 281 281 281 283 283 281 281 282 282 283 283 283 282 281 279 276 274 272 271 270 269 268 267 267 267 268 268 267 266 266 266 263 261
275 277 279 279 280 280 281 281 281 280 280 280 280 282 284 282 281 282 283 283 283 283 282 279 276 274 272 270 269 269 268 267 268 267 267 266 266 265 265 264 262 261 260
273 273 274 275 276 276 276 277 278 278 278 279 279 279 275 279 281 280 278 278 277 275 274 273 273 270 269 269 269 269 267 266 267 266 266 265 264 264 263 262 260 258 261
270 270 271 271 272 273 273 273 274 274 274 274 276 276 274 275 277 277 276 277 275 273 271 269 270 269 267 266 267 267 268 267 267 266 266 265 264 264 264 262 261 260 260
268 268 268 268 269 270 271 272 272 273 273 272 272 273 273 273 273 274 275 274 272 271 269 267 267 267 266 265 264 264 265 267 265 264 264 264 264 263 262 263 262 261 261
265 265 265 266 266 267 268 268 269 269 269 270 270 270 270 269 270 270 271 270 268 267 266 265 264 264 265 265 264 265 264 266 263 263 263 262 262 262 261 261 261 260 260

GFSGL_sfc_thetae_120.txt.gz
Theta_e
312 315 319 323 325 326 327 325 322 320 318 317 314 310 308 307 306 303 300 297 295 293 293 291 290 290 289 289 289 288 287 288 286 285 287 286 285 285 286 286 287 285 285
304 306 310 315 317 318 318 318 318 314 311 312 309 308 305 304 302 300 297 295 294 292 291 289 289 290 288 288 288 287 287 287 286 284 285 283 283 285 285 284 286 287 285
305 304 305 306 311 314 314 312 311 309 307 306 306 305 302 301 300 298 297 295 293 292 290 289 288 288 286 286 287 287 287 287 287 285 282 283 283 283 281 282 283 282 286
304 304 303 303 305 307 312 310 307 305 303 302 302 302 299 298 297 295 293 292 291 290 289 288 288 287 287 287 287 286 287 285 284 282 282 282 280 281 280 279 279 278 279
301 300 301 301 302 302 300 299 297 298 298 297 295 293 293 294 293 291 291 291 289 287 287 287 287 287 288 289 287 285 285 284 284 283 283 281 279 279 280 280 279 278 279
299 298 299 298 295 293 292 292 291 290 291 290 289 290 291 292 293 293 291 289 288 287 286 285 286 286 289 290 290 289 288 285 284 283 283 282 282 281 280 279 280 279 274
295 292 292 291 291 290 289 288 288 289 288 288 289 289 289 289 292 292 290 288 287 286 286 285 284 285 285 285 289 290 289 290 288 285 283 282 280 281 279 276 280 280 279
290 290 289 289 288 287 287 288 288 288 287 287 287 288 287 286 292 292 289 287 286 285 285 284 284 283 284 285 284 284 284 285 285 285 283 283 282 282 281 280 278 278 280
289 289 288 287 285 286 285 287 287 286 286 286 286 286 286 286 291 290 287 286 285 285 284 284 284 284 286 287 284 283 283 283 287 287 287 288 288 288 285 277 277 277 277
288 288 288 287 284 284 284 284 283 286 285 285 285 286 286 287 291 290 288 286 285 284 283 284 284 284 287 287 283 282 281 282 283 282 282 285 287 285 287 280 276 273 277
287 286 284 284 282 283 282 282 282 282 284 284 284 285 286 287 288 290 289 285 285 283 282 282 284 287 287 288 286 283 283 284 284 282 281 280 281 279 280 280 279 280 278
282 282 282 280 282 283 280 281 284 285 285 284 284 283 284 285 287 290 289 288 287 284 282 283 283 287 287 288 287 286 287 285 283 281 279 280 281 282 280 282 281 281 281
281 278 282 281 283 284 280 283 284 285 284 283 283 283 283 284 286 289 290 288 288 284 283 284 285 287 288 287 288 287 285 284 282 282 281 281 281 280 280 280 280 280 280
284 282 280 280 279 279 282 282 284 284 284 284 283 284 283 283 285 286 287 287 286 285 286 285 286 286 287 286 284 286 285 283 283 282 282 280 279 278 279 279 278 278 277
280 280 282 282 279 279 280 280 281 281 284 285 285 285 284 282 284 287 287 286 285 286 284 283 283 283 283 283 282 282 283 282 281 281 278 277 277 278 277 278 278 276 275
279 278 278 278 277 278 278 279 286 287 288 288 289 286 282 287 287 287 288 288 288 288 283 282 281 281 281 281 281 281 281 281 280 279 277 277 277 277 276 277 276 275 273
274 277 277 277 277 277 277 277 277 281 287 286 287 288 288 286 288 287 288 288 288 288 283 282 281 281 281 281 281 280 279 280 279 277 277 276 276 276 275 274 274 274 272
279 278 274 275 276 276 276 276 275 275 274 275 281 285 286 287 287 288 287 287 284 286 284 282 282 282 282 281 280 280 280 278 276 276 275 275 275 274 273 272 272 271 271
276 280 280 281 281 280 279 278 277 277 275 274 273 279 279 286 286 287 287 284 283 282 284 283 283 283 282 282 281 280 279 276 275 273 273 273 273 273 272 271 271 270 269
278 280 280 279 280 280 277 276 276 276 276 280 276 274 272 275 280 282 283 284 283 282 282 283 283 283 282 282 281 279 276 275 273 272 272 272 272 271 270 268 268 267 264
275 277 278 279 279 279 279 279 273 273 274 275 272 272 283 280 278 278 281 282 283 283 283 283 283 283 283 281 279 276 275 274 273 272 271 270 269 269 269 268 267 265 262
264 265 266 270 273 276 275 272 274 275 277 278 279 278 282 280 280 279 280 281 283 284 285 284 283 280 279 276 275 273 272 271 270 270 269 269 268 267 267 266 266 265 262
264 263 263 264 264 270 272 273 274 274 274 274 269 272 269 268 274 277 278 276 277 278 276 277 277 275 275 275 274 274 272 271 271 270 269 268 267 267 266 265 265 264 263
258 259 261 260 260 261 263 269 271 271 272 272 270 266 268 268 266 269 273 275 276 277 277 275 275 275 273 271 271 271 272 271 271 269 269 268 266 266 265 265 264 264 264
257 257 256 257 256 258 260 260 261 262 266 264 265 262 261 261 262 263 266 270 271 271 269 268 270 270 270 269 269 268 269 270 268 268 268 267 265 265 265 264 264 263 263
255 255 254 254 255 255 256 258 259 260 261 262 262 263 263 263 262 262 261 263 266 265 264 262 263 265 266 267 267 267 267 269 266 267 267 266 265 264 264 264 263 263 262

GFSGL_sfc_thetae_123.txt.gz
Theta_e
315 315 317 320 322 323 326 325 324 322 322 323 322 320 317 314 312 312 309 306 306 300 296 296 292 291 290 289 289 288 288 288 286 285 286 287 286 286 286 286 286 285 285
304 309 311 313 315 317 321 322 319 321 316 318 316 314 312 311 309 309 306 304 304 300 295 293 291 291 289 288 288 287 287 288 287 283 284 284 285 285 284 284 286 286 284
301 301 302 305 310 312 313 315 316 315 311 309 309 309 307 307 306 306 306 303 302 301 296 292 291 290 288 287 286 286 286 287 287 285 283 284 284 284 283 283 282 281 285
301 301 301 301 303 306 309 309 310 310 308 306 306 306 304 304 303 301 300 299 300 297 295 292 290 290 288 287 286 286 286 284 283 282 282 282 283 283 283 280 278 278 280
299 299 299 299 300 300 301 302 301 302 303 302 300 298 298 298 297 295 294 295 293 292 291 289 290 289 288 289 287 285 285 284 283 282 282 282 282 282 280 279 279 278 278
297 297 296 296 295 294 293 293 293 294 295 294 293 294 293 294 295 295 295 292 291 289 288 288 288 286 289 290 290 290 288 285 283 283 283 283 283 282 281 280 279 277 276
293 291 291 291 291 289 288 289 289 289 288 289 290 291 290 290 294 294 292 291 290 289 287 287 288 287 286 287 290 290 289 290 288 285 283 283 283 282 281 277 279 278 278
289 289 289 289 288 288 287 287 287 287 289 289 289 289 289 289 293 293 290 288 288 288 287 287 286 285 286 286 286 286 286 287 287 286 285 284 284 284 283 281 279 277 279
289 288 288 287 284 285 283 284 288 287 286 287 286 287 287 287 291 292 289 286 286 286 286 286 286 286 287 288 285 284 283 283 287 288 287 288 288 287 284 279 276 274 273
287 287 287 287 282 282 283 281 282 286 286 285 286 286 286 286 291 292 289 287 285 285 285 285 284 286 287 288 284 283 281 282 283 282 284 286 287 287 287 282 278 275 272
285 285 283 283 281 281 281 281 280 284 285 285 284 284 285 286 288 291 291 286 286 286 284 283 284 287 287 289 287 284 283 284 284 283 282 282 282 281 282 282 280 279 276
280 281 280 280 283 283 277 278 284 285 285 284 284 283 283 284 287 291 291 289 288 285 284 284 284 287 287 288 287 286 286 284 283 282 281 281 281 281 281 281 280 281 281
280 281 282 282 283 283 277 279 284 284 284 283 283 283 283 283 284 289 290 290 289 285 285 285 286 287 288 288 289 287 285 283 282 281 281 281 282 282 281 279 279 279 281
279 280 276 276 278 280 278 279 279 282 283 283 283 283 283 282 284 285 287 288 287 287 285 285 285 286 287 286 285 287 285 284 283 282 282 282 282 279 279 279 279 278 278
275 276 280 279 275 276 277 277 279 278 280 279 281 284 284 282 284 286 287 286 286 286 285 284 283 283 283 284 284 284 285 284 283 283 282 281 280 279 279 279 278 278 276
277 276 275 275 274 275 274 276 284 286 288 288 288 285 280 286 288 288 288 289 289 288 284 282 282 282 281 282 282 282 283 283 283 283 282 281 279 279 278 278 278 276 275
275 273 273 275 275 273 273 274 274 279 285 286 286 287 287 287 288 288 288 288 289 288 284 283 281 282 282 282 282 282 281 282 283 282 281 280 279 278 278 276 276 276 274
282 281 280 281 281 281 279 277 275 270 271 274 280 284 285 286 286 287 288 288 284 286 285 284 283 283 282 282 282 282 282 282 281 280 279 279 278 277 276 276 275 274 274
279 279 278 279 280 280 279 271 270 270 270 271 270 278 276 284 285 286 287 283 283 283 284 284 285 284 283 283 283 283 282 282 281 280 279 278 277 276 275 275 275 274 273
278 278 279 279 278 279 277 278 268 268 268 267 267 270 273 272 279 276 275 283 283 283 283 282 283 284 284 283 283 283 282 282 280 278 277 276 276 275 275 274 273 272 271
268 265 272 274 274 275 268 270 269 270 276 272 271 274 282 279 279 277 280 278 276 280 282 283 282 282 283 283 283 283 282 280 278 276 275 275 274 273 274 274 272 272 271
258 258 259 260 260 263 267 271 266 270 272 272 273 268 276 267 269 273 275 276 278 279 281 282 283 284 284 283 283 281 279 278 277 276 274 274 273 272 272 271 270 270 268
258 258 259 258 257 259 259 259 263 268 268 270 272 267 266 264 263 265 269 270 272 273 275 276 277 277 276 277 278 278 277 276 276 275 273 272 271 271 271 269 268 268 266
258 256 256 255 256 256 257 258 258 261 262 263 263 263 262 264 263 263 264 266 268 269 270 270 271 271 272 272 270 271 274 275 275 274 273 272 270 270 269 268 267 267 266
258 257 254 254 253 254 254 256 256 254 256 256 258 258 261 260 261 261 262 263 264 265 265 266 266 267 267 268 268 269 270 271 271 270 270 270 269 268 267 267 266 266 266
256 256 254 252 253 251 252 254 256 254 254 256 257 256 257 260 260 261 261 261 262 262 261 262 261 260 261 262 264 266 267 269 268 268 269 268 266 266 266 265 265 265 264